Date StartTime U_cm/s V_cm/s W_cm/s Ustd_cm/s Vstd_cm/s Wstd_cm/s Uvar_(cm/s)^2 Vvar_(cm/s)^2 Wvar_(cm/s)^2 KE_(m/s)^2 TurbulentKE_(m/s)^2 HorizWindSpeed_cm/s FrictionSpeec_cm/s DragCoef SpeedOfSound_m/s SonicTemperature_C Pressure_mb 
10/27/2014  00:00:00      -81.069      -13.352      -16.142       23.008       19.204       15.345      529.360      368.797      235.460        0.407        0.057       82.162        8.596        0.011      334.747        4.924      863.444
10/27/2014  00:01:00      -92.291       -3.908      -20.647       22.354       22.046       16.003      499.688      486.039      256.107        0.510        0.062       92.374        7.999        0.007      334.690        4.830      863.421
10/27/2014  00:02:00      -87.897       -3.584      -19.301       21.886       18.879       11.991      478.975      356.426      143.773        0.455        0.049       87.970       10.748        0.015      334.698        4.844      863.407
10/27/2014  00:03:00      -78.223       -2.687      -13.491       26.489       22.220       15.016      701.666      493.740      225.473        0.386        0.071       78.269        6.641        0.007      334.880        5.144      863.385
10/27/2014  00:04:00      -99.636       14.941      -16.383       25.202       24.190       15.644      635.123      585.149      244.746        0.594        0.073      100.750       10.993        0.012      334.876        5.138      863.376
10/27/2014  00:05:00      -95.652      -24.775      -13.869       14.529       20.229       10.533      211.088      409.210      110.936        0.534        0.037       98.808       10.062        0.010      334.750        4.928      863.363
10/27/2014  00:06:00      -87.521       -9.057      -12.359       26.382       19.390       16.097      696.004      375.956      259.119        0.461        0.067       87.988       13.613        0.024      334.785        4.986      863.361
10/27/2014  00:07:00      -92.661      -18.204       -6.934       22.292       18.280       13.928      496.954      334.172      193.987        0.500        0.051       94.432       12.293        0.017      334.779        4.977      863.343
10/27/2014  00:08:00      -90.320      -13.380      -10.769       29.951       23.586       13.799      897.038      556.291      190.409        0.505        0.082       91.305       13.377        0.021      334.784        4.985      863.343
10/27/2014  00:09:00     -125.339      -16.597      -10.032       26.451       19.868       14.448      699.636      394.752      208.737        0.869        0.065      126.433       12.108        0.009      334.794        5.000      863.328
10/27/2014  00:10:00      -99.440        3.224       -9.856       26.801       22.849       17.671      718.287      522.077      312.274        0.577        0.078       99.492       11.565        0.014      334.835        5.070      863.313
10/27/2014  00:11:00     -106.596        0.396      -15.722       16.865       18.745       11.189      284.427      351.370      125.186        0.619        0.038      106.597        6.947        0.004      334.848        5.092      863.304
10/27/2014  00:12:00     -115.458        5.644      -15.631       22.507       21.152       15.146      506.550      447.428      229.401        0.739        0.059      115.596       11.782        0.010      334.868        5.125      863.284
10/27/2014  00:13:00     -123.198       -9.856      -16.357       30.953       20.515       15.855      958.085      420.867      251.381        0.859        0.082      123.592       15.620        0.016      334.855        5.102      863.287
10/27/2014  00:14:00     -146.705       17.914      -14.628       25.459       27.161       18.435      648.137      737.723      339.857        1.189        0.086      147.794       10.369        0.005      334.833        5.067      863.295
10/27/2014  00:15:00     -152.545       -1.665      -15.794       33.707       27.376       20.551     1136.172      749.458      422.333        1.291        0.115      152.554       19.359        0.016      334.810        5.027      863.310
10/27/2014  00:16:00     -161.082       17.445      -20.089       22.177       23.754       15.034      491.828      564.274      226.009        1.397        0.064      162.023        9.937        0.004      334.746        4.924      863.330
10/27/2014  00:17:00     -155.077       45.340      -15.458       31.802       21.227       17.339     1011.347      450.583      300.630        1.405        0.088      161.569       14.620        0.008      334.749        4.926      863.353
10/27/2014  00:18:00     -142.552       36.153      -18.906       23.456       24.945       17.161      550.174      622.246      294.515        1.173        0.073      147.064       11.351        0.006      334.793        4.999      863.380
10/27/2014  00:19:00      -76.680       -0.498       -2.504       32.754       32.937       18.834     1072.813     1084.844      354.718        0.420        0.126       76.682       15.354        0.040      334.789        4.996      863.384
10/27/2014  00:20:00      -95.367       -0.556       -8.089       36.249       36.386       15.635     1314.017     1323.941      244.441        0.602        0.144       95.369       17.380        0.033      334.740        4.912      863.390
10/27/2014  00:21:00     -145.376       -4.617      -12.818       34.179       28.602       21.859     1168.224      818.054      477.800        1.189        0.123      145.449       17.309        0.014      334.654        4.770      863.397
10/27/2014  00:22:00     -109.711        7.416       -5.389       45.001       34.885       26.816     2025.084     1216.933      719.084        0.804        0.198      109.961       28.063        0.065      334.539        4.579      863.415
10/27/2014  00:23:00     -122.599        2.576      -14.193       39.891       26.142       20.616     1591.318      683.401      425.012        0.897        0.135      122.626       22.331        0.033      334.565        4.621      863.420
10/27/2014  00:24:00     -127.833       -4.354       -9.979       35.806       28.978       23.540     1282.085      839.724      554.122        0.957        0.134      127.907       20.278        0.025      334.485        4.488      863.418
10/27/2014  00:25:00      -81.951      -16.046       -4.170       44.392       30.696       20.448     1970.663      942.269      418.128        0.516        0.167       83.507       21.693        0.067      334.445        4.422      863.409
10/27/2014  00:26:00     -104.901      -10.071      -15.052       30.475       19.242       14.791      928.705      370.265      218.763        0.642        0.076      105.384        9.798        0.009      334.577        4.642      863.407
10/27/2014  00:27:00      -82.347        0.255       -9.190       34.150       21.906       15.108     1166.249      479.893      228.241        0.437        0.094       82.347       12.285        0.022      334.527        4.558      863.391
10/27/2014  00:28:00      -63.646       -5.383      -10.581       35.791       19.950       11.672     1281.019      397.997      136.245        0.300        0.091       63.873        8.527        0.018      334.632        4.732      863.383
10/27/2014  00:29:00      -87.329       -4.024      -10.721       27.589       15.959       14.354      761.151      254.676      206.025        0.449        0.061       87.422        4.473        0.003      334.569        4.627      863.373
10/27/2014  00:30:00      -69.728      -28.436       -6.153       14.906       16.324       12.193      222.185      266.477      148.658        0.317        0.032       75.304        8.070        0.011      334.662        4.783      863.362
10/27/2014  00:31:00      -72.719      -10.701       -7.277       19.659       16.811        8.983      386.467      282.599       80.686        0.310        0.037       73.502        6.169        0.007      334.718        4.877      863.356
10/27/2014  00:32:00      -65.978      -24.013       -7.476       18.551       13.602       10.963      344.137      185.007      120.182        0.282        0.032       70.212       10.627        0.023      334.687        4.825      863.357
10/27/2014  00:33:00      -73.520      -21.898      -11.699       24.911       13.368       15.191      620.561      178.715      230.767        0.353        0.052       76.712       15.761        0.042      334.761        4.947      863.359
10/27/2014  00:34:00      -80.350      -37.680       -5.088       15.859       15.344        8.895      251.521      235.436       79.113        0.423        0.028       88.746        4.989        0.003      334.841        5.081      863.360
10/27/2014  00:35:00     -108.631      -46.843       -9.039       10.455       11.207       12.304      109.310      125.605      151.401        0.723        0.019      118.300        4.826        0.002      334.844        5.086      863.358
10/27/2014  00:36:00      -99.030      -35.085      -11.627       14.664       11.686       10.348      215.042      136.553      107.081        0.582        0.023      105.061        8.650        0.007      334.833        5.066      863.358
10/27/2014  00:37:00      -76.801      -39.524       -4.796       30.782       15.905       12.306      947.539      252.983      151.446        0.442        0.068       86.374       10.937        0.016      334.780        4.978      863.355
10/27/2014  00:38:00      -27.142      -25.983       -2.283       27.968       15.667       12.818      782.228      245.456      164.297        0.130        0.060       37.574       11.970        0.101      334.816        5.038      863.334
10/27/2014  00:39:00      -60.310      -32.649       -8.274       32.032       22.867       15.215     1026.059      522.900      231.507        0.328        0.089       68.581        8.790        0.016      334.713        4.868      863.316
10/27/2014  00:40:00      -19.778      -24.123        8.504       36.303       16.389       17.665     1317.872      268.599      312.069        0.147        0.095       31.194       18.911        0.368      334.697        4.841      863.300
10/27/2014  00:41:00      -35.458      -28.910       -0.637       33.124       25.778       13.674     1097.169      664.498      186.988        0.202        0.097       45.750       16.478        0.130      334.787        4.990      863.301
10/27/2014  00:42:00      -14.725      -33.449        9.818       23.551       13.966       15.901      554.654      195.037      252.844        0.122        0.050       36.547       14.229        0.152      334.840        5.078      863.299
10/27/2014  00:43:00      -13.599      -26.183        5.948       24.521       12.484       12.585      601.292      155.842      158.372        0.091        0.046       29.504       12.388        0.176      334.845        5.085      863.298
10/27/2014  00:44:00      -40.088      -23.221       -3.250       12.458       10.874        9.885      155.205      118.251       97.709        0.126        0.019       46.328        6.342        0.019      334.844        5.085      863.293
10/27/2014  00:45:00      -55.435      -14.355       -5.649       10.196        9.312        5.965      103.961       86.721       35.580        0.177        0.011       57.264        3.966        0.005      334.830        5.062      863.301
10/27/2014  00:46:00      -67.245      -20.260       -9.864       11.313       10.261        7.783      127.991      105.285       60.570        0.266        0.015       70.231        4.193        0.004      334.874        5.134      863.312
10/27/2014  00:47:00      -35.231      -20.616        0.442       38.523       19.083       11.520     1484.018      364.166      132.717        0.182        0.099       40.820       10.322        0.064      334.803        5.016      863.313
10/27/2014  00:48:00      -32.388      -21.947        1.070       31.051       21.744       11.650      964.164      472.812      135.730        0.155        0.079       39.124       11.703        0.089      334.750        4.929      863.304
10/27/2014  00:49:00      -64.057      -44.752       -3.352       25.850       13.585       11.358      668.220      184.548      128.996        0.355        0.049       78.141        6.391        0.007      334.738        4.908      863.292
10/27/2014  00:50:00      -90.361      -38.445       -7.682       15.162       12.522       11.744      229.878      156.800      137.917        0.511        0.026       98.200        5.945        0.004      334.763        4.950      863.283
10/27/2014  00:51:00      -82.124      -44.735        1.526       34.149       19.338       13.646     1166.135      373.942      186.226        0.524        0.086       93.517       13.481        0.021      334.745        4.919      863.280
10/27/2014  00:52:00      -75.824      -49.212       -3.388       38.390       23.330       14.659     1473.830      544.287      214.886        0.521        0.112       90.394       13.148        0.021      334.764        4.952      863.276
10/27/2014  00:53:00      -88.507      -45.447       -3.116       27.616       19.399       21.362      762.650      376.311      456.335        0.575        0.080       99.493       10.623        0.011      334.720        4.878      863.266
10/27/2014  00:54:00      -80.020      -53.406       -1.874       42.547       27.861       18.554     1810.237      776.212      344.242        0.609        0.147       96.205       20.063        0.043      334.651        4.765      863.265
10/27/2014  00:55:00      -44.494      -52.309        5.798       41.213       43.154       17.100     1698.482     1862.244      292.416        0.430        0.193       68.673       18.483        0.072      334.667        4.791      863.269
10/27/2014  00:56:00      -31.889      -68.061       -1.121       33.470       36.007       17.526     1120.269     1296.525      307.152        0.419        0.136       75.161       16.180        0.046      334.812        5.032      863.269
10/27/2014  00:57:00      -59.168      -56.764       -5.384       32.350       20.634       18.277     1046.543      425.761      334.066        0.428        0.090       81.994       15.437        0.035      334.812        5.032      863.287
10/27/2014  00:58:00      -31.492      -36.580       10.557       24.380       19.038       17.624      594.372      362.437      310.623        0.185        0.063       48.269       15.274        0.100      334.696        4.840      863.306
10/27/2014  00:59:00      -33.507      -66.304       -2.197       38.644       19.865       22.042     1493.379      394.637      485.837        0.395        0.119       74.290       14.446        0.038      334.713        4.867      863.314
10/27/2014  01:00:00      -68.552      -77.850       -5.883       39.188       29.361       18.415     1535.673      862.044      339.128        0.677        0.137      103.730       14.690        0.020      334.656        4.772      863.319
10/27/2014  01:01:00      -73.372      -51.296       -0.825       24.315       33.003       19.290      591.217     1089.209      372.093        0.503        0.103       89.525       15.143        0.029      334.650        4.762      863.308
10/27/2014  01:02:00      -42.194      -22.435        4.747       33.016       27.800       19.535     1090.024      772.835      381.628        0.227        0.112       47.788       14.594        0.093      334.577        4.640      863.295
10/27/2014  01:03:00      -40.291      -16.311        2.060       23.952       19.083       20.057      573.683      364.145      402.272        0.162        0.067       43.468        9.121        0.044      334.568        4.625      863.284
10/27/2014  01:04:00      -31.991      -15.345       -3.105       21.604       19.099       13.340      466.736      364.771      177.956        0.114        0.050       35.481       13.022        0.135      334.680        4.813      863.276
10/27/2014  01:05:00      -47.196      -16.217        3.564       25.980       22.203       16.507      674.954      492.986      272.481        0.197        0.072       49.905       10.729        0.046      334.650        4.764      863.274
10/27/2014  01:06:00      -66.905      -21.179       -4.440       22.720       23.416       15.272      516.193      548.312      233.240        0.312        0.065       70.177        8.953        0.016      334.638        4.742      863.281
10/27/2014  01:07:00      -76.639      -33.989       -2.363       24.616       19.456       19.133      605.946      378.521      366.070        0.419        0.068       83.838        9.430        0.013      334.553        4.602      863.301
10/27/2014  01:08:00      -39.142      -11.158        4.002       34.164       14.512       11.782     1167.176      210.612      138.813        0.159        0.076       40.701        9.297        0.052      334.532        4.565      863.323
10/27/2014  01:09:00      -56.670      -30.228        3.502       25.248       20.132       16.492      637.455      405.294      271.972        0.273        0.066       64.228        9.826        0.023      334.531        4.566      863.346
10/27/2014  01:10:00      -10.617      -13.242        3.717       18.454       18.220       13.402      340.542      331.977      179.621        0.058        0.043       16.973        8.063        0.226      334.503        4.520      863.369
10/27/2014  01:11:00      -52.839       -8.866        6.092       44.208       13.257       16.731     1954.383      175.757      279.915        0.266        0.121       53.578       15.549        0.084      334.464        4.456      863.390
10/27/2014  01:12:00      -30.579      -11.125        2.714       21.267       12.382       15.508      452.277      153.311      240.502        0.096        0.042       32.540        7.398        0.052      334.495        4.504      863.418
10/27/2014  01:13:00      -63.352      -31.642       -4.089       18.682       21.604       13.202      349.012      466.727      174.292        0.301        0.050       70.814        7.642        0.012      334.574        4.637      863.436
10/27/2014  01:14:00       -2.877      -38.043      -11.340       28.667       15.985       11.475      821.825      255.534      131.670        0.140        0.060       38.152       10.054        0.069      334.591        4.665      863.450
10/27/2014  01:15:00      -23.617       -8.194        4.746       25.877       19.964       11.296      669.596      398.547      127.592        0.092        0.060       24.998       13.685        0.300      334.534        4.570      863.475
10/27/2014  01:16:00      -71.622      -37.542        0.286       22.509       17.641       14.917      506.652      311.220      222.526        0.379        0.052       80.865        5.241        0.004      334.499        4.511      863.486
10/27/2014  01:17:00       -8.016      -26.726       -3.697       28.775       12.083       12.286      828.029      146.006      150.943        0.096        0.056       27.902        6.850        0.060      334.490        4.497      863.507
10/27/2014  01:18:00      -51.139      -24.034       -4.782       18.296       14.055        9.748      334.760      197.555       95.017        0.192        0.031       56.505        6.772        0.014      334.431        4.400      863.524
10/27/2014  01:19:00      -63.465      -21.640       -3.705       22.981       15.732       11.822      528.146      247.511      139.758        0.271        0.046       67.053       12.223        0.033      334.394        4.337      863.529
10/27/2014  01:20:00      -88.327      -29.442      -15.153       10.425       11.656        9.811      108.670      135.857       96.259        0.462        0.017       93.104        3.240        0.001      334.420        4.380      863.525
10/27/2014  01:21:00      -58.975      -34.280       -1.671       45.280       21.488       13.945     2050.316      461.747      194.454        0.368        0.135       68.214       18.121        0.071      334.389        4.329      863.518
10/27/2014  01:22:00      -29.486      -43.817        0.540       31.092       27.010       17.172      966.682      729.561      294.885        0.239        0.100       52.814       15.074        0.081      334.430        4.399      863.512
10/27/2014  01:23:00      -43.034      -26.559        5.085       33.075       26.351       17.179     1093.928      694.387      295.135        0.233        0.104       50.570       15.274        0.091      334.361        4.284      863.508
10/27/2014  01:24:00      -68.797      -37.856        3.212       38.618       20.885       17.204     1491.351      436.190      295.965        0.420        0.111       78.525       17.713        0.051      334.293        4.171      863.512
10/27/2014  01:25:00      -91.126      -28.867       -4.517       18.249       15.834       13.518      333.041      250.720      182.750        0.496        0.038       95.589       10.701        0.013      334.315        4.208      863.529
10/27/2014  01:26:00      -64.144      -10.513       -5.517       15.836       13.883       12.006      250.789      192.733      144.144        0.242        0.029       65.000        7.120        0.012      334.235        4.073      863.553
10/27/2014  01:27:00      -41.605       -7.475       -3.821       13.406       11.332       11.731      179.734      128.418      137.619        0.112        0.022       42.271        5.766        0.019      334.264        4.123      863.568
10/27/2014  01:28:00      -36.300      -24.779       -6.894       14.305       10.356       11.314      204.636      107.244      128.017        0.121        0.022       43.951        6.386        0.021      334.347        4.260      863.579
10/27/2014  01:29:00      -61.687      -35.358       -9.008       17.692       12.833       14.608      313.016      164.674      213.396        0.291        0.035       71.102        9.961        0.020      334.372        4.301      863.581
10/27/2014  01:30:00      -60.554      -27.803       -8.224       11.522       10.316        7.717      132.746      106.410       59.554        0.240        0.015       66.632        2.887        0.002      334.383        4.321      863.573
10/27/2014  01:31:00      -48.033      -19.928       -7.349       29.604       15.382       10.768      876.396      236.618      115.949        0.199        0.061       52.003        9.651        0.034      334.287        4.160      863.574
10/27/2014  01:32:00      -36.149      -18.601       -1.406       15.304       13.038        6.900      234.218      170.000       47.615        0.105        0.023       40.653        5.938        0.021      334.258        4.112      863.588
10/27/2014  01:33:00      -83.548      -33.015      -12.652       15.550       15.111       12.109      241.808      228.349      146.623        0.442        0.031       89.835        6.755        0.006      334.363        4.289      863.598
10/27/2014  01:34:00      -93.542      -16.271      -13.277       12.424       14.919       11.444      154.350      222.582      130.965        0.485        0.025       94.947        1.823        0.000      334.261        4.118      863.602
10/27/2014  01:35:00      -49.631      -20.392        1.019       34.103       29.597       19.249     1162.999      875.962      370.521        0.264        0.120       53.657       18.414        0.118      334.218        4.046      863.597
10/27/2014  01:36:00      -62.751       -7.148      -17.267        9.870       14.565        8.484       97.426      212.154       71.978        0.233        0.019       63.157        3.737        0.004      334.082        3.819      863.585
10/27/2014  01:37:00      -57.524       -6.077      -10.543       10.187        6.301        7.427      103.767       39.703       55.165        0.183        0.010       57.844        3.019        0.003      334.175        3.975      863.554
10/27/2014  01:38:00      -41.154       -9.721       -8.383       14.594       12.851        6.964      212.986      165.139       48.497        0.114        0.021       42.286        7.156        0.029      334.389        4.330      863.529
10/27/2014  01:39:00      -41.199      -20.065       -5.406       25.777       14.595        7.742      664.438      213.018       59.938        0.153        0.047       45.825        2.707        0.003      334.345        4.258      863.513
10/27/2014  01:40:00      -79.246      -13.019       -7.535       20.580       11.478       10.844      423.516      131.755      117.599        0.359        0.034       80.308        8.403        0.011      334.231        4.067      863.498
10/27/2014  01:41:00      -81.292      -29.995      -12.106       11.937       14.282       10.452      142.500      203.986      109.237        0.406        0.023       86.649        5.584        0.004      334.131        3.902      863.489
10/27/2014  01:42:00      -91.099      -13.984       -7.132       28.008       26.069       16.919      784.463      679.612      286.268        0.515        0.088       92.166       12.809        0.019      333.951        3.603      863.493
10/27/2014  01:43:00      -94.454      -20.630      -12.930       19.181       13.383       10.080      367.912      179.108      101.607        0.508        0.032       96.681        9.679        0.010      333.911        3.537      863.507
10/27/2014  01:44:00      -94.541      -27.389      -14.729        7.844        6.430        7.009       61.533       41.350       49.127        0.503        0.008       98.428        2.725        0.001      334.041        3.753      863.503
10/27/2014  01:45:00     -103.296      -37.563       -9.983       23.105       12.672        9.333      533.829      160.588       87.105        0.648        0.039      109.914        7.290        0.004      334.166        3.959      863.498
10/27/2014  01:46:00     -112.024      -23.335      -16.607       15.687       15.297       11.130      246.068      233.986      123.876        0.699        0.030      114.429        9.366        0.007      334.133        3.903      863.497
10/27/2014  01:47:00     -128.469       -6.074      -16.717       11.738        9.906       11.117      137.786       98.128      123.590        0.859        0.018      128.613        3.479        0.001      333.977        3.646      863.502
10/27/2014  01:48:00     -111.991      -29.615      -15.828       18.388       16.610       13.626      338.121      275.887      185.664        0.723        0.040      115.841       11.602        0.010      334.001        3.686      863.509
10/27/2014  01:49:00     -121.635      -30.964      -12.170       23.148       15.627       14.701      535.823      244.200      216.110        0.845        0.050      125.514       13.330        0.011      333.989        3.666      863.505
10/27/2014  01:50:00     -142.209      -10.101      -13.035       28.357       21.309       23.113      804.134      454.089      534.189        1.114        0.090      142.567       18.781        0.017      333.818        3.382      863.501
10/27/2014  01:51:00     -125.568      -23.273      -21.727       28.976       19.589       16.719      839.633      383.725      279.515        0.914        0.075      127.706       15.143        0.014      333.830        3.402      863.509
10/27/2014  01:52:00     -117.904      -35.873      -16.881       15.008       22.479       15.916      225.235      505.289      253.319        0.823        0.049      123.241        7.270        0.003      333.879        3.484      863.507
10/27/2014  01:53:00     -100.770      -32.527       -9.219       27.004       27.700       19.954      729.229      767.277      398.144        0.660        0.095      105.889        8.789        0.007      333.896        3.512      863.499
10/27/2014  01:54:00     -105.154      -19.698       -5.187       37.022       27.487       27.189     1370.628      755.539      739.255        0.717        0.143      106.983       25.885        0.059      333.700        3.187      863.510
10/27/2014  01:55:00     -101.341      -10.980       -8.492       29.221       22.112       15.931      853.854      488.953      253.781        0.603        0.080      101.934       14.040        0.019      333.694        3.176      863.518
10/27/2014  01:56:00     -103.576      -32.743        0.789       24.178       21.647       13.655      584.598      468.583      186.473        0.652        0.062      108.628       13.487        0.015      333.862        3.454      863.512
10/27/2014  01:57:00     -114.161      -47.388        1.200       36.284       20.627       16.616     1316.555      425.454      276.098        0.865        0.101      123.606       20.271        0.027      334.050        3.768      863.496
10/27/2014  01:58:00      -88.103      -48.389        4.573       25.835       21.593       17.770      667.465      466.267      315.781        0.579        0.072      100.517       13.064        0.017      333.935        3.577      863.495
10/27/2014  01:59:00      -91.360      -42.892       -7.771       21.273       15.225       12.473      452.527      231.803      155.564        0.554        0.042      100.927       10.447        0.011      333.992        3.672      863.483
10/27/2014  02:00:00      -89.723      -32.260       -3.747       16.568       19.812       14.728      274.490      392.517      216.902        0.499        0.044       95.346       12.559        0.017      333.972        3.638      863.477
10/27/2014  02:01:00     -110.444      -38.453       -9.194       13.085       16.850       11.564      171.208      283.917      133.717        0.717        0.029      116.947        7.081        0.004      333.945        3.592      863.470
10/27/2014  02:02:00     -102.494      -23.328       -2.720       21.833       16.514       12.908      476.695      272.698      166.608        0.599        0.046      105.115       10.853        0.011      333.907        3.531      863.450
10/27/2014  02:03:00     -112.250      -11.563       -6.930       40.545       20.565       18.463     1643.887      422.922      340.867        0.759        0.120      112.844       18.887        0.028      333.879        3.483      863.441
10/27/2014  02:04:00     -110.173      -17.343       -5.619       28.447       22.054       14.250      809.245      486.392      203.055        0.698        0.075      111.530       13.760        0.015      333.921        3.554      863.429
10/27/2014  02:05:00      -98.308      -16.664       -3.844       26.670       17.534       17.169      711.291      307.441      294.766        0.563        0.066       99.710       12.950        0.017      333.984        3.659      863.414
10/27/2014  02:06:00      -99.000      -20.403       -8.831       20.250       16.887       13.907      410.070      285.181      193.411        0.559        0.044      101.081       11.851        0.014      333.989        3.665      863.407
10/27/2014  02:07:00      -98.677      -22.205      -12.748       18.797       18.282       13.721      353.319      334.215      188.266        0.563        0.044      101.144       11.216        0.012      333.878        3.483      863.418
10/27/2014  02:08:00     -100.581      -23.017       -7.001       22.611       19.494       14.267      511.272      380.008      203.559        0.589        0.055      103.181       11.730        0.013      333.782        3.323      863.434
10/27/2014  02:09:00     -106.320      -13.000       -4.809       30.800       18.247       14.564      948.642      332.943      212.099        0.649        0.075      107.112       14.527        0.018      333.949        3.601      863.434
10/27/2014  02:10:00     -104.721        1.958       -5.416       33.646       21.338       21.734     1132.064      455.327      472.364        0.653        0.103      104.739       20.660        0.039      333.958        3.614      863.445
10/27/2014  02:11:00     -124.330       -2.175      -11.961       22.599       20.976       17.036      510.724      440.005      290.223        0.842        0.062      124.349       12.505        0.010      334.070        3.800      863.459
10/27/2014  02:12:00     -100.867      -12.547       -4.529       27.107       16.868       11.992      734.795      284.529      143.804        0.576        0.058      101.645       12.123        0.014      334.174        3.972      863.452
10/27/2014  02:13:00     -109.831      -24.630       -7.455       22.393       16.167       14.599      501.431      261.383      213.133        0.685        0.049      112.559        9.799        0.008      334.104        3.856      863.454
10/27/2014  02:14:00     -108.847      -40.318       -8.008       28.485       20.030       14.912      811.385      401.220      222.372        0.749        0.072      116.074       14.043        0.015      334.186        3.993      863.459
10/27/2014  02:15:00     -113.860      -29.229       -7.341       20.177       26.818       12.718      407.097      719.224      161.741        0.758        0.064      117.552       12.068        0.011      334.241        4.084      863.458
10/27/2014  02:16:00      -89.269      -40.106       -5.493       34.273       21.869       17.657     1174.665      478.261      311.787        0.579        0.098       97.864       20.415        0.044      334.227        4.061      863.454
10/27/2014  02:17:00      -87.308      -49.847       -6.380       20.994       24.745       14.056      440.755      612.314      197.575        0.570        0.063      100.536        4.837        0.002      334.274        4.138      863.451
10/27/2014  02:18:00     -102.395      -30.169      -11.644       15.773       11.457       11.686      248.790      131.273      136.570        0.602        0.026      106.747        8.502        0.006      334.299        4.179      863.451
10/27/2014  02:19:00      -91.629      -50.472       -6.482       19.963       15.285       13.786      398.530      233.623      190.046        0.590        0.041      104.610       10.912        0.011      334.184        3.989      863.455
10/27/2014  02:20:00      -29.824      -43.759        1.591       37.568       25.204       19.880     1411.367      635.229      395.219        0.262        0.122       52.956       20.347        0.148      334.125        3.892      863.460
10/27/2014  02:21:00      -50.670      -34.112        0.580       33.805       21.724       14.983     1142.792      471.931      224.484        0.278        0.092       61.083       15.536        0.065      334.065        3.793      863.446
10/27/2014  02:22:00      -88.124      -46.690       -4.833       24.603       28.507       11.450      605.287      812.676      131.103        0.576        0.077       99.729        4.223        0.002      334.012        3.703      863.433
10/27/2014  02:23:00      -77.464      -50.195        1.996       35.401       35.028       20.056     1253.237     1226.935      402.239        0.570        0.144       92.305       19.140        0.043      333.969        3.633      863.430
10/27/2014  02:24:00      -70.210      -48.025        1.540       43.932       30.191       19.251     1930.022      911.473      370.583        0.522        0.161       85.064       21.146        0.062      333.973        3.639      863.431
10/27/2014  02:25:00      -41.289      -45.669        8.981       41.140       29.573       21.057     1692.521      874.583      443.391        0.344        0.151       61.567       23.368        0.144      333.887        3.498      863.430
10/27/2014  02:26:00      -79.063      -58.831        3.600       43.538       30.318       23.467     1895.593      919.175      550.720        0.654        0.168       98.550       23.994        0.059      333.873        3.475      863.427
10/27/2014  02:27:00      -85.089      -69.130        2.828       35.221       29.287       21.117     1240.484      857.727      445.937        0.729        0.127      109.632       20.520        0.035      333.866        3.462      863.431
10/27/2014  02:28:00      -96.875      -61.053       -4.157       40.621       22.918       16.744     1650.099      525.230      280.356        0.779        0.123      114.508        9.038        0.006      333.901        3.519      863.430
10/27/2014  02:29:00      -66.773      -39.454        5.741       49.788       27.923       18.486     2478.811      779.715      341.730        0.482        0.180       77.558       21.472        0.077      333.837        3.413      863.434
10/27/2014  02:30:00      -74.853      -35.788       -7.335       15.283       13.450       11.889      233.565      180.907      141.348        0.375        0.028       82.969        8.622        0.011      333.802        3.356      863.431
10/27/2014  02:31:00      -72.857      -31.111       -4.585       17.909       15.505       13.702      320.722      240.402      187.753        0.352        0.037       79.221        9.336        0.014      333.827        3.398      863.423
10/27/2014  02:32:00     -107.406      -19.101      -21.267       17.948       14.511       13.136      322.134      210.568      172.562        0.653        0.035      109.092       12.073        0.012      333.732        3.238      863.421
10/27/2014  02:33:00     -100.175      -19.643      -10.523       29.450       22.342       17.979      867.279      499.147      323.256        0.611        0.084      102.083       16.139        0.025      333.732        3.239      863.427
10/27/2014  02:34:00     -116.315      -19.160       -6.468       26.847       21.175       19.060      720.787      448.386      363.299        0.774        0.077      117.883       14.691        0.016      333.712        3.206      863.443
10/27/2014  02:35:00     -115.044      -22.752        1.041       30.187       19.837       18.364      911.266      393.507      337.227        0.770        0.082      117.272       16.804        0.021      333.569        2.969      863.454
10/27/2014  02:36:00     -110.640      -32.183       -0.216       25.771       23.194       15.940      664.133      537.982      254.099        0.737        0.073      115.226       14.370        0.016      333.591        3.005      863.466
10/27/2014  02:37:00     -108.032      -51.141       -4.758       24.600       20.022       15.149      605.155      400.891      229.486        0.777        0.062      119.526       14.210        0.014      333.593        3.010      863.484
10/27/2014  02:38:00     -101.706      -52.050       -0.355       27.343       27.308       18.462      747.647      745.730      340.836        0.744        0.092      114.251       19.266        0.028      333.599        3.018      863.482
10/27/2014  02:39:00      -83.381      -56.199       -2.455       36.497       20.709       18.249     1332.009      428.851      333.044        0.610        0.105      100.552       13.227        0.017      333.633        3.077      863.479
10/27/2014  02:40:00      -72.390      -46.788       -0.468       35.340       25.480       17.128     1248.908      649.243      293.381        0.481        0.110       86.194       13.013        0.023      333.645        3.095      863.486
10/27/2014  02:41:00      -91.012      -54.654       -3.438       25.697       16.885       16.362      660.350      285.110      267.705        0.625        0.061      106.162       11.792        0.012      333.593        3.009      863.489
10/27/2014  02:42:00      -92.935      -53.366       -4.635       28.159       20.533       14.205      792.919      421.585      201.794        0.646        0.071      107.167       10.608        0.010      333.619        3.052      863.497
10/27/2014  02:43:00      -80.603      -48.683       -6.141       31.050       20.014       19.958      964.077      400.546      398.336        0.533        0.088       94.164       16.961        0.032      333.667        3.131      863.508
10/27/2014  02:44:00      -71.770      -51.293        3.287       33.376       25.347       19.442     1113.956      642.490      378.003        0.496        0.107       88.215       16.829        0.036      333.649        3.102      863.503
10/27/2014  02:45:00      -51.009      -52.027        8.774       40.201       34.387       22.577     1616.129     1182.479      509.733        0.435        0.165       72.861       25.636        0.124      333.639        3.086      863.496
10/27/2014  02:46:00      -90.897      -67.899       -2.201       36.826       38.803       19.651     1356.156     1505.634      386.144        0.806        0.162      113.458       14.180        0.016      333.737        3.247      863.482
10/27/2014  02:47:00     -100.006      -92.025      -10.345       37.653       31.735       18.370     1417.750     1007.081      337.467        1.067        0.138      135.904       16.930        0.016      333.788        3.333      863.483
10/27/2014  02:48:00      -80.773      -84.014      -11.897       29.819       25.418       18.759      889.161      646.099      351.885        0.781        0.094      116.545        8.044        0.005      333.802        3.356      863.487
10/27/2014  02:49:00      -94.831      -59.876      -11.207       30.143       39.815       24.406      908.579     1585.249      595.674        0.790        0.154      112.152       19.531        0.030      333.771        3.304      863.489
10/27/2014  02:50:00      -58.863      -24.281        3.940       43.437       29.953       24.959     1886.757      897.166      622.954        0.374        0.170       63.674       20.664        0.105      333.701        3.188      863.495
10/27/2014  02:51:00      -17.258      -32.266        0.461       25.177       29.144       16.959      633.857      849.372      287.622        0.155        0.089       36.591       14.260        0.152      333.706        3.196      863.514
10/27/2014  02:52:00      -35.433      -19.696        6.792       39.367       25.762       20.139     1549.737      663.685      405.573        0.215        0.131       40.539       20.587        0.258      333.655        3.111      863.520
10/27/2014  02:53:00     -113.778      -62.168        3.593       46.804       37.830       29.098     2190.636     1431.076      846.672        1.064        0.223      129.655       28.008        0.047      333.638        3.084      863.527
10/27/2014  02:54:00     -104.777     -103.194       -2.372       51.058       38.485       30.592     2606.959     1481.133      935.872        1.333        0.251      147.062       25.707        0.031      333.656        3.114      863.527
10/27/2014  02:55:00     -115.735     -117.775       -4.957       42.972       40.860       27.063     1846.635     1669.552      732.382        1.577        0.212      165.122       22.066        0.018      333.598        3.017      863.534
10/27/2014  02:56:00      -85.360      -68.191        8.569       55.054       36.221       27.332     3030.928     1311.942      747.062        0.855        0.254      109.253       28.643        0.069      333.640        3.088      863.536
10/27/2014  02:57:00      -65.661      -43.431        2.502       47.936       32.927       20.951     2297.893     1084.207      438.938        0.501        0.191       78.724       23.882        0.092      333.666        3.130      863.535
10/27/2014  02:58:00      -69.799      -38.722       -2.177       43.860       27.256       20.103     1923.710      742.892      404.144        0.472        0.154       79.820       26.948        0.114      333.694        3.176      863.529
10/27/2014  02:59:00      -88.141      -12.637       -5.167       19.130       19.754       13.103      365.972      390.217      171.694        0.444        0.046       89.042        7.750        0.008      333.560        2.954      863.524
10/27/2014  03:00:00      -66.755       -8.031       -3.404       32.989       19.556       20.298     1088.282      382.439      412.021        0.321        0.094       67.236       19.604        0.085      333.360        2.623      863.537
10/27/2014  03:01:00      -96.301       -7.119       -5.392       28.365       22.189       19.477      804.580      492.364      379.339        0.551        0.084       96.563       16.496        0.029      333.313        2.546      863.542
10/27/2014  03:02:00      -94.130      -11.166       -0.910       27.793       21.603       13.391      772.444      466.680      179.325        0.520        0.071       94.790       11.728        0.015      333.304        2.529      863.538
10/27/2014  03:03:00      -77.234      -31.577       -2.294       35.250       24.753       17.302     1242.535      612.715      299.358        0.456        0.108       83.440       19.553        0.055      333.402        2.693      863.526
10/27/2014  03:04:00     -111.244      -49.510       -3.362       23.940       22.359       14.861      573.121      499.911      220.854        0.807        0.065      121.764        6.898        0.003      333.460        2.788      863.527
10/27/2014  03:05:00     -137.759      -69.747       -3.754       22.655       17.920       14.128      513.262      321.126      199.588        1.244        0.052      154.409        8.689        0.003      333.398        2.686      863.527
10/27/2014  03:06:00     -123.592      -74.700       -6.090       33.015       28.869       19.135     1089.984      833.391      366.163        1.159        0.114      144.413       12.404        0.007      333.389        2.672      863.522
10/27/2014  03:07:00     -116.228      -63.635       -0.129       48.205       26.343       20.978     2323.731      693.971      440.068        1.051        0.173      132.508       16.971        0.016      333.390        2.673      863.512
10/27/2014  03:08:00      -73.364      -37.943        7.786       52.839       29.656       23.838     2791.991      879.495      568.246        0.556        0.212       82.595       20.690        0.063      333.378        2.653      863.504
10/27/2014  03:09:00     -118.936      -56.570       -3.884       28.031       37.624       16.370      785.713     1415.567      267.967        0.991        0.123      131.704       14.747        0.013      333.266        2.468      863.488
10/27/2014  03:10:00     -112.767      -39.509        4.517       31.053       27.322       20.257      964.300      746.495      410.361        0.821        0.106      119.488       17.696        0.022      333.291        2.508      863.481
10/27/2014  03:11:00     -129.850      -25.615      -12.598       39.435       29.839       21.370     1555.158      890.379      456.694        1.029        0.145      132.352       20.691        0.024      333.197        2.353      863.481
10/27/2014  03:12:00     -107.675      -26.709       -2.959       44.032       34.658       21.014     1938.833     1201.183      441.576        0.795        0.179      110.938       23.371        0.044      333.148        2.274      863.470
10/27/2014  03:13:00     -126.729      -18.375       -7.805       48.355       29.673       20.988     2338.248      880.468      440.496        1.006        0.183      128.054       23.645        0.034      333.109        2.208      863.458
10/27/2014  03:14:00     -106.090      -16.021       -1.589       44.891       24.338       22.231     2015.162      592.337      494.205        0.731        0.155      107.293       22.818        0.045      333.125        2.235      863.451
10/27/2014  03:15:00      -74.115      -19.863        0.446       34.624       24.848       16.178     1198.826      617.435      261.740        0.398        0.104       76.731       13.922        0.033      333.182        2.329      863.449
10/27/2014  03:16:00     -107.305        3.614      -10.110       32.252       16.301       13.042     1040.160      265.737      170.083        0.655        0.074      107.366       14.091        0.017      333.128        2.240      863.445
10/27/2014  03:17:00     -117.918       -9.495      -13.940       23.096       19.773       15.654      533.408      390.988      245.036        0.768        0.058      118.300       13.412        0.013      333.158        2.291      863.436
10/27/2014  03:18:00     -132.383      -12.425      -14.399       31.369       21.093       15.706      984.030      444.925      246.681        0.978        0.084      132.965       16.013        0.015      333.159        2.291      863.424
10/27/2014  03:19:00     -117.622        8.073       -5.686       35.280       21.744       22.464     1244.677      472.794      504.620        0.808        0.111      117.899       20.827        0.031      333.146        2.268      863.414
10/27/2014  03:20:00      -81.206      -26.029       -9.120       34.064       20.616       16.151     1160.377      425.023      260.868        0.460        0.092       85.275       16.805        0.039      333.148        2.273      863.394
10/27/2014  03:21:00      -88.597      -39.967       -8.251       27.098       22.569       16.793      734.302      509.379      282.011        0.552        0.076       97.194       16.125        0.028      333.274        2.481      863.367
10/27/2014  03:22:00     -113.101      -26.773       -5.398       34.874       26.289       16.130     1216.201      691.107      260.180        0.785        0.108      116.226       15.575        0.018      333.287        2.503      863.346
10/27/2014  03:23:00      -80.395      -36.809       -2.502       34.833       22.345       19.707     1213.355      499.295      388.352        0.496        0.105       88.421       19.295        0.048      333.243        2.430      863.341
10/27/2014  03:24:00      -61.442      -21.476       -6.211       35.018       19.186       11.889     1226.293      368.099      141.342        0.300        0.087       65.087       10.847        0.028      333.312        2.544      863.352
10/27/2014  03:25:00      -51.035      -35.260       -5.552       27.628       17.218       11.698      763.304      296.453      136.848        0.254        0.060       62.031       13.673        0.049      333.341        2.591      863.350
10/27/2014  03:26:00      -68.416      -35.760      -13.490       13.673       17.654       11.608      186.937      311.653      134.755        0.339        0.032       77.198        3.054        0.002      333.359        2.622      863.348
10/27/2014  03:27:00      -86.946      -11.983      -20.502       12.215       15.038        9.033      149.194      226.132       81.599        0.429        0.023       87.768        6.794        0.006      333.348        2.604      863.359
10/27/2014  03:28:00      -82.849      -21.239      -17.297       12.031        9.227        7.670      144.738       85.142       58.829        0.395        0.014       85.528        4.277        0.003      333.328        2.570      863.355
10/27/2014  03:29:00      -92.442      -26.004      -16.419        9.458       14.616       11.497       89.451      213.617      132.177        0.496        0.022       96.030        4.975        0.003      333.298        2.522      863.336
10/27/2014  03:30:00     -124.012      -28.960      -17.822       13.264       16.572       11.874      175.931      274.620      140.982        0.856        0.030      127.348        3.857        0.001      333.229        2.406      863.317
10/27/2014  03:31:00     -114.656      -35.937      -14.267       16.585       17.492        8.680      275.072      305.960       75.339        0.765        0.033      120.157        5.232        0.002      333.122        2.231      863.308
10/27/2014  03:32:00      -79.035      -50.347      -11.963       17.827       19.349       14.583      317.798      374.373      212.656        0.491        0.045       93.709       12.270        0.017      333.110        2.210      863.299
10/27/2014  03:33:00      -85.165      -55.304      -19.025       19.969       14.861       13.154      398.769      220.858      173.024        0.573        0.040      101.546        4.120        0.002      333.135        2.251      863.290
10/27/2014  03:34:00      -95.868      -37.094      -10.019       19.088       27.651       15.774      364.362      764.565      248.825        0.602        0.069      102.794        9.495        0.009      333.104        2.201      863.296
10/27/2014  03:35:00      -51.037      -39.298       -5.835       25.445       22.077       18.590      647.459      487.413      345.580        0.283        0.074       64.414       16.899        0.069      333.163        2.297      863.305
10/27/2014  03:36:00      -34.748      -45.673        5.592       23.375       17.917       15.093      546.397      321.006      227.790        0.221        0.055       57.388       11.703        0.042      333.206        2.370      863.327
10/27/2014  03:37:00      -36.172      -41.393       -5.438       34.550       20.980       16.779     1193.715      440.179      281.547        0.248        0.096       54.970       16.839        0.094      333.162        2.296      863.339
10/27/2014  03:38:00      -72.059      -66.378       -2.717       41.992       16.149       21.918     1763.355      260.790      480.414        0.605        0.125       97.972       19.783        0.041      333.171        2.310      863.332
10/27/2014  03:39:00      -79.252      -47.635       -6.930       20.924       15.434       12.661      437.814      238.219      160.301        0.472        0.042       92.466        5.605        0.004      333.223        2.397      863.333
10/27/2014  03:40:00      -31.764      -29.454        7.186       42.267       20.982       17.766     1786.491      440.247      315.618        0.223        0.127       43.318       20.236        0.218      333.248        2.437      863.344
10/27/2014  03:41:00      -91.953      -50.046       -0.036       35.014       26.756       19.033     1225.982      715.862      362.269        0.663        0.115      104.690       20.494        0.038      333.273        2.480      863.351
10/27/2014  03:42:00     -108.933      -64.196       -7.075       23.868       16.805       15.010      569.685      282.398      225.303        0.856        0.054      126.442        8.056        0.004      333.270        2.475      863.353
10/27/2014  03:43:00     -112.359      -61.439       -5.574       23.316       21.111       13.248      543.620      445.670      175.521        0.880        0.058      128.060       11.613        0.008      333.238        2.422      863.355
10/27/2014  03:44:00     -109.961      -63.423       -5.637       29.237       21.485       17.457      854.831      461.600      304.755        0.888        0.081      126.940       14.838        0.014      333.239        2.422      863.357
10/27/2014  03:45:00      -93.143      -62.285       -4.792       28.410       23.561       20.136      807.113      555.126      405.464        0.717        0.088      112.049       16.849        0.023      333.149        2.274      863.357
10/27/2014  03:46:00      -88.440      -60.314       -0.968       16.942       20.005       14.031      287.026      400.207      196.878        0.617        0.044      107.049       11.110        0.011      333.173        2.313      863.356
10/27/2014  03:47:00      -79.854      -49.108       -0.348       28.617       18.934       17.554      818.929      358.500      308.153        0.514        0.074       93.746       13.071        0.019      333.168        2.305      863.364
10/27/2014  03:48:00      -85.199      -40.767       -5.709       33.654       15.206       13.746     1132.561      231.217      188.945        0.525        0.078       94.450       16.993        0.032      333.137        2.254      863.379
10/27/2014  03:49:00      -83.558      -39.834       -6.204       19.895       21.537       12.774      395.825      463.822      163.168        0.481        0.051       92.567        6.871        0.006      333.156        2.288      863.404
10/27/2014  03:50:00      -99.679      -15.902       -5.973       15.674       15.611       10.780      245.661      243.715      116.208        0.541        0.030      100.940        6.727        0.004      333.121        2.228      863.413
10/27/2014  03:51:00     -100.020      -29.425       -6.402       11.310       12.220        9.238      127.913      149.341       85.343        0.564        0.018      104.258        7.547        0.005      333.082        2.164      863.410
10/27/2014  03:52:00      -72.479      -46.095       -6.546       24.475       13.784       12.083      599.043      189.993      145.987        0.418        0.047       85.895       10.731        0.016      333.158        2.288      863.407
10/27/2014  03:53:00      -61.877      -25.380       -7.507       17.714       20.863       14.831      313.789      435.270      219.966        0.275        0.048       66.879        9.524        0.020      333.157        2.288      863.392
10/27/2014  03:54:00      -51.122      -20.316       -0.323       17.535       18.380       12.067      307.463      337.812      145.600        0.191        0.040       55.011        6.254        0.013      333.167        2.304      863.378
10/27/2014  03:55:00      -58.368      -32.985      -10.434       17.969       15.776       13.381      322.890      248.882      179.050        0.268        0.038       67.043       11.410        0.029      333.127        2.238      863.377
10/27/2014  03:56:00      -37.557      -29.159       -8.614       22.802       20.426       12.140      519.914      417.229      147.371        0.171        0.054       47.548       10.777        0.051      333.142        2.264      863.387
10/27/2014  03:57:00      -63.500      -35.989       -6.381       16.111       19.545       13.867      259.558      382.000      192.305        0.310        0.042       72.990        4.918        0.005      333.188        2.337      863.381
10/27/2014  03:58:00      -76.860       -5.005       -9.698       13.822       16.289       11.820      191.052      265.335      139.705        0.331        0.030       77.023        7.649        0.010      333.159        2.290      863.375
10/27/2014  03:59:00      -80.018      -37.599       -8.413       15.970       20.873       15.033      255.049      435.663      225.987        0.440        0.046       88.411        9.202        0.011      333.094        2.185      863.375
10/27/2014  04:00:00      -71.486      -59.858       -7.287       19.561       17.231       16.157      382.622      296.921      261.059        0.484        0.047       93.237       12.916        0.019      333.091        2.179      863.388
10/27/2014  04:01:00      -78.993      -41.385      -13.861       24.975       21.681       20.090      623.770      470.050      403.620        0.482        0.075       89.177       17.136        0.037      333.131        2.244      863.410
10/27/2014  04:02:00      -90.309      -37.604      -14.640       17.678       15.135       10.097      312.519      229.065      101.944        0.521        0.032       97.825        6.769        0.005      333.135        2.251      863.416
10/27/2014  04:03:00      -88.466      -37.784       -6.370       11.679       10.349        9.916      136.410      107.101       98.319        0.482        0.017       96.197        6.314        0.004      333.145        2.268      863.432
10/27/2014  04:04:00      -96.332      -33.429      -12.517       20.282       26.106       14.354      411.367      681.519      206.043        0.593        0.065      101.967        8.415        0.007      333.266        2.468      863.443
10/27/2014  04:05:00     -111.455      -45.788      -20.635       23.488       21.068       12.768      551.708      443.880      163.022        0.805        0.058      120.494        8.673        0.005      333.308        2.538      863.459
10/27/2014  04:06:00      -45.917      -32.256       -8.119       45.804       33.071       18.145     2097.983     1093.714      329.241        0.337        0.176       56.115        9.072        0.026      333.251        2.443      863.459
10/27/2014  04:07:00      -63.576      -49.619       -1.312       30.537       22.071       16.947      932.503      487.108      287.207        0.411        0.085       80.647       10.253        0.016      333.165        2.300      863.460
10/27/2014  04:08:00      -42.168      -36.817        1.935       23.708       14.238       14.688      562.076      202.708      215.747        0.206        0.049       55.979       14.529        0.067      333.152        2.279      863.448
10/27/2014  04:09:00      -57.903      -31.611       -1.502       12.448       13.193        9.230      154.944      174.056       85.198        0.238        0.021       65.970        5.135        0.006      333.170        2.308      863.426
10/27/2014  04:10:00      -66.899      -25.908      -10.900       11.455       12.977        8.996      131.223      168.392       80.931        0.282        0.019       71.740        6.959        0.009      333.262        2.460      863.401
10/27/2014  04:11:00      -63.036      -42.747       -3.887       23.264       22.429       17.226      541.204      503.077      296.734        0.358        0.067       76.163       11.397        0.022      333.199        2.357      863.382
10/27/2014  04:12:00      -50.205      -51.465       -0.105       34.123       28.281       17.227     1164.380      799.822      296.777        0.371        0.113       71.897       17.878        0.062      333.113        2.215      863.365
10/27/2014  04:13:00      -79.091      -58.282       -6.327       29.969       22.418       17.417      898.149      502.574      303.369        0.570        0.085       98.245       17.147        0.030      333.099        2.191      863.354
10/27/2014  04:14:00      -53.996      -62.481       -6.037       30.865       21.695       12.761      952.672      470.652      162.853        0.422        0.079       82.580        7.664        0.009      333.162        2.295      863.349
10/27/2014  04:15:00      -59.489      -63.567       -0.666       35.019       27.419       18.310     1226.320      751.784      335.246        0.495        0.116       87.062       18.551        0.045      333.124        2.233      863.338
10/27/2014  04:16:00      -84.437      -82.211       -8.219       22.993       24.955       20.030      528.687      622.751      401.205        0.775        0.078      117.848       14.488        0.015      333.164        2.299      863.339
10/27/2014  04:17:00      -73.228      -75.759       -5.586       23.895       36.385       19.984      570.954     1323.872      399.366        0.671        0.115      105.365       11.555        0.012      333.144        2.266      863.336
10/27/2014  04:18:00      -45.391      -32.097       -1.564       44.525       34.963       19.231     1982.494     1222.445      369.834        0.333        0.179       55.593       24.076        0.188      333.112        2.213      863.333
10/27/2014  04:19:00      -95.967      -92.169       -3.480       27.991       25.069       24.048      783.469      628.435      578.322        0.985        0.100      133.059       16.374        0.015      333.088        2.175      863.336
10/27/2014  04:20:00      -62.280      -63.987       -0.793       29.460       35.840       20.638      867.864     1284.498      425.916        0.528        0.129       89.292       20.804        0.054      333.131        2.246      863.343
10/27/2014  04:21:00      -78.851      -39.454        1.993       31.649       18.523       14.983     1001.635      343.097      224.489        0.467        0.078       88.171       11.618        0.017      333.150        2.275      863.358
10/27/2014  04:22:00     -103.205      -42.297       -2.706       19.276       17.767       12.809      371.582      315.676      164.073        0.665        0.043      111.536        8.730        0.006      333.089        2.177      863.363
10/27/2014  04:23:00      -44.367      -27.639        7.787       41.926       22.723       17.922     1757.755      516.322      321.215        0.269        0.130       52.272       20.671        0.156      333.077        2.156      863.370
10/27/2014  04:24:00      -75.996      -38.033       -5.534       29.175       22.753       12.307      851.154      517.695      151.466        0.439        0.076       84.981        5.721        0.005      333.127        2.237      863.372
10/27/2014  04:25:00      -68.926      -14.915       -4.442       24.901       22.802       14.117      620.057      519.947      199.278        0.317        0.067       70.521       13.272        0.035      333.032        2.081      863.383
10/27/2014  04:26:00      -93.480      -27.752       -7.129       24.231       18.072       14.451      587.158      326.595      208.823        0.534        0.056       97.512       13.404        0.019      332.995        2.021      863.394
10/27/2014  04:27:00      -92.808      -21.688       -0.194       18.851       18.222       12.395      355.345      332.052      153.626        0.496        0.042       95.309        9.958        0.011      332.975        1.987      863.393
10/27/2014  04:28:00     -103.352      -14.010       -3.178       33.461       22.653       18.181     1119.605      513.163      330.546        0.643        0.098      104.297       18.645        0.032      332.917        1.893      863.384
10/27/2014  04:29:00     -121.999      -33.694       -5.213       32.752       22.470       21.641     1072.726      504.895      468.343        0.905        0.102      126.566       20.734        0.027      332.866        1.807      863.386
10/27/2014  04:30:00     -127.495      -41.685       -1.789       32.080       27.745       18.712     1029.156      769.786      350.129        1.007        0.107      134.136       15.919        0.014      332.884        1.837      863.394
10/27/2014  04:31:00     -145.629      -49.296       -2.853       29.556       26.770       15.958      873.529      716.622      254.656        1.275        0.092      153.746       14.173        0.008      332.919        1.895      863.409
10/27/2014  04:32:00     -120.084      -42.561        1.272       27.894       27.311       16.928      778.084      745.877      286.551        0.902        0.091      127.404       16.453        0.017      332.871        1.816      863.431
10/27/2014  04:33:00     -111.185      -33.505       -7.213       26.497       27.063       16.337      702.095      732.425      266.899        0.762        0.085      116.123       14.047        0.015      332.897        1.858      863.446
10/27/2014  04:34:00     -110.901      -28.646       -6.425       28.203       21.698       17.748      795.402      470.814      314.979        0.737        0.079      114.541       16.527        0.021      332.954        1.952      863.459
10/27/2014  04:35:00      -74.402      -29.673       -0.632       21.737       18.123       14.933      472.496      328.439      222.997        0.372        0.051       80.101       14.097        0.031      332.917        1.892      863.463
10/27/2014  04:36:00      -77.386      -29.662       -0.545       23.893       15.306       11.163      570.864      234.284      124.612        0.390        0.046       82.876       10.535        0.016      332.941        1.930      863.462
10/27/2014  04:37:00      -55.907      -30.357        1.221       26.468       16.910       11.106      700.556      285.941      123.334        0.258        0.055       63.617       10.323        0.026      332.986        2.006      863.456
10/27/2014  04:38:00     -104.806      -32.295       -8.619       14.998       13.590       10.489      224.937      184.681      110.015        0.631        0.026      109.669        6.653        0.004      333.013        2.050      863.447
10/27/2014  04:39:00     -116.824      -41.025      -10.413       17.340       13.941       10.271      300.662      194.339      105.496        0.802        0.030      123.818        9.701        0.006      332.997        2.022      863.452
10/27/2014  04:40:00     -103.953      -51.084       -8.719       15.647       15.319       12.273      244.816      234.675      150.638        0.706        0.032      115.826       12.541        0.012      332.958        1.959      863.460
10/27/2014  04:41:00      -99.768      -55.453       -4.834       27.405       21.325       15.653      751.024      454.758      245.016        0.725        0.073      114.144       12.450        0.012      332.938        1.927      863.458
10/27/2014  04:42:00      -95.725      -53.157       -0.307       20.990       22.300       16.380      440.585      497.299      268.321        0.660        0.060      109.494       12.773        0.014      332.891        1.850      863.463
10/27/2014  04:43:00      -90.082      -33.421       -2.695       17.384       22.654       13.216      302.190      513.202      174.664        0.511        0.050       96.082        8.386        0.008      332.911        1.882      863.464
10/27/2014  04:44:00      -85.267      -33.125       -1.392       21.826       23.596       14.799      476.384      556.751      219.013        0.481        0.063       91.475       13.471        0.022      332.899        1.862      863.473
10/27/2014  04:45:00     -102.192      -12.090       -2.662       27.790       24.197       17.025      772.311      585.516      289.842        0.612        0.082      102.905       15.113        0.022      332.798        1.696      863.492
10/27/2014  04:46:00      -77.453      -42.155       -6.305       29.187       24.814       15.264      851.891      615.710      233.002        0.476        0.085       88.182       13.819        0.025      332.764        1.639      863.506
10/27/2014  04:47:00      -47.748      -23.677       -3.317       25.181       19.274       13.705      634.096      371.497      187.837        0.202        0.060       53.296       11.047        0.043      332.805        1.708      863.509
10/27/2014  04:48:00      -21.940       -9.209       -3.804       22.938       13.477       15.405      526.164      181.640      237.326        0.076        0.047       23.794       17.152        0.520      332.767        1.643      863.505
10/27/2014  04:49:00        8.885      -15.822        9.214       24.727       13.503       13.433      611.432      182.340      180.439        0.069        0.049       18.146       12.898        0.505      332.758        1.629      863.492
10/27/2014  04:50:00      -45.642      -11.277        3.315       36.411       15.730       14.204     1325.752      247.420      201.766        0.200        0.089       47.015       18.808        0.160      332.778        1.662      863.472
10/27/2014  04:51:00      -68.126       -9.195       -5.660       18.099       17.555       11.297      327.578      308.188      127.619        0.276        0.038       68.743        4.115        0.004      332.819        1.730      863.466
10/27/2014  04:52:00      -60.339      -40.658       -6.770       15.134       25.981       11.404      229.053      675.012      130.051        0.319        0.052       72.759        5.655        0.006      332.895        1.857      863.473
10/27/2014  04:53:00      -58.056      -12.769       -1.122       18.248       25.515       12.987      332.991      650.992      168.652        0.234        0.058       59.443        8.474        0.020      332.905        1.872      863.479
10/27/2014  04:54:00      -87.924      -18.521      -11.125       18.234       14.184       12.651      332.483      201.191      160.052        0.445        0.035       89.854        9.669        0.012      332.759        1.631      863.494
10/27/2014  04:55:00      -68.439      -16.369       -3.658       19.192       16.970       12.514      368.328      287.985      156.601        0.289        0.041       70.369        9.084        0.017      332.776        1.659      863.515
10/27/2014  04:56:00      -88.941      -34.230      -16.665       19.021       18.092       15.245      361.807      327.318      232.400        0.514        0.046       95.300       14.541        0.023      332.769        1.648      863.531
10/27/2014  04:57:00     -114.170      -41.680      -13.686       18.241       18.960       12.144      332.731      359.481      147.476        0.790        0.042      121.540        7.515        0.004      332.714        1.556      863.540
10/27/2014  04:58:00     -104.637      -34.789      -15.066       19.961       15.833       13.864      398.439      250.694      192.217        0.661        0.042      110.268        6.800        0.004      332.684        1.506      863.545
10/27/2014  04:59:00      -77.759      -54.858      -10.102       23.149       20.315       17.095      535.881      412.703      292.223        0.520        0.062       95.163       15.034        0.025      332.719        1.565      863.556
10/27/2014  05:00:00      -88.768      -49.828      -11.631       28.441       26.815       17.987      808.867      719.042      323.524        0.617        0.093      101.797       16.296        0.026      332.678        1.497      863.560
10/27/2014  05:01:00      -80.315      -37.436       -7.092       18.809       15.963       13.652      353.763      254.832      186.385        0.435        0.040       88.611        8.223        0.009      332.682        1.503      863.565
10/27/2014  05:02:00      -72.096      -27.357       -4.070       12.706       12.502        7.328      161.435      156.305       53.707        0.317        0.019       77.112        6.051        0.006      332.751        1.617      863.563
10/27/2014  05:03:00      -60.111      -19.834       -1.526       19.199       15.416       10.152      368.614      237.652      103.071        0.236        0.035       63.299        7.177        0.013      332.723        1.571      863.563
10/27/2014  05:04:00      -81.112      -31.050       -5.953       17.179       20.936       10.699      295.118      438.325      114.478        0.421        0.042       86.852        7.233        0.007      332.801        1.701      863.569
10/27/2014  05:05:00      -90.472      -32.474      -11.210       12.664       11.988       12.328      160.367      143.706      151.971        0.491        0.023       96.123        2.245        0.001      332.889        1.847      863.577
10/27/2014  05:06:00      -76.686      -36.190      -13.349       13.466       15.416       11.472      181.331      237.664      131.602        0.396        0.028       84.797        6.734        0.006      332.915        1.889      863.587
10/27/2014  05:07:00      -84.974      -50.563      -13.372       11.860       14.400       12.869      140.649      207.355      165.603        0.523        0.026       98.880        6.000        0.004      332.931        1.915      863.602
10/27/2014  05:08:00      -85.546      -27.532       -6.719       23.879       21.487       13.844      570.226      461.689      191.667        0.467        0.061       89.867       10.006        0.012      332.937        1.923      863.623
10/27/2014  05:09:00      -98.635      -45.770       -3.647       19.472       24.954       17.278      379.153      622.694      298.527        0.657        0.065      108.737       11.617        0.011      332.830        1.749      863.646
10/27/2014  05:10:00      -81.321      -49.821        4.312       40.441       22.432       20.482     1635.465      503.199      419.526        0.584        0.128       95.369       19.967        0.044      332.892        1.850      863.649
10/27/2014  05:11:00      -62.460      -34.779        0.423       29.875       17.536       15.034      892.495      307.508      226.013        0.327        0.071       71.490       17.762        0.062      332.918        1.892      863.659
10/27/2014  05:12:00      -10.432      -27.454       15.575       26.756       16.162       13.682      715.857      261.211      187.210        0.113        0.058       29.370       12.958        0.195      332.957        1.957      863.665
10/27/2014  05:13:00      -19.214      -29.650       11.782       23.881       20.896       15.713      570.285      436.630      246.897        0.132        0.063       35.332        8.789        0.062      332.951        1.948      863.684
10/27/2014  05:14:00      -29.327      -32.082        6.916       33.972       29.433       17.092     1154.125      866.277      292.129        0.212        0.116       43.466       16.599        0.146      332.867        1.811      863.693
10/27/2014  05:15:00     -101.266     -102.052       -6.143       26.203       41.568       20.052      686.579     1727.875      402.076        1.176        0.141      143.769       17.416        0.015      332.789        1.681      863.696
10/27/2014  05:16:00     -113.454      -69.576       -2.407       49.064       36.223       26.813     2407.230     1312.133      718.941        1.108        0.222      133.089       25.688        0.037      332.768        1.645      863.702
10/27/2014  05:17:00     -132.186      -58.833       -1.043       44.047       36.495       24.570     1940.119     1331.875      603.662        1.240        0.194      144.687       20.424        0.020      332.726        1.576      863.712
10/27/2014  05:18:00      -81.731      -57.673        0.519       44.745       30.488       24.264     2002.136      929.500      588.743        0.676        0.176      100.031       21.895        0.048      332.715        1.559      863.709
10/27/2014  05:19:00      -81.132      -53.505        7.195       53.895       32.126       25.102     2904.683     1032.088      630.112        0.703        0.228       97.186       29.814        0.094      332.778        1.663      863.703
10/27/2014  05:20:00      -66.008      -49.359        4.625       42.864       30.321       20.910     1837.328      919.361      437.209        0.500        0.160       82.422       17.084        0.043      332.733        1.587      863.714
10/27/2014  05:21:00      -96.752      -49.323      -10.240       31.502       26.256       18.571      992.375      689.361      344.889        0.696        0.101      108.599       15.301        0.020      332.744        1.608      863.717
10/27/2014  05:22:00      -84.948      -63.400       -6.819       29.779       15.165       11.264      886.797      229.981      126.872        0.626        0.062      105.999        8.955        0.007      332.778        1.662      863.709
10/27/2014  05:23:00      -51.571      -48.920       -4.252       24.771       17.104       13.516      613.596      292.561      182.689        0.308        0.054       71.082        9.869        0.019      332.803        1.705      863.703
10/27/2014  05:24:00      -62.659      -13.293       -6.363       19.616       17.513       14.267      384.806      306.708      203.558        0.252        0.045       64.054       12.960        0.041      332.734        1.589      863.692
10/27/2014  05:25:00      -63.762      -32.777       -4.170       19.361       15.471       10.684      374.848      239.351      114.158        0.294        0.036       71.693        9.893        0.019      332.816        1.726      863.689
10/27/2014  05:26:00      -77.467      -45.964       -7.761       23.139       20.507       14.086      535.390      420.517      198.413        0.466        0.058       90.077        9.976        0.012      332.845        1.773      863.685
10/27/2014  05:27:00      -98.670      -40.132       -9.261       16.819       23.131       13.020      282.868      535.062      169.512        0.621        0.049      106.519        5.307        0.002      332.767        1.645      863.680
10/27/2014  05:28:00      -90.314      -36.647       -6.723       24.235       24.508       13.868      587.322      600.662      192.334        0.546        0.069       97.466       13.004        0.018      332.771        1.652      863.669
10/27/2014  05:29:00      -56.676      -16.758        0.849       25.668       20.036       12.043      658.860      401.445      145.041        0.235        0.060       59.102       12.604        0.045      332.739        1.598      863.655
10/27/2014  05:30:00      -91.005       -2.001       -6.557       21.437       18.023       12.790      459.528      324.824      163.574        0.464        0.047       91.027       12.005        0.017      332.670        1.485      863.649
10/27/2014  05:31:00     -107.585       -5.299      -16.086       13.631       11.149        8.667      185.798      124.294       75.120        0.612        0.019      107.716        3.317        0.001      332.667        1.477      863.636
10/27/2014  05:32:00      -98.270      -10.644      -13.518       16.824       12.532       13.209      283.057      157.060      174.486        0.528        0.031       98.845        9.981        0.010      332.692        1.520      863.628
10/27/2014  05:33:00      -95.215      -28.576      -10.106       15.321       11.319       10.538      234.737      128.118      111.054        0.523        0.024       99.410        5.442        0.003      332.753        1.621      863.607
10/27/2014  05:34:00      -84.653      -33.123       -8.261       14.805       14.944       12.715      219.183      223.328      161.667        0.447        0.030       90.902        7.229        0.006      332.810        1.716      863.586
10/27/2014  05:35:00      -81.114      -47.055       -1.953       31.578       19.862       18.517      997.159      394.503      342.890        0.527        0.087       93.774       17.235        0.034      332.753        1.621      863.572
10/27/2014  05:36:00      -46.041      -26.440        7.605       36.937       20.596       14.984     1364.376      424.192      224.526        0.244        0.101       53.093       16.506        0.097      332.730        1.582      863.558
10/27/2014  05:37:00      -84.632      -33.892       -4.294       24.838       16.078       14.519      616.948      258.504      210.802        0.471        0.054       91.166       13.023        0.020      332.756        1.626      863.554
10/27/2014  05:38:00      -68.523      -22.537        0.608       22.251       20.334       13.847      495.102      413.486      191.732        0.315        0.055       72.134       11.587        0.026      332.739        1.597      863.576
10/27/2014  05:39:00      -59.693      -20.160       -1.371       21.907       20.646       11.055      479.928      426.240      122.208        0.250        0.051       63.006       11.676        0.034      332.704        1.541      863.599
10/27/2014  05:40:00     -100.713        1.336       -6.746       20.278       12.067       17.293      411.190      145.617      299.059        0.552        0.043      100.722       14.184        0.020      332.644        1.441      863.616
10/27/2014  05:41:00     -105.180       -2.477      -10.967       23.669       14.141       12.794      560.242      199.967      163.697        0.606        0.046      105.210       11.188        0.011      332.667        1.478      863.616
10/27/2014  05:42:00      -94.452       -1.159      -11.119       29.936       13.708       15.100      896.190      187.918      228.025        0.518        0.066       94.459       11.349        0.014      332.695        1.526      863.607
10/27/2014  05:43:00      -66.608      -19.125       -3.875       22.341       23.228       17.753      499.121      539.539      315.172        0.309        0.068       69.299       15.067        0.047      332.681        1.502      863.574
10/27/2014  05:44:00      -88.458      -21.386       -2.396       29.160       21.635       14.287      850.293      468.090      204.114        0.490        0.076       91.007       13.854        0.023      332.612        1.388      863.541
10/27/2014  05:45:00      -83.767      -35.477       -6.398       33.965       16.769       14.175     1153.653      281.199      200.943        0.498        0.082       90.970       16.114        0.031      332.616        1.394      863.505
10/27/2014  05:46:00      -92.353      -38.923      -10.851       24.164       27.587       13.032      583.882      761.025      169.842        0.584        0.076      100.220        6.319        0.004      332.545        1.275      863.483
10/27/2014  05:47:00      -83.936      -16.465       -7.929       26.225       23.144       15.522      687.729      535.648      240.937        0.442        0.073       85.536       13.315        0.024      332.508        1.216      863.485
10/27/2014  05:48:00      -68.728      -32.560       -1.384       25.534       22.079       11.355      651.975      487.480      128.946        0.353        0.063       76.051        7.906        0.011      332.600        1.369      863.491
10/27/2014  05:49:00      -63.354      -22.153        0.161       37.257       18.715       16.633     1388.061      350.258      276.648        0.326        0.101       67.115       15.596        0.054      332.569        1.316      863.511
10/27/2014  05:50:00      -67.831      -26.707       -5.140       17.763       17.409       13.573      315.526      303.067      184.219        0.307        0.040       72.899        8.433        0.013      332.633        1.422      863.539
10/27/2014  05:51:00      -94.399      -52.853       -4.626       19.766       21.907       15.624      390.688      479.920      244.123        0.642        0.056      108.188       10.856        0.010      332.618        1.396      863.558
10/27/2014  05:52:00      -70.111      -36.894        0.887       28.151       21.761       18.700      792.504      473.536      349.698        0.395        0.081       79.225       13.718        0.030      332.604        1.375      863.577
10/27/2014  05:53:00      -78.545      -38.253      -11.897       21.959       14.526       15.724      482.200      211.007      247.240        0.436        0.047       87.365       11.779        0.018      332.656        1.461      863.582
10/27/2014  05:54:00      -82.981      -16.883       -4.318       28.904       14.809       11.083      835.443      219.303      122.828        0.418        0.059       84.681       13.656        0.026      332.728        1.579      863.581
10/27/2014  05:55:00      -36.698      -30.485       -1.682       21.648       15.097       13.278      468.642      227.911      176.309        0.158        0.044       47.708        9.750        0.042      332.777        1.660      863.602
10/27/2014  05:56:00      -33.142      -39.342        4.917       40.200       32.485       20.682     1616.070     1055.289      427.759        0.288        0.155       51.442       18.269        0.126      332.784        1.673      863.621
10/27/2014  05:57:00     -103.453      -51.351       -5.656       27.301       21.376       15.461      745.371      456.915      239.036        0.741        0.072      115.496       13.307        0.013      332.612        1.389      863.634
10/27/2014  05:58:00      -51.187      -65.020        9.609       49.305       28.104       21.611     2430.983      789.860      467.018        0.531        0.184       82.751       20.451        0.061      332.615        1.392      863.647
10/27/2014  05:59:00      -83.593      -66.994       -8.060       36.517       43.796       21.238     1333.473     1918.060      451.041        0.762        0.185      107.126       28.149        0.069      332.582        1.338      863.644
10/27/2014  06:00:00      -45.566      -34.845        8.112       41.946       21.653       19.441     1759.445      468.868      377.951        0.298        0.130       57.362       18.419        0.103      332.591        1.353      863.637
10/27/2014  06:01:00      -72.213      -46.429       -6.972       17.400       20.282       12.288      302.748      411.340      150.986        0.414        0.043       85.851        6.858        0.006      332.539        1.266      863.621
10/27/2014  06:02:00      -35.769      -45.650        1.793       29.622       21.129       17.870      877.446      446.428      319.324        0.250        0.082       57.994       17.537        0.091      332.662        1.471      863.602
10/27/2014  06:03:00      -50.167      -26.135       -6.712       18.320       15.583       13.373      335.625      242.832      178.837        0.200        0.038       56.567        9.580        0.029      332.635        1.425      863.586
10/27/2014  06:04:00      -59.045      -23.314      -13.581        9.181       10.024        8.172       84.294      100.488       66.789        0.223        0.013       63.481        3.159        0.002      332.550        1.285      863.589
10/27/2014  06:05:00      -54.167      -24.189      -11.238       19.001       15.650        9.036      361.055      244.934       81.648        0.217        0.034       59.323        4.371        0.005      332.677        1.496      863.597
10/27/2014  06:06:00      -64.063      -12.013      -12.043       14.323       17.911       10.508      205.160      320.794      110.416        0.251        0.032       65.180        5.821        0.008      332.655        1.457      863.610
10/27/2014  06:07:00      -77.930       -0.426       -8.706       24.154       12.893       11.214      583.403      166.226      125.760        0.351        0.044       77.931       11.232        0.021      332.593        1.357      863.618
10/27/2014  06:08:00      -71.334      -11.230      -10.459       30.177       13.232       11.632      910.672      175.087      135.310        0.327        0.061       72.213       11.271        0.024      332.566        1.312      863.620
10/27/2014  06:09:00      -98.397       -3.097      -14.511        9.370       14.109       11.419       87.799      199.070      130.390        0.516        0.021       98.446        6.385        0.004      332.512        1.222      863.620
10/27/2014  06:10:00     -108.724       -7.384       -9.425       13.975       14.279       12.082      195.294      203.894      145.974        0.625        0.027      108.974        8.468        0.006      332.497        1.197      863.620
10/27/2014  06:11:00     -107.790      -16.111      -17.368       11.092       11.139       10.686      123.034      124.075      114.184        0.627        0.018      108.988        4.192        0.001      332.398        1.035      863.609
10/27/2014  06:12:00      -84.846      -31.673      -14.260       17.694       17.113        9.704      313.065      292.848       94.159        0.455        0.035       90.565        5.999        0.004      332.459        1.134      863.610
10/27/2014  06:13:00      -70.045      -55.549       -5.332       19.199       16.490       14.277      368.583      271.904      203.836        0.443        0.042       89.398        9.616        0.012      332.435        1.095      863.620
10/27/2014  06:14:00      -94.077      -27.455      -11.080       13.439       11.980       12.039      180.603      143.517      144.943        0.510        0.023       98.001        7.512        0.006      332.383        1.010      863.628
10/27/2014  06:15:00      -87.446      -33.028       -7.313       14.821       14.232       10.649      219.675      202.548      113.411        0.466        0.027       93.475        8.273        0.008      332.408        1.050      863.638
10/27/2014  06:16:00      -68.580      -30.047       -4.458       13.861       14.048       11.675      192.122      197.338      136.310        0.308        0.026       74.873        5.057        0.005      332.531        1.253      863.638
10/27/2014  06:17:00      -72.507      -10.385       -4.365       21.970       18.414       12.006      482.701      339.075      144.141        0.317        0.048       73.247       10.171        0.019      332.521        1.238      863.631
10/27/2014  06:18:00      -95.162       -7.526       -9.755       10.038       15.323        8.634      100.767      234.806       74.549        0.481        0.021       95.459        3.657        0.001      332.550        1.286      863.627
10/27/2014  06:19:00      -83.386       -7.684      -14.771       14.000       12.236       10.599      195.992      149.725      112.346        0.384        0.023       83.739        6.893        0.007      332.402        1.041      863.630
10/27/2014  06:20:00      -76.186      -14.586      -11.480       14.611       15.186       10.616      213.494      230.618      112.692        0.335        0.028       77.570        4.433        0.003      332.362        0.974      863.638
10/27/2014  06:21:00      -54.376      -25.588       -6.459       14.332       21.049       10.272      205.407      443.073      105.518        0.220        0.038       60.095        9.368        0.024      332.374        0.994      863.645
10/27/2014  06:22:00      -77.763       -8.217       -8.774       13.426       11.384       10.112      180.253      129.601      102.256        0.330        0.021       78.196        3.937        0.003      332.312        0.893      863.650
10/27/2014  06:23:00      -51.610      -28.693       -9.283       19.666       14.241       11.784      386.750      202.805      138.860        0.215        0.036       59.050        8.310        0.020      332.400        1.036      863.640
10/27/2014  06:24:00      -43.846      -40.141       -5.714       20.158       14.876       11.628      406.355      221.282      135.202        0.216        0.038       59.445       10.163        0.029      332.402        1.040      863.639
10/27/2014  06:25:00      -28.110      -19.851        4.695       28.093       21.715       13.211      789.214      471.531      174.537        0.132        0.072       34.412       12.050        0.123      332.389        1.019      863.640
10/27/2014  06:26:00       -6.060       -5.929        6.266       18.019       13.456       14.725      324.675      181.072      216.816        0.042        0.036        8.478        8.477        1.000      332.376        0.999      863.645
10/27/2014  06:27:00      -27.335      -19.888        7.793       32.987       17.420       15.571     1088.156      303.448      242.460        0.142        0.082       33.804       15.445        0.209      332.317        0.901      863.641
10/27/2014  06:28:00      -72.060      -32.168       -8.872       15.310       20.690       13.060      234.393      428.083      170.556        0.357        0.042       78.914        8.345        0.011      332.348        0.952      863.639
10/27/2014  06:29:00      -56.211      -18.880       -3.298       17.069       28.848       13.421      291.343      832.200      180.134        0.242        0.065       59.297       12.208        0.042      332.330        0.923      863.634
10/27/2014  06:30:00      -67.888       -5.171      -11.045       13.285       13.067        8.963      176.491      170.759       80.340        0.259        0.021       68.084        5.137        0.006      332.391        1.023      863.626
10/27/2014  06:31:00      -51.802       -3.455      -10.688        5.321        6.095        5.711       28.316       37.152       32.619        0.145        0.005       51.917        3.935        0.006      332.374        0.994      863.615
10/27/2014  06:32:00      -57.102      -14.500       -6.020        9.539        6.417        4.557       90.997       41.181       20.765        0.183        0.008       58.914        4.658        0.006      332.467        1.147      863.612
10/27/2014  06:33:00      -77.772      -13.309       -9.047       16.503       12.626       12.848      272.351      159.422      165.059        0.345        0.030       78.903        2.457        0.001      332.303        0.877      863.610
10/27/2014  06:34:00      -65.453       -6.431       -3.375       23.314       14.059       10.350      543.539      197.668      107.127        0.259        0.042       65.768       10.949        0.028      332.198        0.704      863.616
10/27/2014  06:35:00      -74.027      -10.617       -9.342       13.517       13.902        9.201      182.716      193.275       84.656        0.307        0.023       74.785        7.319        0.010      332.245        0.783      863.631
10/27/2014  06:36:00      -65.945       -8.782      -11.479       15.349       13.732       11.562      235.594      188.565      133.670        0.256        0.028       66.527        8.201        0.015      332.288        0.854      863.640
10/27/2014  06:37:00      -74.057      -10.613      -11.219       10.471        9.864        9.523      109.640       97.303       90.686        0.301        0.015       74.813        6.286        0.007      332.331        0.925      863.646
10/27/2014  06:38:00      -74.092       -7.160       -9.334       22.418       12.975       10.806      502.575      168.342      116.778        0.321        0.039       74.437        7.161        0.009      332.322        0.908      863.644
10/27/2014  06:39:00      -83.004      -18.949       -6.214       22.713       16.335       11.047      515.889      266.827      122.028        0.410        0.045       85.139        5.301        0.004      332.338        0.934      863.636
10/27/2014  06:40:00      -63.789      -34.962      -21.806       38.496       15.303       15.201     1481.964      234.188      231.064        0.386        0.097       72.742       17.525        0.058      332.409        1.054      863.627
10/27/2014  06:41:00      -37.696      -49.431       -1.912       29.750       18.637       16.596      885.071      347.322      275.441        0.269        0.075       62.165       13.595        0.048      332.454        1.128      863.605
10/27/2014  06:42:00      -87.468      -50.685      -12.296       19.087       16.423       11.155      364.330      269.728      124.424        0.556        0.038      101.092        8.767        0.008      332.427        1.082      863.589
10/27/2014  06:43:00      -63.818      -48.108      -10.687       25.744       16.357       17.282      662.774      267.563      298.651        0.386        0.061       79.920       11.382        0.020      332.436        1.097      863.577
10/27/2014  06:44:00      -78.337      -49.433       -9.221       28.528       14.376       11.695      813.822      206.665      136.766        0.491        0.058       92.630        9.053        0.010      332.442        1.107      863.574
10/27/2014  06:45:00      -23.500      -19.855       14.176       41.711       22.814       22.723     1739.834      520.469      516.334        0.196        0.139       30.765       24.314        0.625      332.424        1.080      863.571
10/27/2014  06:46:00      -77.699      -75.122       -9.809       30.311       29.932       18.505      918.775      895.903      342.436        0.697        0.108      108.076       21.775        0.041      332.445        1.111      863.565
10/27/2014  06:47:00      -77.898      -31.674       -4.794       22.523       17.350       11.479      507.282      301.013      131.769        0.402        0.047       84.092        5.886        0.005      332.442        1.107      863.552
10/27/2014  06:48:00      -64.726      -28.750        3.054       25.350       10.148       13.770      642.647      102.982      189.625        0.298        0.047       70.824       14.520        0.042      332.358        0.968      863.543
10/27/2014  06:49:00      -43.193      -25.816        7.321       24.314       15.331       14.077      591.179      235.053      198.156        0.180        0.051       50.320       14.196        0.080      332.412        1.058      863.542
10/27/2014  06:50:00      -42.128      -23.779       -1.271       33.152       15.235       15.991     1099.081      232.117      255.707        0.196        0.079       48.376       15.792        0.107      332.534        1.259      863.547
10/27/2014  06:51:00      -73.502      -41.197        2.447       32.522       20.842       18.380     1057.674      434.403      337.822        0.447        0.091       84.260       13.298        0.025      332.429        1.085      863.561
10/27/2014  06:52:00      -51.823      -37.822        3.302       29.276       21.449       18.461      857.089      460.047      340.818        0.289        0.083       64.157       17.293        0.073      332.404        1.044      863.575
10/27/2014  06:53:00      -63.580      -29.631       -3.153       24.158       24.384       18.220      583.632      594.567      331.969        0.322        0.076       70.146       13.067        0.035      332.405        1.045      863.573
10/27/2014  06:54:00      -71.149      -17.863       -3.463       23.998       13.835       16.572      575.888      191.414      274.635        0.322        0.052       73.357       11.810        0.026      332.337        0.933      863.564
10/27/2014  06:55:00      -66.909      -22.677       -0.225       21.264       18.890       12.808      452.178      356.820      164.044        0.298        0.049       70.648       10.030        0.020      332.334        0.929      863.549
10/27/2014  06:56:00      -87.109      -38.043       -7.355       27.767       19.110       15.093      771.027      365.207      227.794        0.523        0.068       95.053       15.710        0.027      332.344        0.944      863.540
10/27/2014  06:57:00      -26.355      -26.649        8.081       37.537       18.019       16.406     1409.001      324.667      269.150        0.174        0.100       37.480       21.487        0.329      332.356        0.963      863.536
10/27/2014  06:58:00      -44.329      -46.029        3.390       32.120       21.808       17.640     1031.711      475.587      311.156        0.296        0.091       63.904       16.539        0.067      332.383        1.009      863.537
10/27/2014  06:59:00      -74.186      -69.758       -0.044       43.064       41.417       17.354     1854.505     1715.387      301.155        0.712        0.194      101.832       19.615        0.037      332.381        1.007      863.542
10/27/2014  07:00:00      -55.023      -71.743        2.521       29.398       38.491       21.674      864.233     1481.520      469.762        0.550        0.141       90.413       11.966        0.018      332.416        1.065      863.539
10/27/2014  07:01:00      -64.027      -60.821        0.077       25.198       28.629       18.607      634.938      819.617      346.208        0.480        0.090       88.310       15.185        0.030      332.405        1.048      863.534
10/27/2014  07:02:00      -82.821      -91.438       -7.433       28.011       21.839       15.971      784.628      476.952      255.069        0.840        0.076      123.370       15.982        0.017      332.409        1.051      863.525
10/27/2014  07:03:00      -65.357      -66.875        5.060       45.245       35.338       24.641     2047.142     1248.767      607.158        0.634        0.195       93.508       24.190        0.067      332.466        1.145      863.518
10/27/2014  07:04:00     -103.945      -85.440       -5.333       30.697       33.620       16.962      942.334     1130.318      287.718        1.025        0.118      134.553       12.439        0.009      332.354        0.961      863.522
10/27/2014  07:05:00      -99.423      -82.002      -15.766       37.270       29.932       21.400     1389.019      895.927      457.957        0.980        0.137      128.877       16.410        0.016      332.379        1.005      863.507
10/27/2014  07:06:00     -101.241      -85.566       -6.320       27.671       30.381       20.263      765.706      922.988      410.593        0.985        0.105      132.556       14.147        0.011      332.393        1.028      863.471
10/27/2014  07:07:00      -67.342      -88.986        4.193       32.348       30.996       20.783     1046.368      960.776      431.953        0.745        0.122      111.595       17.252        0.024      332.441        1.105      863.432
10/27/2014  07:08:00      -86.610     -105.972       -8.308       34.346       33.878       23.745     1179.643     1147.710      563.825        1.085        0.145      136.863       24.182        0.031      332.382        1.008      863.400
10/27/2014  07:09:00      -86.283      -94.320       -1.685       28.247       24.150       20.345      797.883      583.207      413.930        0.907        0.090      127.832       16.741        0.017      332.362        0.975      863.387
10/27/2014  07:10:00      -84.863      -60.185       -2.236       24.964       24.225       15.300      623.199      586.861      234.100        0.614        0.072      104.039       14.706        0.020      332.457        1.131      863.385
10/27/2014  07:11:00      -87.838      -33.975      -10.287       28.918       27.475       15.785      836.254      754.881      249.169        0.541        0.092       94.180       12.007        0.016      332.457        1.131      863.393
10/27/2014  07:12:00      -81.085       -7.732       -0.478       27.205       17.596       14.501      740.135      309.611      210.284        0.395        0.063       81.452       14.803        0.033      332.305        0.882      863.401
10/27/2014  07:13:00      -97.547       -3.452       -4.942       29.077       16.914       19.918      845.444      286.075      396.723        0.554        0.076       97.608       17.917        0.034      332.204        0.716      863.402
10/27/2014  07:14:00      -82.533        2.298        1.469       34.578       18.650       20.524     1195.651      347.832      421.228        0.439        0.098       82.565       21.669        0.069      332.097        0.540      863.407
10/27/2014  07:15:00      -99.683      -11.176       -4.237       25.066       20.711       14.610      628.316      428.947      213.464        0.567        0.064      100.308       13.324        0.018      332.184        0.683      863.408
10/27/2014  07:16:00      -97.472       -9.204       -3.840       30.790       19.062       16.831      948.033      363.355      283.274        0.560        0.080       97.906       17.753        0.033      332.122        0.581      863.409
10/27/2014  07:17:00     -111.514      -11.712       -2.215       41.535       29.218       25.494     1725.180      853.717      649.966        0.790        0.161      112.127       24.445        0.048      332.105        0.553      863.403
10/27/2014  07:18:00     -115.931      -24.702        0.916       37.836       32.012       23.214     1431.575     1024.760      538.876        0.852        0.150      118.534       18.723        0.025      332.192        0.697      863.391
10/27/2014  07:19:00     -129.067      -28.960        0.938       29.911       28.848       19.334      894.639      832.223      373.800        0.980        0.105      132.276       16.878        0.016      332.208        0.723      863.370
10/27/2014  07:20:00     -105.293      -41.732       -2.711       38.815       31.481       19.655     1506.620      991.072      386.334        0.786        0.144      113.261       19.804        0.031      332.232        0.762      863.354
10/27/2014  07:21:00     -111.830      -30.076      -11.038       34.776       25.302       18.778     1209.404      640.181      352.623        0.787        0.110      115.804       16.157        0.019      332.265        0.815      863.335
10/27/2014  07:22:00     -102.475      -23.960      -11.003       30.233       28.587       17.286      914.053      817.244      298.791        0.661        0.102      105.239       13.218        0.016      332.140        0.612      863.318
10/27/2014  07:23:00     -115.944      -24.510       -7.631       24.661       21.057       17.501      608.171      443.391      306.276        0.773        0.068      118.507       13.741        0.013      332.203        0.713      863.317
10/27/2014  07:24:00     -121.188      -35.236       -2.411       33.020       23.365       18.948     1090.308      545.907      359.028        0.896        0.100      126.207       18.791        0.022      332.167        0.654      863.322
10/27/2014  07:25:00     -109.736      -35.055       -3.873       40.021       35.439       21.766     1601.710     1255.947      473.776        0.831        0.167      115.200       20.125        0.031      332.161        0.645      863.329
10/27/2014  07:26:00     -105.673      -25.311       -6.338       30.857       29.938       22.979      952.155      896.263      528.034        0.711        0.119      108.662       20.063        0.034      332.170        0.660      863.343
10/27/2014  07:27:00     -153.346       -6.064      -12.298       29.884       24.102       18.851      893.069      580.919      355.342        1.277        0.091      153.466       14.681        0.009      332.053        0.465      863.350
10/27/2014  07:28:00     -123.554        6.835      -13.108       44.564       21.998       20.550     1985.981      483.930      422.304        0.919        0.145      123.743       19.728        0.025      332.044        0.451      863.342
10/27/2014  07:29:00     -110.597        8.868       -5.060       45.393       32.516       18.221     2060.567     1057.320      332.018        0.789        0.172      110.952       20.178        0.033      332.089        0.525      863.334
10/27/2014  07:30:00     -148.720       26.699      -10.137       28.759       23.961       14.712      827.066      574.122      216.434        1.228        0.081      151.097       14.053        0.009      332.240        0.775      863.313
10/27/2014  07:31:00     -122.955       19.625       -9.835       15.215       19.742       11.999      231.493      389.734      143.966        0.818        0.038      124.512        5.984        0.002      332.364        0.979      863.298
10/27/2014  07:32:00      -97.709       -9.080       -9.948       34.068       22.362       14.038     1160.595      500.070      197.068        0.579        0.093       98.130        9.880        0.010      332.378        1.002      863.276
10/27/2014  07:33:00      -97.639      -29.799       -5.340       35.245       33.207       17.490     1242.244     1102.694      305.894        0.655        0.133      102.085       16.185        0.025      332.396        1.031      863.272
10/27/2014  07:34:00      -66.785      -23.864        5.525       34.457       30.840       19.430     1187.284      951.111      377.520        0.379        0.126       70.921       17.873        0.064      332.417        1.066      863.272
10/27/2014  07:35:00     -116.377      -13.249       -9.483       35.301       27.929       17.449     1246.152      780.005      304.456        0.807        0.117      117.129       16.061        0.019      332.385        1.013      863.275
10/27/2014  07:36:00     -103.000        1.459       -7.593       36.119       26.331       20.449     1304.611      693.332      418.151        0.654        0.121      103.010       21.018        0.042      332.312        0.892      863.282
10/27/2014  07:37:00      -98.481       -1.039       -7.766       34.774       22.359       19.282     1209.236      499.933      371.796        0.592        0.104       98.487       17.470        0.031      332.249        0.790      863.282
10/27/2014  07:38:00      -92.745       -5.898       -2.759       38.858       33.684       27.832     1509.947     1134.593      774.629        0.603        0.171       92.932       25.289        0.074      332.233        0.764      863.270
10/27/2014  07:39:00      -83.519       -6.692       -4.372       40.180       26.567       22.358     1614.452      705.821      499.870        0.493        0.141       83.786       18.573        0.049      332.250        0.790      863.274
10/27/2014  07:40:00      -38.428      -22.369        2.492       33.551       27.643       23.759     1125.663      764.152      564.467        0.222        0.123       44.465       18.956        0.182      332.280        0.840      863.278
10/27/2014  07:41:00      -17.256      -18.528        1.341       26.288       18.486       16.852      691.060      341.735      283.997        0.098        0.066       25.319       17.516        0.479      332.385        1.013      863.276
10/27/2014  07:42:00      -91.238      -23.901       -8.252       34.114       15.346       11.500     1163.758      235.495      132.257        0.525        0.077       94.317       15.715        0.028      332.345        0.947      863.281
10/27/2014  07:43:00      -84.356      -27.642       -9.390       17.303       19.827       10.223      299.401      393.104      104.506        0.438        0.040       88.770        5.779        0.004      332.416        1.064      863.283
10/27/2014  07:44:00      -69.397      -14.775      -10.750       14.010       13.833       14.284      196.290      191.352      204.042        0.287        0.030       70.952        4.226        0.004      332.438        1.102      863.283
10/27/2014  07:45:00      -74.855       -9.243      -15.726       13.718       11.228       10.203      188.196      126.061      104.099        0.318        0.021       75.424        5.002        0.004      332.488        1.184      863.283
10/27/2014  07:46:00      -63.574       -8.531       -6.653       17.901       13.303       13.708      320.454      176.973      187.899        0.242        0.034       64.144       10.449        0.027      332.509        1.218      863.290
10/27/2014  07:47:00      -59.506      -13.700       -7.031       21.126       18.171       17.804      446.319      330.199      316.985        0.244        0.055       61.063       16.060        0.069      332.535        1.259      863.294
10/27/2014  07:48:00      -72.597      -33.446       -8.938       11.343       11.841       12.244      128.669      140.210      149.907        0.344        0.021       79.931        2.415        0.001      332.637        1.428      863.271
10/27/2014  07:49:00      -50.863      -11.454       -0.724       20.678       13.356       11.414      427.590      178.378      130.289        0.173        0.037       52.136        8.836        0.029      332.657        1.463      863.248
10/27/2014  07:50:00      -42.998      -26.383       -8.895       12.750       10.821        7.522      162.568      117.090       56.576        0.148        0.017       50.446        6.241        0.015      332.761        1.634      863.228
10/27/2014  07:51:00      -17.379      -13.041       -0.334        7.411       11.526        7.860       54.925      132.851       61.783        0.036        0.012       21.728        2.753        0.016      332.845        1.773      863.217
10/27/2014  07:52:00      -27.684      -16.436       -9.978        8.099        5.543        5.039       65.598       30.725       25.390        0.063        0.006       32.195        3.025        0.009      332.888        1.846      863.206
10/27/2014  07:53:00      -21.739      -10.237       -0.537        9.841       10.651        5.747       96.843      113.446       33.028        0.041        0.012       24.028        3.490        0.021      332.983        2.000      863.200
10/27/2014  07:54:00      -22.935       -2.140       -1.110       11.654        5.863        7.738      135.813       34.371       59.872        0.038        0.012       23.035        6.720        0.085      333.010        2.046      863.190
10/27/2014  07:55:00       -9.277       -4.338        1.487        8.324        9.296        8.743       69.287       86.410       76.441        0.017        0.012       10.241        3.744        0.134      333.225        2.400      863.194
10/27/2014  07:56:00       -3.690       -7.468       -2.381       17.011        8.753        9.985      289.376       76.621       99.700        0.027        0.023        8.330        6.788        0.664      333.247        2.437      863.197
10/27/2014  07:57:00       -9.848      -17.385       -2.368       11.892       12.467        8.203      141.409      155.430       67.293        0.038        0.018       19.980        6.187        0.096      333.101        2.196      863.218
10/27/2014  07:58:00       -8.438       12.773       19.028        5.599        9.150       14.746       31.353       83.721      217.432        0.046        0.017       15.309        7.345        0.230      333.405        2.700      863.235
10/27/2014  07:59:00       -3.577       13.846       33.821        6.145       11.420        7.128       37.757      130.421       50.808        0.078        0.011       14.301        5.541        0.150      333.531        2.908      863.242
10/27/2014  08:00:00        3.113       18.548       27.554        8.876       13.234        9.099       78.781      175.149       82.800        0.072        0.017       18.807        6.185        0.108      333.439        2.755      863.251
10/27/2014  08:01:00       -3.790        7.842       16.814        5.107        8.304        5.376       26.083       68.954       28.898        0.024        0.006        8.710        1.450        0.028      333.483        2.828      863.273
10/27/2014  08:02:00        4.088        9.511        1.030       12.392        6.707        9.823      153.553       44.988       96.500        0.020        0.015       10.352        2.524        0.059      333.338        2.587      863.293
10/27/2014  08:03:00      -12.299       -5.959        1.180        7.359        6.208        7.109       54.158       38.541       50.537        0.017        0.007       13.667        4.163        0.093      333.264        2.464      863.314
10/27/2014  08:04:00       -7.749       -9.727       -1.807        5.304        7.854        6.962       28.127       61.692       48.468        0.015        0.007       12.437        5.319        0.183      333.184        2.333      863.344
10/27/2014  08:05:00      -19.653       -1.603       -3.458        5.719        3.424        6.708       32.704       11.724       44.997        0.025        0.004       19.718        3.528        0.032      333.110        2.210      863.364
10/27/2014  08:06:00      -11.255        0.282        3.225        7.877        5.451       10.753       62.043       29.716      115.628        0.017        0.010       11.258        7.319        0.423      333.392        2.677      863.383
10/27/2014  08:07:00       -5.273        5.368        1.125        6.626        4.978        7.207       43.899       24.784       51.947        0.009        0.006        7.525        4.567        0.368      333.366        2.633      863.391
10/27/2014  08:08:00      -12.074       -0.591       -7.268       10.190        5.297        6.151      103.829       28.063       37.840        0.018        0.008       12.088        4.772        0.156      333.412        2.710      863.404
10/27/2014  08:09:00      -39.198      -19.343       -2.571       19.162       25.117       13.838      367.183      630.845      191.504        0.155        0.059       43.711        7.876        0.032      333.240        2.425      863.430
10/27/2014  08:10:00      -22.907      -37.711        2.516       24.533       34.071       12.734      601.866     1160.844      162.150        0.194        0.096       44.123       13.761        0.097      333.253        2.446      863.459
10/27/2014  08:11:00      -35.602      -52.572        4.023       32.458       26.094       20.886     1053.528      680.887      436.225        0.311        0.109       63.493       19.795        0.097      333.201        2.360      863.476
10/27/2014  08:12:00      -76.269      -48.203       -4.486       23.866       26.985       16.768      569.584      728.166      281.167        0.487        0.079       90.225       12.865        0.020      333.053        2.117      863.469
10/27/2014  08:13:00      -64.889      -33.159       -2.646       21.628       15.251       14.718      467.758      232.606      216.608        0.312        0.046       72.870        5.997        0.007      333.080        2.162      863.460
10/27/2014  08:14:00      -54.502      -35.587        0.821       32.083       27.378       18.192     1029.338      749.545      330.944        0.317        0.105       65.092       15.856        0.059      333.131        2.245      863.453
10/27/2014  08:15:00        3.993      -22.167       14.301       25.952       21.719       16.069      673.525      471.695      258.219        0.106        0.070       22.524       17.186        0.582      333.317        2.554      863.447
10/27/2014  08:16:00      -52.945      -76.609        1.707       16.693       21.099       17.819      278.665      445.148      317.527        0.486        0.052       93.125       12.441        0.018      333.037        2.091      863.453
10/27/2014  08:17:00      -71.256      -70.197       -8.180       20.721       24.084       17.098      429.353      580.058      292.350        0.569        0.065      100.025       13.134        0.017      332.995        2.021      863.465
10/27/2014  08:18:00      -43.140      -44.787        6.092       41.819       32.088       25.798     1748.850     1029.622      665.563        0.367        0.172       62.185       24.819        0.159      333.089        2.176      863.466
10/27/2014  08:19:00      -58.020      -68.399        0.210       36.139       32.432       21.315     1306.053     1051.839      454.315        0.543        0.141       89.692       17.917        0.040      332.968        1.976      863.481
10/27/2014  08:20:00      -61.040      -58.402       -5.326       39.611       19.138       15.346     1569.016      366.261      235.489        0.467        0.109       84.479       17.213        0.042      333.019        2.061      863.506
10/27/2014  08:21:00      -51.512      -52.981       -4.926       29.758       20.195       21.785      885.533      407.835      474.587        0.363        0.088       73.895       10.713        0.021      333.088        2.175      863.536
10/27/2014  08:22:00      -62.100      -34.009       -8.450       27.051       16.119       20.583      731.783      259.816      423.654        0.325        0.071       70.802       11.876        0.028      333.083        2.166      863.575
10/27/2014  08:23:00      -41.194      -36.910        2.357       21.484       16.891       14.331      461.543      285.302      205.386        0.201        0.048       55.310        9.950        0.032      333.148        2.272      863.608
10/27/2014  08:24:00      -34.181      -38.008        3.959       29.033       13.214       14.511      842.920      174.603      210.583        0.193        0.061       51.118       13.736        0.072      333.233        2.412      863.636
10/27/2014  08:25:00      -51.129      -31.192       -2.993       17.158       15.100        9.077      294.412      228.022       82.393        0.210        0.030       59.893        7.858        0.017      333.245        2.432      863.661
10/27/2014  08:26:00      -81.127      -35.864      -10.205       18.096        9.903        9.257      327.450       98.078       85.693        0.424        0.026       88.701        4.043        0.002      333.273        2.479      863.674
10/27/2014  08:27:00      -62.793      -20.163      -11.055       18.792       12.446       10.003      353.155      154.910      100.055        0.254        0.030       65.951        6.682        0.010      333.336        2.583      863.692
10/27/2014  08:28:00      -53.538      -16.172      -10.376        9.417       12.497       11.671       88.674      156.172      136.218        0.181        0.019       55.927        4.160        0.006      333.398        2.686      863.711
10/27/2014  08:29:00      -22.625      -12.233       -2.894       16.894        7.901       10.439      285.422       62.422      108.982        0.056        0.023       25.720       11.247        0.191      333.528        2.900      863.720
10/27/2014  08:30:00      -30.032      -11.877       -3.514       16.287       15.011       10.890      265.272      225.322      118.589        0.083        0.030       32.295        6.500        0.041      333.606        3.030      863.716
10/27/2014  08:31:00      -17.102      -27.027      -10.057       17.978       16.359        7.806      323.215      267.618       60.936        0.089        0.033       31.983        4.316        0.018      333.607        3.032      863.708
10/27/2014  08:32:00      -21.943       -5.507       -1.866       17.423       16.520       10.153      303.566      272.917      103.083        0.060        0.034       22.623        9.112        0.162      333.675        3.146      863.701
10/27/2014  08:33:00       10.697        8.515       18.904       13.565       12.317       10.069      184.019      151.703      101.375        0.049        0.022       13.672        6.584        0.232      334.088        3.830      863.695
10/27/2014  08:34:00       -2.190       16.869       28.888       10.838       14.018       12.294      117.470      196.509      151.135        0.079        0.023       17.011        9.263        0.297      334.105        3.859      863.699
10/27/2014  08:35:00        1.714        8.726       13.015        9.448        8.204       11.349       89.270       67.304      128.811        0.027        0.014        8.892        7.351        0.683      334.103        3.855      863.708
10/27/2014  08:36:00        3.729       13.541       12.949       12.309       13.045       19.899      151.503      170.165      395.956        0.054        0.036       14.045        9.900        0.497      334.151        3.934      863.735
10/27/2014  08:37:00       10.325       10.109        9.262       16.674       13.772       15.217      278.035      189.655      231.544        0.050        0.035       14.450       11.581        0.642      333.991        3.670      863.759
10/27/2014  08:38:00       35.965       20.075       16.334       23.548       17.844       12.690      554.517      318.397      161.036        0.150        0.052       41.188       11.620        0.080      334.062        3.786      863.775
10/27/2014  08:39:00       17.731       25.501      -11.937       17.337       11.437        9.986      300.556      130.808       99.729        0.082        0.027       31.059        5.087        0.027      333.884        3.492      863.800
10/27/2014  08:40:00       -1.839       23.709       -4.024       24.593       10.562       10.172      604.810      111.549      103.462        0.070        0.041       23.780        7.862        0.109      333.968        3.631      863.818
10/27/2014  08:41:00      -39.510       10.120        0.228       11.158       13.490       11.919      124.507      181.974      142.068        0.106        0.022       40.785        9.572        0.055      333.988        3.664      863.819
10/27/2014  08:42:00      -32.457       -1.402       -1.161       10.531       11.900       11.159      110.898      141.600      124.524        0.072        0.019       32.487        9.122        0.079      334.002        3.689      863.803
10/27/2014  08:43:00      -15.633        1.905        1.153        9.914        6.383       10.093       98.282       40.748      101.872        0.025        0.012       15.748        6.376        0.164      334.156        3.942      863.798
10/27/2014  08:44:00      -13.283       -1.067       -1.340       10.308        6.543        9.875      106.255       42.809       97.512        0.021        0.012       13.326        6.695        0.252      334.179        3.981      863.791
10/27/2014  08:45:00        1.882       22.523       35.587       12.755       22.846       12.626      162.681      521.944      159.407        0.131        0.042       22.602       13.587        0.361      334.516        4.540      863.793
10/27/2014  08:46:00       -1.976       15.762       33.588       11.021       13.538        8.696      121.470      183.265       75.616        0.088        0.019       15.885        7.995        0.253      334.621        4.715      863.808
10/27/2014  08:47:00      -13.957        5.083       27.738       13.274        8.175        8.887      176.202       66.831       78.978        0.066        0.016       14.854        6.858        0.213      334.657        4.775      863.824
10/27/2014  08:48:00       -6.822        0.462       18.433       10.351        7.617       10.289      107.149       58.021      105.866        0.033        0.014        6.838        7.581        1.229      334.712        4.865      863.834
10/27/2014  08:49:00       -2.958       10.280       35.502       13.267       17.444        9.541      176.002      304.281       91.038        0.097        0.029       10.697        5.277        0.243      334.843        5.084      863.851
10/27/2014  08:50:00       54.288       42.101       19.463       29.433       19.458       16.960      866.289      378.611      287.642        0.332        0.077       68.700       15.693        0.052      334.328        4.227      863.866
10/27/2014  08:51:00       17.043       26.383       12.732       37.314       20.690       20.677     1392.298      428.092      427.554        0.170        0.112       31.409       20.107        0.410      334.471        4.466      863.879
10/27/2014  08:52:00      -42.754      -14.527        5.323       11.543       14.242       14.238      133.250      202.840      202.710        0.130        0.027       45.155        6.818        0.023      334.386        4.326      863.878
10/27/2014  08:53:00      -26.456       -8.297        4.378       15.543       12.866        8.426      241.594      165.544       70.992        0.063        0.024       27.726        5.809        0.044      334.495        4.505      863.877
10/27/2014  08:54:00      -18.594       -0.328       14.826       13.484       29.364       16.378      181.806      862.218      268.252        0.094        0.066       18.597       16.131        0.752      334.720        4.879      863.877
10/27/2014  08:55:00      -48.914      -33.005       -6.745       21.458       18.275       13.634      460.443      333.980      185.890        0.225        0.049       59.007        8.841        0.022      334.419        4.380      863.882
10/27/2014  08:56:00      -15.494        0.318        3.961       24.802       12.713       12.901      615.125      161.632      166.435        0.060        0.047       15.497       13.721        0.784      334.723        4.884      863.894
10/27/2014  08:57:00      -42.512      -13.734       -4.637       15.122       15.945        8.863      228.685      254.241       78.561        0.129        0.028       44.675        8.855        0.039      334.444        4.420      863.914
10/27/2014  08:58:00      -47.719      -17.499       -7.218       12.800       12.357        8.338      163.828      152.697       69.515        0.151        0.019       50.826        5.785        0.013      334.517        4.539      863.944
10/27/2014  08:59:00      -41.598       -0.133       -2.257       12.607       21.198       12.305      158.936      449.351      151.413        0.125        0.038       41.599       10.915        0.069      334.544        4.586      863.955
10/27/2014  09:00:00      -13.293       10.632        7.361       15.431       23.121       21.490      238.111      534.560      461.810        0.079        0.062       17.022       14.579        0.734      334.875        5.135      863.953
10/27/2014  09:01:00      -22.619        1.844       -0.023       19.479       24.333       15.837      379.440      592.105      250.811        0.087        0.061       22.694        8.379        0.136      334.959        5.275      863.938
10/27/2014  09:02:00       24.435      -58.637      -15.367       26.483       32.755       27.574      701.339     1072.890      760.342        0.340        0.127       63.525       16.811        0.070      334.855        5.104      863.916
10/27/2014  09:03:00      -27.993      -17.693        2.168       24.633       24.019       16.999      606.779      576.910      288.951        0.129        0.074       33.116       13.977        0.178      334.739        4.912      863.890
10/27/2014  09:04:00      -15.445       22.032       19.027       18.229       19.041       32.960      332.295      362.571     1086.362        0.143        0.089       26.906       15.159        0.317      335.251        5.762      863.877
10/27/2014  09:05:00        8.594       23.808       50.345       24.446       28.100       14.739      597.591      789.610      217.241        0.239        0.080       25.311       12.219        0.233      335.449        6.090      863.862
10/27/2014  09:06:00       22.651       17.310       30.914       25.300       20.389       18.318      640.101      415.711      335.566        0.158        0.070       28.508       14.149        0.246      335.189        5.659      863.866
10/27/2014  09:07:00       15.980       36.836       39.305       22.775       19.304       12.573      518.678      372.627      158.072        0.210        0.052       40.153        9.740        0.059      334.995        5.336      863.876
10/27/2014  09:08:00      -29.618       -4.625       14.381       24.285       15.582       17.353      589.753      242.813      301.143        0.112        0.057       29.977       16.469        0.302      335.021        5.380      863.897
10/27/2014  09:09:00      -20.506       10.776       10.317       18.971       16.347       16.396      359.907      267.236      268.815        0.077        0.045       23.165       14.048        0.368      335.147        5.590      863.910
10/27/2014  09:10:00       34.601       75.459       23.590       30.949       37.946       27.941      957.846     1439.892      780.711        0.531        0.159       83.014        6.652        0.006      335.084        5.483      863.905
10/27/2014  09:11:00       -4.334       27.075       24.224       66.331       41.669       28.018     4399.832     1736.339      785.026        0.413        0.346       27.420       28.000        1.043      335.223        5.714      863.895
10/27/2014  09:12:00      -51.474      -47.552       -4.381       29.404       26.684       21.390      864.582      712.018      457.531        0.348        0.102       70.077       13.381        0.036      334.987        5.322      863.886
10/27/2014  09:13:00      -49.412      -44.963        5.947       31.008       32.125       18.314      961.513     1032.040      335.385        0.341        0.116       66.807       16.469        0.061      334.967        5.290      863.880
10/27/2014  09:14:00      -79.615      -92.692       -4.491       36.742       51.426       26.656     1349.975     2644.621      710.556        0.983        0.235      122.190       26.080        0.046      334.828        5.059      863.875
10/27/2014  09:15:00      -65.754      -78.654       -6.396       47.621       32.962       22.993     2267.730     1086.521      528.656        0.722        0.194      102.519       22.854        0.050      334.835        5.071      863.865
10/27/2014  09:16:00      -64.199     -112.005       -5.429       50.047       45.019       22.483     2504.745     2026.670      505.476        1.087        0.252      129.100       12.356        0.009      334.746        4.923      863.866
10/27/2014  09:17:00     -110.800     -143.174      -11.612       54.379       38.503       25.451     2957.049     1482.448      647.776        1.900        0.254      181.040       28.557        0.025      334.620        4.710      863.862
10/27/2014  09:18:00     -130.595      -91.330       -5.753       56.298       49.327       28.272     3169.454     2433.183      799.306        1.591        0.320      159.362       15.448        0.009      334.694        4.833      863.857
10/27/2014  09:19:00     -131.912      -81.917       -7.256       62.847       36.298       35.061     3949.723     1317.576     1229.283        1.533        0.325      155.278       35.823        0.053      334.664        4.785      863.863
10/27/2014  09:20:00      -89.822      -55.999        2.614       55.442       39.186       24.966     3073.809     1535.519      623.293        0.822        0.262      105.848       24.313        0.053      334.704        4.852      863.857
10/27/2014  09:21:00     -100.065      -76.339        0.489       34.263       32.841       19.961     1173.986     1078.535      398.428        0.925        0.133      125.860       13.892        0.012      334.708        4.857      863.850
10/27/2014  09:22:00      -87.406      -60.400       -9.134       27.711       28.234       16.517      767.914      797.174      272.795        0.660        0.092      106.245       14.614        0.019      334.694        4.834      863.826
10/27/2014  09:23:00      -79.914      -50.006       -6.678       14.266       23.169       13.720      203.528      536.813      188.225        0.493        0.046       94.271        7.590        0.006      334.727        4.889      863.807
10/27/2014  09:24:00      -52.756      -64.186       -5.619       21.674       20.226       12.167      469.755      409.110      148.047        0.398        0.051       83.085        9.822        0.014      334.734        4.901      863.786
10/27/2014  09:25:00      -52.539      -53.624       -7.302       14.560       14.654       11.121      211.984      214.748      123.683        0.312        0.028       75.072        8.589        0.013      334.739        4.911      863.775
10/27/2014  09:26:00      -50.313      -66.246       -0.697       22.989       21.075       16.658      528.514      444.165      277.493        0.409        0.063       83.186       13.206        0.025      334.843        5.083      863.761
10/27/2014  09:27:00      -70.158      -79.455       -0.925       39.904       34.561       18.383     1592.310     1194.496      337.941        0.718        0.156      105.996       17.633        0.028      334.839        5.077      863.752
10/27/2014  09:28:00      -54.825      -16.787       -0.062       25.285       25.379       19.544      639.328      644.076      381.971        0.248        0.083       57.337       17.290        0.091      334.936        5.238      863.750
10/27/2014  09:29:00      -75.644      -43.844        0.536       18.873       30.786       17.889      356.193      947.754      320.030        0.463        0.081       87.432       18.137        0.043      334.951        5.262      863.745
10/27/2014  09:30:00      -70.975      -48.122       -9.690       38.447       32.049       23.563     1478.210     1027.124      555.213        0.525        0.153       85.751       11.153        0.017      334.920        5.211      863.743
10/27/2014  09:31:00      -89.336      -51.690       -5.640       31.784       28.395       20.429     1010.241      806.250      417.350        0.646        0.112      103.212       17.442        0.029      334.892        5.165      863.745
10/27/2014  09:32:00      -63.031      -45.249        4.616       49.291       35.843       24.595     2429.607     1284.709      604.930        0.518        0.216       77.591       23.160        0.089      335.064        5.450      863.749
10/27/2014  09:33:00      -69.159      -31.019        2.611       29.588       29.918       20.836      875.476      895.060      434.141        0.398        0.110       75.797       18.819        0.062      335.074        5.468      863.751
10/27/2014  09:34:00      -56.090      -48.737        3.563       33.921       23.137       18.372     1150.660      535.302      337.523        0.378        0.101       74.306       10.299        0.019      335.111        5.528      863.754
10/27/2014  09:35:00      -58.998     -136.998       -2.371       27.737       21.042       18.329      769.321      442.754      335.966        1.190        0.077      149.162       17.722        0.014      334.969        5.293      863.758
10/27/2014  09:36:00      -50.145      -82.944        7.284       36.504       60.383       25.372     1332.570     3646.082      643.752        0.753        0.281       96.924       30.666        0.100      335.138        5.573      863.742
10/27/2014  09:37:00      -29.387      -26.437        6.548       23.316       33.347       16.278      543.630     1112.048      264.978        0.176        0.096       39.529       17.771        0.202      335.391        5.994      863.729
10/27/2014  09:38:00      -55.215      -26.415        1.857       18.387       21.885       15.666      338.100      478.939      245.412        0.241        0.053       61.209       10.099        0.027      335.242        5.746      863.722
10/27/2014  09:39:00      -37.210      -44.459       -3.427       28.530       27.818       22.901      813.969      773.846      524.478        0.274        0.106       57.976        6.678        0.013      335.317        5.870      863.714
10/27/2014  09:40:00      -59.042      -39.464      -14.776       18.200       16.925       18.381      331.232      286.462      337.847        0.311        0.048       71.016        8.496        0.014      335.171        5.627      863.705
10/27/2014  09:41:00      -61.361      -35.511        0.915       32.861       20.515       17.243     1079.849      420.866      297.335        0.341        0.090       70.896       14.596        0.042      335.260        5.775      863.698
10/27/2014  09:42:00      -53.331      -43.057       -7.841       11.396       17.406       13.228      129.873      302.956      174.989        0.268        0.030       68.542        9.497        0.019      335.191        5.661      863.691
10/27/2014  09:43:00      -18.364        0.960        3.448       22.918       15.237       14.964      525.231      232.172      223.912        0.067        0.049       18.389        6.251        0.116      335.661        6.445      863.673
10/27/2014  09:44:00      -45.013       -9.493        0.087       30.784       23.284       19.011      947.679      542.147      361.399        0.198        0.093       46.003        9.047        0.039      335.459        6.105      863.659
10/27/2014  09:45:00      -18.400      -12.753        6.562       24.463       20.071       13.864      598.434      402.832      192.208        0.087        0.060       22.387       14.244        0.405      335.560        6.273      863.640
10/27/2014  09:46:00      -54.681      -25.777       -0.333       27.797       19.004       12.681      772.695      361.145      160.799        0.247        0.065       60.452       11.573        0.037      335.535        6.232      863.622
10/27/2014  09:47:00      -44.621      -26.752       -1.613       20.653       21.659       11.773      426.560      469.100      138.613        0.187        0.052       52.026        8.847        0.029      335.406        6.017      863.607
10/27/2014  09:48:00       13.507      -60.060       -4.988       50.180       42.845       34.819     2518.064     1835.669     1212.328        0.469        0.278       61.560       25.661        0.174      335.692        6.495      863.599
10/27/2014  09:49:00       22.007      -73.509        2.564       40.396       57.335       34.493     1631.799     3287.333     1189.750        0.600        0.305       76.733       30.938        0.163      336.036        7.069      863.588
10/27/2014  09:50:00       17.892      -42.986       15.908       32.712       52.039       28.242     1070.051     2708.015      797.599        0.350        0.229       46.561       22.830        0.240      336.169        7.289      863.579
10/27/2014  09:51:00       18.087       52.713       75.366       38.460       61.323       50.630     1479.205     3760.517     2563.396        0.829        0.390       55.729       50.739        0.829      336.293        7.496      863.593
10/27/2014  09:52:00       33.402       60.238       58.734       47.303       59.602       42.489     2237.620     3552.397     1805.274        0.789        0.380       68.880       32.454        0.222      336.098        7.173      863.605
10/27/2014  09:53:00       42.575       30.216       24.799       34.618       42.018       38.292     1198.374     1765.510     1466.287        0.388        0.222       52.207       33.379        0.409      336.050        7.092      863.629
10/27/2014  09:54:00       29.642       24.695       27.573       33.376       52.878       38.670     1113.943     2796.085     1495.381        0.383        0.270       38.581       39.290        1.037      335.878        6.805      863.644
10/27/2014  09:55:00       79.978       93.302       63.952       59.535       39.811       44.363     3544.391     1584.919     1968.109        1.314        0.355      122.889       39.951        0.106      335.918        6.871      863.662
10/27/2014  09:56:00       59.170       78.349       59.767       51.349       31.229       35.021     2636.672      975.242     1226.500        0.902        0.242       98.182       30.047        0.094      335.885        6.817      863.666
10/27/2014  09:57:00       31.789        3.187       51.792       28.178       22.675       24.646      794.008      514.137      607.436        0.281        0.096       31.948       13.449        0.177      336.228        7.390      863.661
10/27/2014  09:58:00       17.082      -14.395       40.626       31.962       50.057       25.893     1021.600     2505.682      670.444        0.317        0.210       22.338       29.320        1.723      336.196        7.335      863.639
10/27/2014  09:59:00       29.111       35.475        9.991       37.710       29.089       26.305     1422.024      846.171      691.934        0.258        0.148       45.891        4.854        0.011      336.163        7.281      863.624
10/27/2014  10:00:00       35.010       28.900       31.621       34.871       47.034       33.161     1215.960     2212.212     1099.627        0.379        0.226       45.397       13.122        0.084      336.346        7.585      863.619
10/27/2014  10:01:00       -2.525       23.913       43.918       27.107       40.091       34.627      734.767     1607.305     1198.999        0.302        0.177       24.046       30.598        1.619      336.599        8.010      863.611
10/27/2014  10:02:00        5.857       44.977       67.105       29.420       32.633       28.144      865.537     1064.943      792.107        0.464        0.136       45.357       26.052        0.330      336.322        7.547      863.614
10/27/2014  10:03:00       26.829       11.323       27.233       30.022       22.218       23.811      901.299      493.633      566.987        0.178        0.098       29.121       15.323        0.277      336.405        7.686      863.608
10/27/2014  10:04:00        5.758       32.089        9.921       29.916       23.556       29.644      894.973      554.874      878.761        0.174        0.116       32.601       18.378        0.318      336.421        7.712      863.608
10/27/2014  10:05:00      -37.434       25.517      -12.975       11.614       14.362       11.459      134.884      206.277      131.319        0.135        0.024       45.303        4.940        0.012      335.852        6.762      863.620
10/27/2014  10:06:00       -5.923       27.096       10.461       28.925       30.354       19.164      836.633      921.352      367.268        0.150        0.106       27.736       11.690        0.178      336.442        7.747      863.630
10/27/2014  10:07:00       47.939       35.947       11.707       42.437       36.610       24.865     1800.899     1340.265      618.249        0.374        0.188       59.919       24.808        0.171      336.098        7.173      863.639
10/27/2014  10:08:00       23.740       42.030       36.445       21.004       26.303       25.702      441.149      691.872      660.579        0.273        0.090       48.271       16.823        0.121      336.490        7.826      863.643
10/27/2014  10:09:00       84.644       67.299       27.807       83.268       45.009       46.710     6933.596     2025.779     2181.789        1.180        0.557      108.137       49.681        0.211      336.408        7.688      863.653
10/27/2014  10:10:00       79.987       79.733       -3.095       51.434       42.326       34.415     2645.460     1791.470     1184.422        0.919        0.281      112.939       27.629        0.060      336.080        7.142      863.659
10/27/2014  10:11:00      104.357       81.599       -0.169       36.063       30.681       24.588     1300.559      941.353      604.580        1.020        0.142      132.472       11.328        0.007      335.819        6.705      863.673
10/27/2014  10:12:00       82.384       72.030       -1.898       26.271       20.087       25.342      690.141      403.471      642.224        0.686        0.087      109.432       14.133        0.017      335.949        6.924      863.682
10/27/2014  10:13:00       59.693       48.274       -4.595       39.283       28.241       25.685     1543.120      797.542      659.720        0.446        0.150       76.770       10.491        0.019      336.047        7.087      863.692
10/27/2014  10:14:00       34.041       32.693       -3.795       40.264       36.520       18.693     1621.213     1333.744      349.432        0.277        0.165       47.198       12.230        0.067      336.338        7.574      863.689
10/27/2014  10:15:00       -2.007        9.009       32.677       30.997       44.986       27.021      960.802     2023.759      730.138        0.243        0.186        9.230       29.011        9.879      336.607        8.023      863.673
10/27/2014  10:16:00       29.437       20.882       46.922       36.150       22.975       24.264     1306.836      527.858      588.740        0.296        0.121       36.091       11.851        0.108      336.556        7.939      863.653
10/27/2014  10:17:00       12.322       -6.656       19.561       19.286       29.931       23.184      371.952      895.890      537.499        0.119        0.090       14.005       20.895        2.226      336.559        7.942      863.637
10/27/2014  10:18:00      -15.775      -11.597       14.064       15.433       14.789       18.569      238.167      218.717      344.824        0.069        0.040       19.579       12.018        0.377      336.537        7.905      863.626
10/27/2014  10:19:00       19.770      -66.911       10.179       26.151       54.667       28.231      683.877     2988.527      796.999        0.472        0.223       69.771       30.480        0.191      336.432        7.730      863.620
10/27/2014  10:20:00       11.389      -11.170       18.419       23.295       46.090       33.919      542.659     2124.264     1150.512        0.220        0.191       15.952       32.927        4.261      336.516        7.871      863.607
10/27/2014  10:21:00      -16.847      -19.140        9.165       34.624       30.703       23.748     1198.848      942.689      563.955        0.172        0.135       25.499       21.073        0.683      336.520        7.879      863.592
10/27/2014  10:22:00      -24.079       -1.910       14.327       37.865       19.216       21.563     1433.755      369.239      464.947        0.153        0.113       24.154       18.614        0.594      336.631        8.063      863.597
10/27/2014  10:23:00       28.619       15.830       33.063       30.293       40.562       35.273      917.646     1645.271     1244.199        0.298        0.190       32.705       26.943        0.679      336.785        8.321      863.614
10/27/2014  10:24:00      -13.352      -31.714       -9.738       27.148       15.895       16.533      737.026      252.641      273.348        0.127        0.063       34.410       16.347        0.226      336.133        7.230      863.635
10/27/2014  10:25:00      -38.019      -16.190       -0.287       29.864       19.329       26.129      891.833      373.626      682.726        0.183        0.097       41.323       19.233        0.217      336.245        7.417      863.638
10/27/2014  10:26:00        1.839      -20.630        3.402       17.394       16.929       14.317      302.557      286.589      204.988        0.062        0.040       20.712        8.076        0.152      336.480        7.809      863.633
10/27/2014  10:27:00        6.654      -12.643       19.914       26.093       47.007       31.648      680.857     2209.668     1001.625        0.225        0.195       14.287       34.882        5.961      336.993        8.668      863.626
10/27/2014  10:28:00        9.489        5.307       42.592       38.710       47.920       26.247     1498.495     2296.360      688.883        0.321        0.224       10.872       28.678        6.957      337.060        8.780      863.638
10/27/2014  10:29:00      113.864       97.793       23.958       56.730       51.639       47.553     3218.337     2666.563     2261.272        1.562        0.407      150.095       16.983        0.013      336.631        8.062      863.644
10/27/2014  10:30:00       98.820       87.844      -11.510       39.320       42.544       30.383     1546.049     1809.959      923.108        1.095        0.214      132.220       25.758        0.038      336.316        7.535      863.659
10/27/2014  10:31:00        2.320       19.403        8.049       15.724       28.326       22.452      247.242      802.341      504.099        0.100        0.078       19.541       17.446        0.797      336.983        8.652      863.680
10/27/2014  10:32:00       39.247       37.874       47.702       41.799       39.617       26.084     1747.172     1569.519      680.386        0.462        0.200       54.541       17.393        0.102      336.986        8.657      863.692
10/27/2014  10:33:00       16.000       -3.653       11.078       21.440       20.377       34.058      459.682      415.214     1159.972        0.121        0.102       16.411       20.118        1.503      336.858        8.442      863.706
10/27/2014  10:34:00      -14.041      -13.041      -20.429       16.763       15.498       12.456      280.993      240.201      155.144        0.073        0.034       19.163       13.059        0.464      336.534        7.899      863.715
10/27/2014  10:35:00       -9.630      -26.473       -7.104       16.368       24.097       19.913      267.906      580.647      396.523        0.104        0.062       28.171       11.619        0.170      336.565        7.952      863.714
10/27/2014  10:36:00        5.607       26.961       19.644       20.645       20.514       15.108      426.225      420.816      228.250        0.111        0.054       27.538       10.402        0.143      337.362        9.284      863.713
10/27/2014  10:37:00       -1.680       42.709       16.311       30.511       26.996       30.352      930.891      728.803      921.257        0.234        0.129       42.742       18.479        0.187      337.253        9.103      863.700
10/27/2014  10:38:00       85.370       53.759       13.530       61.834       46.192       30.984     3823.461     2133.700      959.992        0.864        0.346      100.886       20.767        0.042      337.051        8.766      863.679
10/27/2014  10:39:00       50.645       85.313       61.739       62.930       35.344       40.460     3960.172     1249.176     1637.008        1.025        0.342       99.213       37.243        0.141      337.009        8.695      863.647
10/27/2014  10:40:00      -11.818       73.112      107.638       38.929       50.911       36.583     1515.434     2591.966     1338.346        1.126        0.272       74.061       30.503        0.170      337.188        8.994      863.626
10/27/2014  10:41:00      110.942       94.885       58.975       83.086       51.947       70.616     6903.274     2698.492     4986.572        1.969        0.729      145.984       64.589        0.196      336.630        8.061      863.602
10/27/2014  10:42:00      100.952       49.156        9.505       44.862       39.425       41.067     2012.589     1554.299     1686.537        0.897        0.263      112.284       26.642        0.056      336.607        8.023      863.580
10/27/2014  10:43:00       20.279        7.889        9.590       33.242       40.745       25.369     1105.062     1660.122      643.595        0.199        0.170       21.759       25.649        1.389      337.163        8.951      863.547
10/27/2014  10:44:00       55.356       52.161       35.141       34.226       25.601       23.825     1171.451      655.389      567.645        0.471        0.120       76.059       12.854        0.029      337.155        8.938      863.509
10/27/2014  10:45:00       87.691       49.329       10.661       25.342       24.045       29.283      642.207      578.164      857.504        0.616        0.104      100.613       16.525        0.027      336.915        8.537      863.481
10/27/2014  10:46:00       50.223       37.030       24.238       35.634       31.091       27.072     1269.765      966.670      732.907        0.372        0.148       62.398       17.592        0.079      337.294        9.170      863.464
10/27/2014  10:47:00        9.852       46.186        6.167       52.897       40.380       25.047     2798.070     1630.548      627.371        0.366        0.253       47.225       16.170        0.117      337.315        9.206      863.463
10/27/2014  10:48:00       24.720       11.756       26.979       41.026       32.370       24.984     1683.119     1047.849      624.202        0.242        0.168       27.373       24.444        0.797      337.520        9.550      863.480
10/27/2014  10:49:00       33.962      -80.469       -2.772       58.189       46.875       34.270     3385.910     2197.306     1174.400        0.720        0.338       87.342       23.358        0.072      336.961        8.616      863.492
10/27/2014  10:50:00      -11.130      -92.866      -23.564       70.007       45.737       26.750     4900.932     2091.836      715.566        0.850        0.385       93.530       30.490        0.106      337.102        8.848      863.488
10/27/2014  10:51:00       39.375      -89.223       -6.528       49.990       55.377       41.939     2498.963     3066.642     1758.851        0.844        0.366       97.525       28.489        0.085      337.262        9.117      863.492
10/27/2014  10:52:00       82.537      -85.248      -11.570       32.663       38.291       22.637     1066.869     1466.180      512.439        0.863        0.152      118.657       14.733        0.015      336.769        8.293      863.483
10/27/2014  10:53:00       51.381      -92.193      -19.569       43.281       30.731       27.601     1873.262      944.406      761.834        0.755        0.179      105.544       15.508        0.022      336.890        8.495      863.474
10/27/2014  10:54:00       38.278     -111.791      -23.213       37.527       44.191       28.881     1408.302     1952.806      834.112        0.935        0.210      118.163       22.123        0.035      337.051        8.764      863.459
10/27/2014  10:55:00       31.164      -35.481        2.793       22.222       42.953       26.876      493.836     1844.968      722.325        0.265        0.153       47.224       26.678        0.319      336.901        8.514      863.456
10/27/2014  10:56:00        2.888       28.680       29.044       19.996       26.958       19.434      399.824      726.738      377.687        0.159        0.075       28.825       14.086        0.239      337.447        9.427      863.442
10/27/2014  10:57:00       -4.521       23.987       11.449       11.690       15.221       18.841      136.655      231.689      354.972        0.072        0.036       24.410       11.549        0.224      337.383        9.320      863.429
10/27/2014  10:58:00        3.843       11.636       26.096       17.900       10.568       12.632      320.420      111.691      159.567        0.071        0.030       12.254        4.720        0.148      337.728        9.897      863.420
10/27/2014  10:59:00       10.824       14.371       26.691       37.736       23.873       28.266     1423.984      569.905      798.964        0.191        0.140       17.992       20.898        1.349      337.733        9.907      863.407
10/27/2014  11:00:00       49.733       41.759       32.618       48.602       45.006       35.114     2362.109     2025.504     1232.994        0.545        0.281       64.940       24.660        0.144      337.445        9.425      863.396
10/27/2014  11:01:00       44.737       72.703       -2.211       38.796       30.628       31.066     1505.150      938.063      965.076        0.535        0.170       85.364       18.659        0.048      337.135        8.906      863.389
10/27/2014  11:02:00       77.725       64.373        4.201       41.929       39.248       34.473     1758.038     1540.421     1188.359        0.734        0.224      100.921       12.304        0.015      337.259        9.112      863.387
10/27/2014  11:03:00      120.943       87.000       -1.316       53.732       39.550       37.736     2887.178     1564.216     1424.032        1.404        0.294      148.984       24.765        0.028      337.459        9.447      863.385
10/27/2014  11:04:00      126.823       72.880        0.786       44.279       34.651       33.093     1960.631     1200.661     1095.125        1.283        0.213      146.272       11.215        0.006      337.014        8.702      863.383
10/27/2014  11:05:00       65.503       69.089       -1.609       40.512       35.162       28.451     1641.201     1236.389      809.461        0.638        0.184       95.205       18.707        0.039      336.957        8.606      863.388
10/27/2014  11:06:00       48.222       27.771      -10.042       27.513       32.008       16.641      756.942     1024.537      276.928        0.263        0.103       55.647       13.155        0.056      336.953        8.601      863.382
10/27/2014  11:07:00       36.681       34.772       21.089       19.841       19.084       19.106      393.678      364.209      365.052        0.206        0.056       50.543       10.996        0.047      337.240        9.080      863.373
10/27/2014  11:08:00       30.846      -80.874       18.566       39.179      108.380       46.033     1535.014    11746.229     2118.998        1.162        0.770       86.557       29.897        0.119      337.552        9.603      863.359
10/27/2014  11:09:00       92.393      -71.590        1.454       59.980       61.333       46.188     3597.597     3761.743     2133.293        1.158        0.475      116.883       46.314        0.157      337.510        9.534      863.356
10/27/2014  11:10:00       13.472      -45.258       16.033       48.111       68.341       48.431     2314.697     4670.537     2345.579        0.591        0.467       47.220       50.752        1.155      337.663        9.791      863.353
10/27/2014  11:11:00      -19.351        8.067       28.948       36.686       23.681       21.971     1345.863      560.813      482.722        0.183        0.119       20.965       26.455        1.592      337.931       10.239      863.338
10/27/2014  11:12:00      -10.065      -15.234       14.533       29.918       37.857       25.871      895.062     1433.179      669.292        0.177        0.150       18.258       25.226        1.909      338.121       10.558      863.329
10/27/2014  11:13:00       -0.780       45.814       46.815       37.931       35.742       30.263     1438.730     1277.465      915.873        0.396        0.182       45.821       20.037        0.191      338.118       10.552      863.316
10/27/2014  11:14:00      111.639       55.731       41.487       52.420       67.154       43.115     2747.891     4509.604     1858.870        1.320        0.456      124.776       27.144        0.047      337.617        9.712      863.320
10/27/2014  11:15:00       51.516       55.745       83.663       78.932       88.732       57.621     6230.186     7873.401     3320.159        1.509        0.871       75.904       61.292        0.652      337.721        9.886      863.308
10/27/2014  11:16:00       76.257       53.229       20.037       49.221       43.851       41.855     2422.712     1922.915     1751.839        0.757        0.305       92.997       26.806        0.083      337.451        9.434      863.323
10/27/2014  11:17:00        6.781       20.672       64.897       31.380       66.025       46.136      984.710     4359.257     2128.490        0.608        0.374       21.756       46.974        4.662      338.013       10.377      863.307
10/27/2014  11:18:00       30.782      -62.551        6.634       32.104       44.349       27.662     1030.656     1966.842      765.198        0.433        0.188       69.715       21.533        0.095      337.766        9.962      863.313
10/27/2014  11:19:00       13.787      -85.695       -3.163       28.242       36.137       29.211      797.597     1305.888      853.300        0.525        0.148       86.796       20.348        0.055      337.817       10.050      863.310
10/27/2014  11:20:00      -38.626      -33.007       14.063       31.106       38.196       32.771      967.590     1458.918     1073.967        0.314        0.175       50.807       26.971        0.282      337.892       10.173      863.317
10/27/2014  11:21:00       39.288       31.011       12.078       42.095       39.379       25.170     1772.005     1550.713      633.509        0.330        0.198       50.053       18.389        0.135      337.706        9.861      863.302
10/27/2014  11:22:00       41.151       48.695       17.010       34.972       27.582       35.410     1223.041      760.747     1253.874        0.380        0.162       63.754       13.907        0.048      337.577        9.644      863.290
10/27/2014  11:23:00       34.640       40.810       39.054       44.766       32.179       37.587     2003.973     1035.493     1412.788        0.442        0.223       53.529       20.000        0.140      337.916       10.214      863.265
10/27/2014  11:24:00       74.087       54.329       29.827       57.828       41.135       40.181     3344.038     1692.072     1614.483        0.799        0.333       91.872       34.208        0.139      338.048       10.434      863.245
10/27/2014  11:25:00      159.877       94.472       39.721       59.920       56.885       54.588     3590.388     3235.885     2979.861        2.293        0.490      185.703       19.340        0.011      337.621        9.717      863.225
10/27/2014  11:26:00       91.849       14.106       19.787       77.732       66.401       57.406     6042.196     4409.048     3295.404        1.138        0.687       92.926       45.297        0.238      337.544        9.589      863.199
10/27/2014  11:27:00      118.632       97.076       15.608       59.644       50.252       41.461     3557.373     2525.304     1718.995        1.577        0.390      153.288       26.504        0.030      337.573        9.639      863.186
10/27/2014  11:28:00      180.945       89.026       22.009       83.200       54.506       48.171     6922.262     2970.929     2320.409        2.668        0.611      201.661       37.713        0.035      337.724        9.890      863.152
10/27/2014  11:29:00       90.464       88.673       32.081       81.356       36.084       29.735     6618.757     1302.045      884.176        1.294        0.440      126.675       27.473        0.047      337.672        9.803      863.157
10/27/2014  11:30:00       26.682      -13.370       24.985       24.462       32.927       31.815      598.382     1084.157     1012.217        0.210        0.135       29.845       22.873        0.587      337.909       10.200      863.156
10/27/2014  11:31:00       32.677       62.360       62.259       50.526       52.837       39.677     2552.907     2791.752     1574.230        0.787        0.346       70.403       27.840        0.156      338.322       10.894      863.151
10/27/2014  11:32:00       12.482        4.405       32.404       83.804       72.530       38.810     7023.125     5260.619     1506.237        0.750        0.689       13.236       41.350        9.759      338.093       10.510      863.163
10/27/2014  11:33:00      173.070       95.283        8.006       92.716       53.646       43.851     8596.330     2877.898     1922.941        2.624        0.670      197.565       23.835        0.015      337.786        9.993      863.174
10/27/2014  11:34:00      197.292       99.768       34.548       50.659       57.023       48.417     2566.289     3251.663     2344.162        2.912        0.408      221.083       23.901        0.012      337.546        9.590      863.170
10/27/2014  11:35:00       68.368      -49.201        7.696       55.815       68.844       27.800     3115.285     4739.508      772.847        0.789        0.431       84.231       16.130        0.037      337.395        9.342      863.191
10/27/2014  11:36:00       67.647       53.752       38.741       41.063       37.704       34.852     1686.210     1421.583     1214.685        0.664        0.216       86.402       23.024        0.071      337.746        9.929      863.174
10/27/2014  11:37:00       16.959       38.882       23.037       22.468       28.692       21.297      504.792      823.204      453.541        0.206        0.089       42.419       10.156        0.057      337.906       10.197      863.167
10/27/2014  11:38:00       73.999       74.731       18.994       54.750       39.743       34.095     2997.558     1579.474     1162.467        0.858        0.287      105.169       15.989        0.023      337.931       10.239      863.163
10/27/2014  11:39:00      106.083       35.395       22.994       35.346       59.189       29.824     1249.323     3503.390      889.442        0.934        0.282      111.832       22.094        0.039      337.596        9.677      863.155
10/27/2014  11:40:00       76.725       58.523        2.340       44.686       37.887       44.098     1996.815     1435.400     1944.632        0.735        0.269       96.497       39.411        0.167      337.756        9.945      863.140
10/27/2014  11:41:00      175.212      100.278       52.168       93.623       85.067       73.930     8765.203     7236.325     5465.624        3.247        1.073      201.879       59.059        0.086      337.970       10.302      863.113
10/27/2014  11:42:00      113.025       91.164       51.861       76.690       62.985       48.683     5881.370     3967.054     2369.989        1.799        0.611      145.208       25.818        0.032      338.130       10.570      863.085
10/27/2014  11:43:00      134.822       94.980       29.872       87.029       55.516       41.844     7574.106     3082.063     1750.913        2.025        0.620      164.918       31.719        0.037      337.989       10.333      863.061
10/27/2014  11:44:00       58.433       37.195        5.744       66.962       42.055       44.727     4483.972     1768.621     2000.535        0.654        0.413       69.266       26.589        0.147      337.969       10.301      863.049
10/27/2014  11:45:00       64.684       60.459       13.568       48.086       42.373       33.189     2312.279     1795.513     1101.527        0.662        0.260       88.540       21.182        0.057      338.301       10.861      863.023
10/27/2014  11:46:00      115.729       59.530       20.401       74.029       48.021       39.152     5480.233     2305.971     1532.871        1.333        0.466      130.143       36.959        0.081      338.154       10.613      863.012
10/27/2014  11:47:00      173.965      145.710       59.214       86.589       71.141       54.307     7497.601     5061.044     2949.301        3.525        0.775      226.925       49.739        0.048      337.776        9.975      862.989
10/27/2014  11:48:00        1.501       66.565       84.973       40.774       63.202       69.015     1662.483     3994.449     4763.050        1.103        0.521       66.582       43.571        0.428      338.364       10.965      862.963
10/27/2014  11:49:00       28.335       27.690        7.602       59.213       39.735       30.111     3506.122     1578.845      906.688        0.381        0.300       39.618       20.149        0.259      338.434       11.084      862.976
10/27/2014  11:50:00       79.022       77.583       14.152       78.818       62.757       43.892     6212.243     3938.427     1926.503        1.227        0.604      110.741       34.613        0.098      338.103       10.525      862.966
10/27/2014  11:51:00      136.288       71.986       12.347       60.906       57.500       44.828     3709.480     3306.239     2009.529        1.647        0.451      154.131       35.329        0.053      337.907       10.196      862.965
10/27/2014  11:52:00        4.155       32.352       27.167       29.624       35.225       43.172      877.585     1240.818     1863.811        0.289        0.199       32.618       26.780        0.674      338.371       10.977      862.957
10/27/2014  11:53:00       34.347       46.918       39.446       52.618       47.082       31.956     2768.638     2216.680     1021.166        0.547        0.300       58.147       28.595        0.242      338.755       11.623      862.941
10/27/2014  11:54:00       59.958       52.398       37.452       42.217       43.816       45.159     1782.250     1919.821     2039.361        0.674        0.287       79.628       19.676        0.061      338.471       11.145      862.921
10/27/2014  11:55:00        3.598       23.750       13.171       28.033       54.363       25.262      785.825     2955.353      638.184        0.256        0.219       24.020       28.739        1.431      338.858       11.795      862.906
10/27/2014  11:56:00       70.977       37.203       20.795       57.101       40.695       40.088     3260.570     1656.047     1607.021        0.669        0.326       80.136       25.422        0.101      338.806       11.708      862.891
10/27/2014  11:57:00      114.823      112.748       75.348       88.750       60.274       55.931     7876.562     3632.914     3128.287        2.310        0.732      160.924       53.582        0.111      338.642       11.432      862.880
10/27/2014  11:58:00      101.270       71.683       24.998       71.097       57.017       42.851     5054.849     3250.982     1836.226        1.308        0.507      124.073       22.391        0.033      338.301       10.860      862.872
10/27/2014  11:59:00      110.329       16.288       29.170       65.644       85.304       36.358     4309.174     7276.700     1321.917        1.310        0.645      111.525       30.269        0.074      338.379       10.989      862.865
10/27/2014  12:00:00      103.292      -77.215        1.299       59.878       76.421       37.963     3585.401     5840.194     1441.196        1.375        0.543      128.963       34.741        0.073      338.540       11.260      862.850
10/27/2014  12:01:00       93.264     -147.478      -15.172       82.925      109.929       63.627     6876.475    12084.378     4048.365        2.684        1.150      174.493       71.261        0.167      338.253       10.775      862.833
10/27/2014  12:02:00      -10.216       18.151       84.530       49.791       78.768       40.469     2479.164     6204.467     1637.738        0.895        0.516       20.829       44.218        4.507      338.533       11.248      862.826
10/27/2014  12:03:00       41.867       68.133       68.748       43.369       48.388       49.768     1880.902     2341.370     2476.819        0.891        0.335       79.969       44.631        0.311      338.124       10.564      862.828
10/27/2014  12:04:00       85.041       56.165       18.976       63.962       45.802       36.548     4091.110     2097.812     1335.729        0.913        0.376      101.914       20.018        0.039      338.319       10.891      862.817
10/27/2014  12:05:00       80.840       60.771       22.032       58.306       76.085       41.803     3399.590     5788.926     1747.487        1.082        0.547      101.134       24.829        0.060      338.322       10.894      862.788
10/27/2014  12:06:00       61.301       29.573        3.982       68.378       70.280       41.191     4675.608     4939.291     1696.687        0.798        0.566       68.061       21.277        0.098      338.645       11.438      862.783
10/27/2014  12:07:00       91.521       51.696       30.130       45.219       46.763       44.342     2044.761     2186.805     1966.185        0.908        0.310      105.112       26.238        0.062      338.787       11.676      862.784
10/27/2014  12:08:00       -2.481       12.857       43.580       32.237       54.122       37.700     1039.199     2929.163     1421.280        0.373        0.269       13.094       28.209        4.641      339.052       12.121      862.781
10/27/2014  12:09:00      -16.987       -2.032        8.397       22.880       16.496       22.436      523.500      272.116      503.396        0.083        0.065       17.108       14.839        0.752      338.965       11.974      862.786
10/27/2014  12:10:00       -7.800       36.444       24.690       39.052       22.887       31.609     1525.077      523.815      999.159        0.252        0.152       37.270       21.234        0.325      338.853       11.787      862.773
10/27/2014  12:11:00       19.477       12.410       29.148       34.382       27.574       19.132     1182.094      760.342      366.050        0.185        0.115       23.095       10.740        0.216      339.178       12.333      862.766
10/27/2014  12:12:00      -41.870       30.384       13.772       38.580       35.366       34.090     1488.410     1250.769     1162.128        0.338        0.195       51.733       31.114        0.362      339.042       12.106      862.765
10/27/2014  12:13:00      -72.386       -3.907        0.282       61.442       43.024       29.258     3775.175     1851.096      856.036        0.587        0.324       72.491       33.862        0.218      338.528       11.240      862.757
10/27/2014  12:14:00     -103.960       99.033      -24.041       29.742       52.512       25.685      884.583     2757.543      659.702        1.275        0.215      143.580       14.148        0.010      338.359       10.958      862.734
10/27/2014  12:15:00     -112.353       11.697      -20.295       57.376       47.868       25.759     3291.979     2291.387      663.527        0.971        0.312      112.960       28.880        0.065      338.505       11.202      862.715
10/27/2014  12:16:00     -147.930      -94.982      -14.968       81.111       62.541       42.681     6578.958     3911.380     1821.693        2.172        0.616      175.798       49.475        0.079      338.417       11.052      862.688
10/27/2014  12:17:00     -152.060       -0.167       -4.184       59.540       53.558       32.879     3544.973     2868.439     1081.030        1.532        0.375      152.060       31.407        0.043      338.407       11.037      862.679
10/27/2014  12:18:00      -88.337      -36.124       -9.722       67.186       51.703       38.978     4513.997     2673.166     1519.291        0.895        0.435       95.438       37.833        0.157      338.559       11.293      862.681
10/27/2014  12:19:00       -8.774      -30.795       13.540       25.574       25.920       18.085      654.029      671.843      327.057        0.143        0.083       32.021       12.788        0.159      339.023       12.074      862.668
10/27/2014  12:20:00       43.157       53.127       26.199       51.601       52.604       38.046     2662.622     2767.155     1447.509        0.612        0.344       68.448       26.727        0.152      339.039       12.101      862.663
10/27/2014  12:21:00      141.658       49.675       23.855       90.000       52.122       52.734     8100.005     2716.686     2780.832        1.835        0.680      150.116       33.789        0.051      338.659       11.461      862.651
10/27/2014  12:22:00      155.408      109.808       27.669       68.661       60.131       56.811     4714.395     3615.738     3227.478        2.426        0.578      190.288       42.103        0.049      338.470       11.141      862.659
10/27/2014  12:23:00       97.565       59.058       44.349       85.488       70.132       60.081     7308.194     4918.559     3609.763        1.540        0.792      114.047       58.271        0.261      338.823       11.737      862.663
10/27/2014  12:24:00      148.068       77.089       45.387       96.903       80.132       52.888     9390.103     6421.196     2797.135        2.426        0.930      166.934       49.946        0.090      338.616       11.386      862.657
10/27/2014  12:25:00      157.333      106.135       25.407       55.091       39.816       43.802     3035.050     1585.332     1918.610        2.160        0.327      189.785       32.088        0.029      338.410       11.040      862.665
10/27/2014  12:26:00      182.347      117.346       12.031       49.887       48.253       37.673     2488.696     2328.393     1419.288        2.670        0.312      216.843       25.059        0.013      338.357       10.950      862.650
10/27/2014  12:27:00      124.673       72.896        5.137       87.976       57.114       51.972     7739.815     3261.969     2701.114        1.729        0.685      144.420       26.912        0.035      338.534       11.250      862.653
10/27/2014  12:28:00       42.609       45.029       17.185       61.547       47.241       32.156     3788.032     2231.685     1034.029        0.559        0.353       61.993       27.193        0.192      338.791       11.683      862.648
10/27/2014  12:29:00      108.918       76.222        7.525       71.530       71.961       58.541     5116.564     5178.395     3426.996        1.572        0.686      132.939       39.874        0.090      338.705       11.536      862.628
10/27/2014  12:30:00      113.119       76.246       29.205       69.706       56.108       43.295     4858.864     3148.112     1874.433        1.467        0.494      136.416       33.772        0.061      338.755       11.621      862.619
10/27/2014  12:31:00       60.605       54.473       19.047       53.523       41.805       35.664     2864.659     1747.653     1271.898        0.644        0.294       81.487       19.213        0.056      338.840       11.765      862.619
10/27/2014  12:32:00      113.904       64.532       24.519       69.678       39.429       31.689     4855.023     1554.656     1004.174        1.258        0.371      130.914       11.597        0.008      338.603       11.365      862.600
10/27/2014  12:33:00      150.341       67.890        7.611       75.188       54.951       30.830     5653.165     3019.652      950.507        1.844        0.481      164.959       12.114        0.005      338.542       11.263      862.587
10/27/2014  12:34:00       33.289       89.294       94.645       73.282       50.917       79.784     5370.204     2592.562     6365.498        1.618        0.716       95.297       65.070        0.466      338.921       11.901      862.579
10/27/2014  12:35:00      191.614      117.953       76.385       73.184       50.407       48.427     5355.940     2540.870     2345.152        3.335        0.512      225.009       38.134        0.029      338.540       11.257      862.561
10/27/2014  12:36:00      100.325       73.997       49.533       43.699       51.511       22.704     1909.610     2653.360      515.479        1.154        0.254      124.663       26.698        0.046      338.412       11.045      862.555
10/27/2014  12:37:00       90.659       -4.423       24.908       37.468       57.160       35.091     1403.824     3267.278     1231.348        0.738        0.295       90.766       31.558        0.121      338.617       11.391      862.535
10/27/2014  12:38:00        0.993       28.879       64.780       24.834       37.282       24.362      616.742     1389.957      593.513        0.382        0.130       28.896       20.658        0.511      339.377       12.667      862.514
10/27/2014  12:39:00        9.747       31.416       56.288       28.401       41.152       29.092      806.606     1693.466      846.371        0.380        0.167       32.893       24.383        0.549      339.045       12.109      862.491
10/27/2014  12:40:00       28.184       47.955        3.485       46.870       31.542       28.770     2196.773      994.874      827.724        0.356        0.201       55.624       23.943        0.185      338.862       11.802      862.460
10/27/2014  12:41:00       45.789       23.462        2.430       34.526       27.264       25.409     1192.017      743.330      645.593        0.262        0.129       51.450       18.355        0.127      339.125       12.244      862.454
10/27/2014  12:42:00        9.509      -49.379       22.108       41.103       65.017       44.352     1689.419     4227.243     1967.057        0.545        0.394       50.286       34.509        0.471      339.322       12.576      862.445
10/27/2014  12:43:00       77.646      -30.234       39.043       51.229       47.234       33.749     2624.383     2231.067     1138.990        0.723        0.300       83.324       31.002        0.138      338.970       11.985      862.423
10/27/2014  12:44:00       73.860       57.811       65.877       62.011       71.573       49.844     3845.375     5122.671     2484.389        1.229        0.573       93.795       42.228        0.203      339.258       12.468      862.397
10/27/2014  12:45:00       74.434       57.489       44.754       83.104       52.900       44.979     6906.204     2798.369     2023.100        1.129        0.586       94.050       36.076        0.147      339.021       12.068      862.383
10/27/2014  12:46:00       83.207       41.323       22.935       69.164       46.075       33.072     4783.711     2122.943     1093.779        0.858        0.400       92.903       22.940        0.061      338.952       11.953      862.361
10/27/2014  12:47:00       89.450       52.809       54.525       64.270       91.090       49.876     4130.615     8297.476     2487.569        1.434        0.746      103.876       52.977        0.260      339.069       12.148      862.335
10/27/2014  12:48:00      131.972       70.924       56.813       81.549       73.366       52.283     6650.199     5382.528     2733.493        2.022        0.738      149.823       44.402        0.088      339.008       12.045      862.336
10/27/2014  12:49:00       55.067       99.184      106.703       72.175       78.025       64.758     5209.164     6087.896     4193.574        1.987        0.775      113.445       59.094        0.271      338.805       11.706      862.339
10/27/2014  12:50:00       49.006       67.016       48.600       56.793       55.211       54.522     3225.398     3048.304     2972.599        0.925        0.462       83.023       45.017        0.294      338.794       11.688      862.356
10/27/2014  12:51:00        8.209       57.024       79.239       34.910       54.714       48.738     1218.687     2993.599     2375.434        0.809        0.329       57.611       40.488        0.494      339.149       12.286      862.351
10/27/2014  12:52:00      143.148       79.487       35.289      111.172       69.816       46.384    12359.320     4874.241     2151.502        2.372        0.969      163.736       48.448        0.088      338.732       11.583      862.347
10/27/2014  12:53:00      141.248      119.660       -3.244       96.391       66.346       43.274     9291.303     4401.748     1872.608        2.492        0.778      185.120       27.868        0.023      338.640       11.428      862.338
10/27/2014  12:54:00      134.069       98.931       18.844       82.193       62.241       44.316     6755.707     3873.913     1963.937        2.035        0.630      166.619       25.475        0.023      338.753       11.617      862.321
10/27/2014  12:55:00       52.760      110.603      -15.254       70.940       73.830       41.740     5032.441     5450.849     1742.267        1.373        0.611      122.542       46.466        0.144      339.022       12.070      862.293
10/27/2014  12:56:00       72.782       84.548        7.761       51.262       44.201       39.480     2627.779     1953.768     1558.649        0.932        0.307      111.560       19.629        0.031      339.066       12.145      862.284
10/27/2014  12:57:00       89.293       60.392       12.858       61.208       51.350       56.619     3746.447     2636.859     3205.752        1.069        0.479      107.799       32.499        0.091      339.271       12.490      862.290
10/27/2014  12:58:00       99.070       25.727       24.349       76.501       87.074       51.197     5852.359     7581.821     2621.121        1.356        0.803      102.356       56.630        0.306      339.184       12.345      862.287
10/27/2014  12:59:00      -37.610      -53.281       12.419       61.131       57.382       42.891     3737.029     3292.714     1839.678        0.664        0.443       65.218       23.599        0.131      339.386       12.683      862.266
10/27/2014  13:00:00       18.253      -15.648       29.451       25.173       31.427       26.237      633.682      987.662      688.360        0.188        0.115       24.042       11.877        0.244      339.751       13.299      862.251
10/27/2014  13:01:00       69.250      -76.318        8.242       31.794       67.405       37.846     1010.844     4543.425     1432.298        0.884        0.349      103.053       43.049        0.174      339.070       12.151      862.245
10/27/2014  13:02:00       51.405      -32.273       18.633       52.961       95.434       34.273     2804.881     9107.689     1174.644        0.856        0.654       60.697       39.364        0.421      339.133       12.258      862.222
10/27/2014  13:03:00      105.516       67.568        6.547       61.393       47.571       44.515     3769.107     2263.008     1981.597        1.188        0.401      125.296       31.484        0.063      339.013       12.056      862.211
10/27/2014  13:04:00      132.780       82.550       26.747       90.426       61.984       54.192     8176.932     3842.055     2936.783        2.006        0.748      156.349       35.278        0.051      339.531       12.925      862.186
10/27/2014  13:05:00        3.508       19.472       41.367       47.424       48.546       34.191     2249.043     2356.738     1169.054        0.394        0.289       19.786       28.249        2.039      340.062       13.825      862.175
10/27/2014  13:06:00       73.442      104.985       75.159       79.790       61.603       67.589     6366.485     3794.923     4568.267        1.839        0.736      128.123       52.543        0.168      339.313       12.560      862.159
10/27/2014  13:07:00      117.237       99.135       23.235       83.394       56.981       58.475     6954.624     3246.828     3419.279        1.886        0.681      153.532       40.575        0.070      339.033       12.088      862.146
10/27/2014  13:08:00       94.818       73.877       18.550       71.257       63.163       49.899     5077.566     3989.557     2489.903        1.317        0.578      120.201       32.382        0.073      339.080       12.167      862.116
10/27/2014  13:09:00      188.318       98.122       10.867       54.054       44.523       45.743     2921.828     1982.323     2092.458        2.610        0.350      212.348       26.675        0.016      338.860       11.797      862.105
10/27/2014  13:10:00      163.557       77.986       11.035       56.671       48.207       33.976     3211.612     2323.943     1154.395        1.982        0.334      181.198       24.882        0.019      338.906       11.875      862.099
10/27/2014  13:11:00       84.640       19.894       18.751       52.929       42.930       41.340     2801.519     1842.998     1709.006        0.713        0.318       86.946       21.943        0.064      338.934       11.923      862.099
10/27/2014  13:12:00      118.074       66.624       17.478       86.794       64.926       47.180     7533.114     4215.336     2225.974        1.633        0.699      135.574       22.839        0.028      339.160       12.303      862.081
10/27/2014  13:13:00       39.263       74.165      117.741       73.419      107.726       76.203     5390.327    11604.837     5806.835        2.185        1.140       83.917       80.551        0.921      339.459       12.806      862.084
10/27/2014  13:14:00       70.165       31.231       53.086       55.810       90.521       60.698     3114.710     8194.021     3684.257        1.185        0.750       76.802       62.324        0.659      339.195       12.361      862.100
10/27/2014  13:15:00        1.253       -5.847       38.316       37.638       82.863       33.007     1416.582     6866.256     1089.485        0.544        0.469        5.980       41.650       48.518      339.795       13.373      862.081
10/27/2014  13:16:00       10.069       -0.702       27.317       78.168       83.107       41.978     6110.186     6906.731     1762.180        0.781        0.739       10.093       48.150       22.758      339.463       12.812      862.057
10/27/2014  13:17:00       32.382      -22.079       54.596       64.938       64.812       44.392     4216.903     4200.598     1970.675        0.745        0.519       39.193       50.282        1.646      339.704       13.221      862.053
10/27/2014  13:18:00       68.856      -49.333       16.373       55.560       43.789       37.356     3086.950     1917.448     1395.458        0.692        0.320       84.705       35.578        0.176      339.361       12.642      862.052
10/27/2014  13:19:00       81.564       25.784       21.780       72.467       51.130       55.890     5251.496     2614.270     3123.681        0.939        0.549       85.543       38.731        0.205      339.411       12.726      862.043
10/27/2014  13:20:00       25.644       60.269       33.896       88.403       55.910       54.578     7815.163     3125.894     2978.784        0.968        0.696       65.498       33.244        0.258      339.473       12.830      862.022
10/27/2014  13:21:00       35.901      134.969      141.574       79.664       62.414       50.872     6346.367     3895.505     2587.979        2.619        0.641      139.662       35.555        0.065      339.786       13.355      861.996
10/27/2014  13:22:00       52.030       97.877      117.556       81.993       65.418       56.127     6722.923     4279.561     3150.213        2.013        0.708      110.847       37.848        0.117      339.411       12.725      862.000
10/27/2014  13:23:00       82.560       87.203       65.512       84.246       55.333       71.943     7097.470     3061.742     5175.806        1.702        0.767      120.086       58.719        0.239      339.282       12.509      862.002
10/27/2014  13:24:00       50.328       89.693       98.664       62.726       63.955       65.762     3934.579     4090.203     4324.607        1.633        0.617      102.848       62.987        0.375      339.368       12.652      861.997
10/27/2014  13:25:00       54.571       12.052       57.339       48.579       77.489       44.640     2359.913     6004.500     1992.749        0.838        0.518       55.886       40.156        0.516      339.442       12.779      861.994
10/27/2014  13:26:00      135.807      122.361       87.624       58.635       50.932       55.473     3438.063     2594.052     3077.307        2.510        0.455      182.800       47.782        0.068      339.060       12.133      862.008
10/27/2014  13:27:00       19.335      -53.830       -4.598       62.131       63.406       38.345     3860.289     4020.287     1470.372        0.632        0.468       57.197       33.796        0.349      338.946       11.944      862.017
10/27/2014  13:28:00      -46.803       28.706       -0.787       58.272       36.650       33.426     3395.616     1343.259     1117.270        0.443        0.293       54.906       30.117        0.301      339.425       12.750      861.987
10/27/2014  13:29:00       56.798       12.329       38.956       54.188       54.551       30.479     2936.335     2975.765      928.944        0.587        0.342       58.121       19.950        0.118      339.479       12.839      861.985
10/27/2014  13:30:00       -1.806        6.680       23.457       40.621       77.151       35.339     1650.057     5952.231     1248.875        0.472        0.443        6.920       24.532       12.569      339.506       12.885      861.939
10/27/2014  13:31:00       55.765     -139.640      -15.004       58.378       37.266       32.847     3408.023     1388.777     1078.902        1.435        0.294      150.364       30.557        0.041      339.235       12.429      861.920
10/27/2014  13:32:00        2.440      -51.953        4.515       54.589       35.257       27.954     2980.003     1243.078      781.447        0.386        0.250       52.010       25.228        0.235      339.613       13.066      861.885
10/27/2014  13:33:00      -51.571      -59.004        2.158       77.643       35.955       33.765     6028.387     1292.775     1140.081        0.730        0.423       78.365       25.346        0.105      339.694       13.203      861.859
10/27/2014  13:34:00      156.197     -262.820      -36.507       69.327       68.496       41.183     4806.191     4691.721     1696.054        5.300        0.560      305.731       36.426        0.014      339.104       12.206      861.843
10/27/2014  13:35:00      164.623     -220.653      -29.123       61.900       67.683       46.452     3831.625     4580.926     2157.782        4.360        0.529      275.297       39.142        0.020      339.161       12.302      861.831
10/27/2014  13:36:00      110.115        5.327       75.116       85.333      117.931       75.267     7281.694    13907.801     5665.084        2.232        1.343      110.243       83.564        0.575      339.433       12.762      861.813
10/27/2014  13:37:00       61.732      -45.795       25.494       59.002       69.909       45.671     3481.278     4887.335     2085.858        0.850        0.523       76.863       51.249        0.445      339.504       12.883      861.785
10/27/2014  13:38:00       42.895       69.693       37.709       56.844       39.741       40.941     3231.234     1579.318     1676.202        0.730        0.324       81.835       18.819        0.053      339.600       13.044      861.766
10/27/2014  13:39:00       96.773       91.373       22.314       65.973       64.871       40.811     4352.422     4208.198     1665.553        1.422        0.511      133.094       20.655        0.024      339.354       12.630      861.737
10/27/2014  13:40:00      163.236       86.806       49.925       67.336       59.950       54.611     4534.188     3594.001     2982.367        2.389        0.556      184.882       36.466        0.039      339.648       13.123      861.712
10/27/2014  13:41:00      139.160       94.256       76.114       84.553       73.890       72.176     7149.155     5459.743     5209.447        2.593        0.891      168.077       49.538        0.087      339.503       12.878      861.686
10/27/2014  13:42:00       92.739       87.596       81.433       76.638      121.001       71.967     5873.314    14641.270     5179.243        2.429        1.285      127.568       80.109        0.394      339.338       12.602      861.662
10/27/2014  13:43:00       67.357      -21.549       33.210       46.780       48.856       42.418     2188.397     2386.873     1799.287        0.624        0.319       70.720       32.758        0.215      339.602       13.047      861.653
10/27/2014  13:44:00      125.203       68.181       43.439       71.977       58.098       51.588     5180.635     3375.392     2661.283        1.671        0.561      142.564       45.718        0.103      339.337       12.599      861.626
10/27/2014  13:45:00       28.736      -23.259       26.287       61.657       74.709       53.238     3801.620     5581.398     2834.307        0.714        0.611       36.970       47.718        1.666      339.798       13.378      861.625
10/27/2014  13:46:00       71.115      -58.808       41.970       77.616      121.152       72.299     6024.244    14677.785     5227.140        1.810        1.296       92.281       72.046        0.610      339.497       12.871      861.641
10/27/2014  13:47:00       97.316     -139.125       -5.356       55.559       82.232       54.307     3086.822     6762.184     2949.220        2.082        0.640      169.783       50.364        0.088      339.484       12.847      861.636
10/27/2014  13:48:00        8.429       33.581       49.390       37.989       41.607       29.156     1443.174     1731.170      850.092        0.383        0.201       34.623       27.307        0.622      339.939       13.616      861.635
10/27/2014  13:49:00       55.814      -56.067       31.992       76.017      101.357       47.184     5778.636    10273.335     2226.377        1.278        0.914       79.112       69.405        0.770      339.969       13.664      861.629
10/27/2014  13:50:00      107.104     -116.640       12.423       81.714       85.708       48.652     6677.098     7345.786     2367.045        2.081        0.819      158.355       39.788        0.063      339.811       13.399      861.621
10/27/2014  13:51:00      119.529     -202.984      -30.052       54.116       63.989       38.955     2928.594     4094.587     1517.456        3.247        0.427      235.563       29.095        0.015      339.374       12.660      861.605
10/27/2014  13:52:00       44.184      -52.236       40.392       44.694       72.797       39.422     1997.541     5299.469     1554.076        0.758        0.443       68.417       42.265        0.382      339.757       13.309      861.582
10/27/2014  13:53:00       24.434      -95.279        0.825       51.719      117.501       46.879     2674.839    13806.602     2197.607        1.417        0.934       98.362       64.583        0.431      339.716       13.239      861.580
10/27/2014  13:54:00      121.027     -145.792       -3.741       64.793       83.459       56.184     4198.162     6965.336     3156.599        2.512        0.716      189.480       60.496        0.102      339.392       12.691      861.566
10/27/2014  13:55:00       51.487      -74.247       22.551       73.699       62.014       44.976     5431.508     3845.720     2022.815        0.998        0.565       90.352       45.112        0.249      339.580       13.010      861.537
10/27/2014  13:56:00        1.152     -116.590        6.026       60.716       68.156       53.878     3686.429     4645.259     2902.856        1.243        0.562      116.596       31.343        0.072      339.804       13.387      861.492
10/27/2014  13:57:00       14.838     -120.206      -12.852       55.749       38.625       28.025     3107.979     1491.878      785.425        1.011        0.269      121.119       10.589        0.008      339.593       13.033      861.484
10/27/2014  13:58:00       67.163     -144.499       -4.720       53.374       95.555       41.244     2848.833     9130.814     1701.088        1.954        0.684      159.345       33.801        0.045      339.587       13.020      861.480
10/27/2014  13:59:00       31.125      -40.101       34.589       80.591       58.679       42.411     6494.836     3443.263     1798.685        0.775        0.587       50.763       36.341        0.513      339.641       13.114      861.486
10/27/2014  14:00:00      111.026       24.006       82.820      114.524       82.052       61.601    13115.698     6732.532     3794.624        2.170        1.182      113.592       67.127        0.349      339.578       13.007      861.491
10/27/2014  14:01:00      140.313        6.299       42.742       58.056      101.202       45.874     3370.482    10241.794     2104.460        1.863        0.786      140.454       29.417        0.044      339.335       12.597      861.491
10/27/2014  14:02:00       53.687       16.739       42.073       57.549       44.518       34.437     3311.845     1981.810     1185.928        0.570        0.324       56.236       28.057        0.249      339.487       12.854      861.475
10/27/2014  14:03:00       73.037      -18.500       48.522       85.025      109.992       68.459     7229.182    12098.326     4686.647        1.602        1.201       75.344       80.725        1.148      339.462       12.813      861.429
10/27/2014  14:04:00      151.088      -16.950       35.271       77.809      144.263       63.328     6054.301    20811.882     4010.464        2.761        1.544      152.036       79.389        0.273      339.426       12.749      861.410
10/27/2014  14:05:00       29.756      -11.777       38.707       51.677       70.246       50.890     2670.461     4934.473     2589.810        0.636        0.510       32.002       43.478        1.846      339.588       13.025      861.411
10/27/2014  14:06:00       17.390      -92.183       -7.994       50.525       42.231       26.959     2552.732     1783.435      726.771        0.696        0.253       93.809       25.147        0.072      339.744       13.288      861.423
10/27/2014  14:07:00       62.337      -75.888       -0.469       26.859       36.668       35.307      721.402     1344.527     1246.570        0.648        0.166       98.209       25.397        0.067      339.543       12.950      861.436
10/27/2014  14:08:00      -15.004      -10.942      -16.434       48.866       27.101       28.139     2387.921      734.454      791.814        0.226        0.196       18.570       23.403        1.588      339.518       12.905      861.439
10/27/2014  14:09:00       36.277      -61.205       -6.436       33.883       50.656       19.396     1148.037     2566.006      376.215        0.460        0.205       71.149       17.936        0.064      339.554       12.968      861.446
10/27/2014  14:10:00       30.564       36.210       52.340       56.314       54.900       36.620     3171.265     3014.000     1341.026        0.625        0.376       47.385       30.354        0.410      339.731       13.265      861.442
10/27/2014  14:11:00        7.214      -37.201       36.650       61.683       76.171       36.108     3804.773     5802.058     1303.816        0.684        0.546       37.894       37.127        0.960      339.849       13.465      861.433
10/27/2014  14:12:00       85.995       85.642       75.846       88.287       60.912       40.252     7794.538     3710.224     1620.239        1.680        0.656      121.366       25.594        0.044      339.739       13.277      861.423
10/27/2014  14:13:00       45.484       29.097       38.890       67.025       95.189       61.939     4492.355     9060.872     3836.470        1.091        0.869       53.995       52.031        0.929      339.776       13.340      861.418
10/27/2014  14:14:00        8.887       54.943       75.218       51.970       62.364       48.405     2700.918     3889.290     2343.037        0.884        0.447       55.657       35.430        0.405      339.784       13.354      861.426
10/27/2014  14:15:00       23.934      -12.689       25.503       49.122       74.804       42.852     2413.002     5595.626     1836.277        0.561        0.492       27.090       42.037        2.408      339.774       13.338      861.422
10/27/2014  14:16:00       80.503       59.374       35.016       65.633       52.776       42.608     4307.660     2785.255     1815.440        1.007        0.445      100.030       12.693        0.016      339.854       13.474      861.430
10/27/2014  14:17:00       86.787       70.436       47.961       78.125       41.083       56.225     6103.544     1687.786     3161.292        1.287        0.548      111.773       46.453        0.173      339.839       13.447      861.443
10/27/2014  14:18:00       53.274      -31.048       30.218       52.841       81.679       43.722     2792.197     6671.445     1911.619        0.804        0.569       61.661       46.528        0.569      339.666       13.157      861.446
10/27/2014  14:19:00       93.805     -114.560        5.625       59.384       65.884       49.328     3526.431     4340.752     2433.239        1.613        0.515      148.065       44.780        0.091      339.417       12.734      861.444
10/27/2014  14:20:00       31.278        4.921       35.092       43.630       61.514       38.427     1903.605     3783.943     1476.673        0.470        0.358       31.663       24.085        0.579      339.743       13.285      861.420
10/27/2014  14:21:00       13.984       13.460       41.618       33.294       41.468       23.200     1108.505     1719.634      538.239        0.274        0.168       19.409       23.188        1.427      339.680       13.178      861.408
10/27/2014  14:22:00       61.214       50.933       49.236       35.571       38.374       33.426     1265.282     1472.562     1117.287        0.631        0.193       79.633       19.013        0.057      339.555       12.969      861.385
10/27/2014  14:23:00       57.003       74.958       59.028       60.479       59.687       45.983     3657.754     3562.493     2114.418        1.084        0.467       94.170       39.410        0.175      339.425       12.747      861.368
10/27/2014  14:24:00       99.368       73.452       38.179       28.913       25.121       28.327      835.946      631.077      802.418        0.950        0.113      123.569       12.578        0.010      339.443       12.780      861.346
10/27/2014  14:25:00       70.237       31.809       11.102       33.183       37.408       35.227     1101.087     1399.334     1240.944        0.490        0.187       77.104       17.488        0.051      339.461       12.809      861.327
10/27/2014  14:26:00       19.424       -7.519      -17.857       20.215       29.008       15.431      408.657      841.490      238.125        0.112        0.074       20.829       15.551        0.557      339.603       13.050      861.320
10/27/2014  14:27:00       -2.442       -7.194       -1.379       25.926       45.516       23.416      672.145     2071.707      548.327        0.168        0.165        7.597       20.414        7.221      339.830       13.432      861.325
10/27/2014  14:28:00       26.632       -3.285       28.831       30.015       43.384       25.508      900.873     1882.150      650.672        0.249        0.172       26.834       15.792        0.346      339.644       13.118      861.322
10/27/2014  14:29:00       35.074      -46.284       14.415       38.225       38.800       27.093     1461.152     1505.444      734.026        0.364        0.185       58.072       26.901        0.215      339.741       13.283      861.321
10/27/2014  14:30:00       60.986      -38.419       46.165       69.436       68.784       42.086     4821.371     4731.233     1771.272        0.932        0.566       72.079       46.355        0.414      339.768       13.328      861.308
10/27/2014  14:31:00       19.175      -33.147       24.234       61.491       66.806       51.577     3781.143     4463.061     2660.169        0.648        0.545       38.294       46.411        1.469      339.876       13.510      861.290
10/27/2014  14:32:00      120.874     -107.205      -43.502       54.488       64.417       35.527     2968.992     4149.494     1262.183        1.819        0.419      161.565       33.806        0.044      339.621       13.080      861.277
10/27/2014  14:33:00       75.300      -41.060        1.243       49.181       70.852       48.354     2418.790     5020.074     2338.156        0.857        0.489       85.767       59.196        0.476      339.590       13.027      861.283
10/27/2014  14:34:00       52.109        1.955       26.677       49.716       31.431       33.393     2471.635      987.910     1115.106        0.400        0.229       52.145       32.283        0.383      339.713       13.235      861.281
10/27/2014  14:35:00      -12.397      -60.994        6.089       51.457       48.347       31.595     2647.821     2337.453      998.268        0.495        0.299       62.241       20.001        0.103      339.906       13.560      861.272
10/27/2014  14:36:00        1.829      -33.969       10.412       49.853       45.709       44.308     2485.299     2089.303     1963.188        0.390        0.327       34.019       23.271        0.468      339.792       13.367      861.275
10/27/2014  14:37:00       12.589       27.885       60.154       30.449       27.754       29.091      927.154      770.293      846.289        0.355        0.127       30.595        8.361        0.075      339.719       13.246      861.284
10/27/2014  14:38:00       30.935       46.947       39.061       29.294       24.249       30.919      858.154      587.995      956.005        0.354        0.120       56.223       19.870        0.125      339.404       12.713      861.286
10/27/2014  14:39:00      -15.969       30.658        2.611       22.068       25.547       22.678      486.978      652.635      514.308        0.143        0.083       34.567       16.289        0.222      339.775       13.340      861.279
10/27/2014  14:40:00       -3.305       31.547        4.501       20.544       20.835       20.321      422.054      434.115      412.943        0.115        0.063       31.719       11.810        0.139      339.885       13.524      861.283
10/27/2014  14:41:00       -4.830       -7.454        6.824       75.534       47.354       37.005     5705.414     2242.427     1369.371        0.472        0.466        8.882       31.041       12.213      339.859       13.481      861.281
10/27/2014  14:42:00      -24.942       -3.987       31.215       34.054       52.411       33.759     1159.684     2746.945     1139.670        0.333        0.252       25.259       29.123        1.329      339.992       13.705      861.271
10/27/2014  14:43:00      -19.954      -51.075       11.819       25.135       50.874       28.613      631.765     2588.141      818.678        0.359        0.202       54.834       30.090        0.301      340.166       14.000      861.274
10/27/2014  14:44:00       -3.502      -29.966       15.434       26.068       31.614       21.517      679.558      999.440      462.987        0.164        0.107       30.170       16.190        0.288      340.096       13.881      861.279
10/27/2014  14:45:00      -39.626        4.671       -8.613       20.280       23.196       20.752      411.297      538.036      430.661        0.152        0.069       39.900        7.332        0.034      339.896       13.543      861.290
10/27/2014  14:46:00       -1.460       10.365       -1.044       21.131       14.410       21.479      446.501      207.654      461.349        0.061        0.056       10.468       10.409        0.989      340.131       13.939      861.310
10/27/2014  14:47:00       -7.016        7.291       21.844       16.878       16.728       17.983      284.859      279.838      323.396        0.073        0.044       10.119       12.679        1.570      340.146       13.966      861.322
10/27/2014  14:48:00       25.977      -27.514       10.559       25.437       28.497       24.524      647.037      812.073      601.448        0.180        0.103       37.839       18.264        0.233      339.870       13.500      861.331
10/27/2014  14:49:00       -8.027        1.964        2.962       41.589       19.034       17.897     1729.686      362.287      320.304        0.124        0.121        8.263       17.789        4.634      339.805       13.391      861.330
10/27/2014  14:50:00       30.336       16.354        8.119       29.541       17.827       19.580      872.649      317.793      383.389        0.141        0.079       34.464        7.951        0.053      339.664       13.154      861.329
10/27/2014  14:51:00       76.570       66.183       55.524       65.306       29.640       35.214     4264.872      878.555     1239.996        0.985        0.319      101.209       28.712        0.080      339.711       13.232      861.310
10/27/2014  14:52:00       49.840       76.786       55.138       55.098       30.815       40.733     3035.781      949.541     1659.146        0.853        0.282       91.543       33.295        0.132      339.713       13.234      861.282
10/27/2014  14:53:00       77.370       85.180       52.610       30.900       27.216       35.653      954.831      740.693     1271.106        0.949        0.148      115.073       18.628        0.026      339.586       13.021      861.255
10/27/2014  14:54:00      117.269       68.088        4.984       48.906       35.407       30.908     2391.817     1253.652      955.286        1.151        0.230      135.602       15.938        0.014      339.619       13.077      861.227
10/27/2014  14:55:00      146.020       96.058        9.887       45.465       29.028       33.470     2067.057      842.619     1120.259        1.734        0.201      174.783       25.102        0.021      339.603       13.049      861.221
10/27/2014  14:56:00      121.193       64.119       10.749       31.740       38.761       30.196     1007.431     1502.408      911.803        1.117        0.171      137.110       15.798        0.013      339.638       13.108      861.206
10/27/2014  14:57:00      103.153       64.572       33.107       45.271       34.054       32.610     2049.443     1159.641     1063.434        1.009        0.214      121.696       21.593        0.031      339.635       13.103      861.208
10/27/2014  14:58:00       74.731       66.716       -4.451       49.040       37.828       23.480     2404.928     1430.958      551.293        0.722        0.219      100.178       25.751        0.066      339.748       13.294      861.229
10/27/2014  14:59:00       49.252       53.317        7.080       43.881       25.806       29.147     1925.521      665.944      849.561        0.438        0.172       72.584       17.160        0.056      339.886       13.527      861.243
10/27/2014  15:00:00        0.549       27.829        2.301       15.088       18.032       21.922      227.645      325.170      480.576        0.091        0.052       27.835       17.210        0.382      340.203       14.061      861.249
10/27/2014  15:01:00       -6.490      -34.792        3.184       21.354       34.244       18.447      455.980     1172.641      340.302        0.162        0.098       35.392       11.500        0.106      340.168       14.002      861.241
10/27/2014  15:02:00       -1.511      -43.439        3.348       30.445       27.692       20.057      926.920      766.860      402.303        0.200        0.105       43.465       18.233        0.176      339.995       13.710      861.223
10/27/2014  15:03:00       24.534       -8.808       23.355       22.494       35.269       21.878      505.959     1243.877      478.636        0.173        0.111       26.067       17.725        0.462      340.116       13.914      861.223
10/27/2014  15:04:00        8.488      -50.515       -0.837       24.157       29.406       23.260      583.546      864.719      541.006        0.231        0.099       51.223       16.281        0.101      340.145       13.964      861.221
10/27/2014  15:05:00       -4.129        0.077       29.390        9.655       16.763        9.601       93.221      280.986       92.183        0.067        0.023        4.130        8.535        4.270      340.683       14.874      861.225
10/27/2014  15:06:00       10.279       15.535       13.654       14.316       11.099       11.887      204.942      123.178      141.306        0.050        0.023       18.628        4.828        0.067      340.154       13.977      861.229
10/27/2014  15:07:00      -67.307       71.100      -19.669       25.959       28.872       18.537      673.890      833.578      343.638        0.591        0.093       97.906       18.683        0.036      339.928       13.598      861.220
10/27/2014  15:08:00      -78.517       29.508       -9.854       22.634       21.751       20.002      512.302      473.123      400.067        0.426        0.069       83.878       15.631        0.035      339.959       13.650      861.205
10/27/2014  15:09:00      -11.638        8.874      -10.729       24.415       42.394       16.468      596.109     1797.246      271.198        0.150        0.133       14.635       17.465        1.424      340.099       13.886      861.195
10/27/2014  15:10:00      -16.535       28.631        7.506       17.750       26.810       16.551      315.046      718.766      273.939        0.123        0.065       33.062       13.482        0.166      340.511       14.582      861.193
10/27/2014  15:11:00      -39.799       41.988        4.162       38.355       28.670       29.744     1471.123      821.940      884.694        0.327        0.159       57.853       32.906        0.324      340.253       14.147      861.195
10/27/2014  15:12:00       54.461       56.429        7.352       63.455       54.801       30.236     4026.585     3003.203      914.208        0.707        0.397       78.424       28.634        0.133      340.180       14.022      861.175
10/27/2014  15:13:00       60.747       40.151        4.318       45.967       35.970       22.919     2112.934     1293.873      525.260        0.463        0.197       72.817       19.555        0.072      340.105       13.898      861.152
10/27/2014  15:14:00       22.831        2.653       -4.641       39.165       43.630       25.763     1533.882     1903.571      663.738        0.232        0.205       22.985       27.067        1.387      340.156       13.982      861.134
10/27/2014  15:15:00      -12.726      -16.668       14.663       26.169       29.772       18.122      684.814      886.362      328.399        0.128        0.095       20.971       15.914        0.576      340.567       14.678      861.116
10/27/2014  15:16:00       36.245       43.048       43.846       48.922       45.773       32.518     2393.375     2095.188     1057.427        0.532        0.277       56.275       19.823        0.124      340.226       14.101      861.099
10/27/2014  15:17:00      -43.654      -17.366       15.607       39.576       23.598       21.460     1566.232      556.870      460.535        0.252        0.129       46.982       22.191        0.223      340.141       13.957      861.075
10/27/2014  15:18:00      -36.751       -4.764        9.125       41.952       23.559       25.678     1759.997      555.026      659.384        0.221        0.149       37.059       16.070        0.188      340.396       14.387      861.067
10/27/2014  15:19:00        7.485        6.495        6.083       25.516       19.763       22.912      651.043      390.586      524.955        0.085        0.078        9.910       16.589        2.802      340.399       14.392      861.075
10/27/2014  15:20:00       40.524       31.720       25.426       22.071       18.608       25.614      487.151      346.255      656.102        0.239        0.074       51.462        8.534        0.027      340.145       13.963      861.093
10/27/2014  15:21:00      100.320      -22.554       22.626       67.827       48.966       44.619     4600.560     2397.717     1990.869        1.004        0.449      102.824       37.195        0.131      339.875       13.508      861.095
10/27/2014  15:22:00       66.222      -52.955       17.969       72.531       88.593       42.845     5260.767     7848.728     1835.714        1.123        0.747       84.792       50.136        0.350      340.142       13.957      861.092
10/27/2014  15:23:00      101.138       36.029       49.436       55.784       50.575       45.800     3111.902     2557.809     2097.617        1.087        0.388      107.364       30.083        0.079      339.987       13.696      861.092
10/27/2014  15:24:00       53.455       -8.076       36.255       48.900       72.860       40.056     2391.244     5308.539     1604.489        0.677        0.465       54.062       36.835        0.464      340.133       13.943      861.095
10/27/2014  15:25:00      102.527       89.691       68.265       62.302       52.380       50.247     3881.573     2743.642     2524.808        1.618        0.458      136.221       39.477        0.084      339.880       13.514      861.100
10/27/2014  15:26:00        2.083       54.498       80.182       40.713       49.226       32.284     1657.575     2423.196     1042.232        0.726        0.256       54.538       27.275        0.250      340.153       13.977      861.110
10/27/2014  15:27:00      137.704       67.174       43.945       76.095       50.383       50.277     5790.449     2538.475     2527.793        1.813        0.543      153.215       47.981        0.098      339.968       13.664      861.134
10/27/2014  15:28:00       76.781       38.111       27.619       53.316       67.547       42.713     2842.597     4562.631     1824.375        0.867        0.461       85.719       33.305        0.151      340.086       13.865      861.130
10/27/2014  15:29:00       28.092      -73.528        8.302       54.897       69.037       45.244     3013.665     4766.093     2047.051        0.804        0.491       78.712       38.738        0.242      340.378       14.357      861.146
10/27/2014  15:30:00       60.636      -87.630       -8.470       37.617       46.020       31.823     1415.062     2117.823     1012.699        0.799        0.227      106.563       26.933        0.064      340.146       13.965      861.156
10/27/2014  15:31:00       52.633      -79.910       -3.034       33.210       30.109       20.471     1102.919      906.551      419.053        0.580        0.121       95.686       14.833        0.024      339.926       13.595      861.155
10/27/2014  15:32:00       74.442      -97.662       -1.822       37.590       33.733       21.565     1413.000     1137.923      465.033        0.905        0.151      122.798       13.231        0.012      340.024       13.760      861.144
10/27/2014  15:33:00        6.280       -8.391       24.280       49.562       35.768       30.326     2456.426     1279.318      919.692        0.268        0.233       10.481       23.419        4.993      340.583       14.704      861.137
10/27/2014  15:34:00       14.188        8.544       32.078       22.488       19.034       14.486      505.722      362.292      209.845        0.119        0.054       16.562       13.132        0.629      340.580       14.699      861.131
10/27/2014  15:35:00       10.156       39.859       16.656       55.585       26.745       38.318     3089.708      715.308     1468.291        0.362        0.264       41.132       12.884        0.098      340.313       14.248      861.143
10/27/2014  15:36:00      137.571       56.212        6.224       59.423       61.914       41.335     3531.051     3833.372     1708.576        1.560        0.454      148.612       35.302        0.056      340.140       13.955      861.147
10/27/2014  15:37:00      129.318       69.561        4.574       63.602       57.120       37.901     4045.176     3262.660     1436.461        1.516        0.437      146.839       23.750        0.026      340.045       13.794      861.148
10/27/2014  15:38:00       37.351      138.302      -22.335       23.972       26.642       25.028      574.671      709.796      626.377        1.147        0.096      143.257       18.456        0.017      339.972       13.672      861.168
10/27/2014  15:39:00        8.663      103.444      -16.311       37.213       27.121       21.387     1384.780      735.543      457.385        0.681        0.129      103.806       17.540        0.029      339.990       13.701      861.189
10/27/2014  15:40:00      -24.443       95.603      -18.990       13.618       33.476       15.265      185.442     1120.636      233.006        0.582        0.077       98.678       10.255        0.011      339.893       13.539      861.204
10/27/2014  15:41:00      -27.326       45.781      -15.578       15.624       18.568       18.276      244.097      344.771      334.023        0.200        0.046       53.316        6.622        0.015      340.014       13.743      861.211
10/27/2014  15:42:00      -17.817       21.536       -7.173       21.450       23.913       18.886      460.096      571.838      356.700        0.111        0.069       27.951       12.938        0.214      340.286       14.203      861.218
10/27/2014  15:43:00       -5.533       40.717        6.717       15.843       40.974       15.410      251.013     1678.855      237.460        0.195        0.108       41.091       18.229        0.197      340.388       14.376      861.225
10/27/2014  15:44:00       -4.009       15.126       20.388       23.915       25.314       15.594      571.917      640.777      243.187        0.106        0.073       15.648       11.374        0.528      340.595       14.724      861.210
10/27/2014  15:45:00       -0.782       44.446        8.214       28.423       38.829       23.126      807.893     1507.701      534.804        0.245        0.143       44.453       19.380        0.190      340.417       14.423      861.209
10/27/2014  15:46:00        1.557      115.507      -14.430       18.697       32.693       18.729      349.565     1068.827      350.761        0.766        0.088      115.518       14.488        0.016      340.102       13.892      861.205
10/27/2014  15:47:00       16.431        9.103       -6.445       25.108       32.364       22.544      630.405     1047.455      508.241        0.129        0.109       18.784       12.325        0.431      340.331       14.277      861.195
10/27/2014  15:48:00       16.515       38.127       15.418       34.447       33.056       29.627     1186.577     1092.699      877.745        0.256        0.158       41.550       20.682        0.248      340.382       14.363      861.175
10/27/2014  15:49:00       52.641       29.815       33.365       70.129       54.467       49.624     4918.115     2966.663     2462.499        0.756        0.517       60.498       34.063        0.317      340.303       14.231      861.172
10/27/2014  15:50:00      138.360       54.300       30.241       81.753       65.849       58.817     6683.618     4336.028     3459.466        1.874        0.724      148.634       46.914        0.100      340.085       13.861      861.157
10/27/2014  15:51:00      111.358       34.026       29.104       49.801       78.117       47.081     2480.135     6102.310     2216.580        1.260        0.540      116.440       46.400        0.159      340.240       14.125      861.143
10/27/2014  15:52:00       43.042      -56.812       17.773       53.293       78.079       49.809     2840.153     6096.278     2480.977        0.840        0.571       71.275       46.313        0.422      340.342       14.296      861.136
10/27/2014  15:53:00       84.186      -34.498       23.732       56.211       91.669       47.023     3159.713     8403.225     2211.206        1.130        0.689       90.980       47.394        0.271      340.220       14.090      861.129
10/27/2014  15:54:00       80.273      -28.775       34.251       65.460       88.922       52.757     4284.954     7907.133     2783.340        1.171        0.749       85.274       55.181        0.419      340.304       14.231      861.130
10/27/2014  15:55:00      105.087       73.323       70.979       79.106       77.744       61.721     6257.772     6044.115     3809.466        1.878        0.806      128.139       52.958        0.171      340.108       13.899      861.155
10/27/2014  15:56:00       79.419       67.105       95.469       72.540       79.092       59.064     5262.121     6255.554     3488.525        1.746        0.750      103.973       49.182        0.224      339.952       13.637      861.158
10/27/2014  15:57:00      133.565       97.018       43.630       78.077       53.235       42.238     6095.973     2833.968     1784.061        1.993        0.536      165.082       27.239        0.027      339.983       13.689      861.168
10/27/2014  15:58:00       23.522       45.459       63.478       47.436       55.034       37.030     2250.198     3028.710     1371.185        0.665        0.333       51.185       32.236        0.397      340.168       14.002      861.178
10/27/2014  15:59:00      103.329       32.599       32.856       54.485       68.414       36.839     2968.633     4680.536     1357.136        1.091        0.450      108.349       24.568        0.051      340.045       13.795      861.176
10/27/2014  16:00:00       79.963       57.780        6.775       47.213       46.973       15.992     2229.078     2206.480      255.750        0.723        0.235       98.654       10.725        0.012      339.968       13.663      861.174
10/27/2014  16:01:00       11.513        5.393       18.880       14.893       11.607       11.860      221.800      134.725      140.656        0.051        0.025       12.713        4.506        0.126      340.189       14.038      861.187
10/27/2014  16:02:00       54.378       31.775        6.870       55.857       35.543       27.008     3119.982     1263.281      729.409        0.456        0.256       62.981       13.139        0.044      340.030       13.771      861.205
10/27/2014  16:03:00      122.987       72.188       27.681       78.739       68.831       43.375     6199.831     4737.660     1881.348        1.696        0.641      142.608       35.633        0.062      340.139       13.952      861.219
10/27/2014  16:04:00      117.468       65.487       22.738       45.456       33.151       34.524     2066.245     1098.958     1191.909        1.148        0.218      134.489       20.551        0.023      340.006       13.730      861.230
10/27/2014  16:05:00       97.258       36.104       23.516       32.444       28.638       25.786     1052.588      820.123      664.927        0.693        0.127      103.743       21.950        0.045      339.923       13.589      861.209
10/27/2014  16:06:00       67.859        9.191       20.958       48.149       42.414       24.750     2318.357     1798.947      612.582        0.493        0.236       68.479       11.073        0.026      340.132       13.942      861.183
10/27/2014  16:07:00      106.020       63.708       25.951       63.171       52.374       31.937     3990.575     2742.984     1019.995        1.186        0.388      123.688       29.021        0.055      340.183       14.027      861.151
10/27/2014  16:08:00      146.634       81.497       30.008       47.315       32.357       32.803     2238.676     1046.973     1076.062        1.670        0.218      167.760       16.980        0.010      340.030       13.770      861.128
10/27/2014  16:09:00       89.865       49.658        4.996       46.934       25.600       26.591     2202.807      655.365      707.079        0.707        0.178      102.673       19.179        0.035      340.069       13.834      861.118
10/27/2014  16:10:00       27.452       20.440       -0.025       45.126       35.146       18.257     2036.354     1235.223      333.324        0.239        0.180       34.226        5.557        0.026      340.086       13.865      861.113
10/27/2014  16:11:00       19.413       14.726        6.121       31.960       24.485       15.975     1021.440      599.539      255.189        0.125        0.094       24.367       17.852        0.537      340.251       14.143      861.118
10/27/2014  16:12:00       86.205       50.437       28.289       38.707       17.846       23.734     1498.222      318.473      563.295        0.658        0.119       99.876       10.360        0.011      340.139       13.954      861.117
10/27/2014  16:13:00       49.565       46.133       18.235       17.089       16.134       18.880      292.019      260.305      356.457        0.291        0.045       67.713        8.356        0.015      340.009       13.735      861.125
10/27/2014  16:14:00      120.731       82.659       11.792       35.792       29.744       29.843     1281.060      884.733      890.578        1.230        0.153      146.316       16.026        0.012      340.087       13.865      861.122
10/27/2014  16:15:00        6.942       58.452      -16.990       39.627       51.232       21.735     1570.311     2624.669      472.392        0.421        0.233       58.862       18.508        0.099      340.052       13.806      861.115
10/27/2014  16:16:00       29.179       77.672      -10.164       48.405       45.094       35.982     2343.043     2033.472     1294.677        0.633        0.284       82.972       28.771        0.120      340.150       13.972      861.105
10/27/2014  16:17:00       97.787       79.449       13.402       65.534       44.778       46.024     4294.662     2005.098     2118.164        1.223        0.421      125.994       31.022        0.061      340.170       14.004      861.100
10/27/2014  16:18:00      169.240      125.388       23.549       80.738       53.217       44.301     6518.568     2832.072     1962.587        2.811        0.566      210.629       23.034        0.012      340.101       13.885      861.098
10/27/2014  16:19:00      175.057       83.672       26.551       68.186       57.940       41.570     4649.279     3357.026     1728.026        2.404        0.487      194.026       39.375        0.041      340.038       13.782      861.095
10/27/2014  16:20:00      108.315       83.225       -6.502       81.672       56.698       46.692     6670.359     3214.677     2180.135        1.538        0.603      136.596       30.596        0.050      340.054       13.809      861.118
10/27/2014  16:21:00       31.158       86.227        0.755       64.393       68.597       44.744     4146.518     4705.565     2002.014        0.963        0.543       91.684       37.386        0.166      340.067       13.832      861.139
10/27/2014  16:22:00      -44.492       38.888      -16.396       35.538       31.156       20.685     1262.979      970.697      427.852        0.321        0.133       59.091        9.271        0.025      340.106       13.898      861.146
10/27/2014  16:23:00      -91.680      -20.919      -18.532       24.401       27.966       22.473      595.427      782.107      505.047        0.553        0.094       94.036       10.395        0.012      340.132       13.942      861.118
10/27/2014  16:24:00       15.935       14.239       19.572       42.422       40.864       22.132     1799.657     1669.901      489.815        0.240        0.198       21.370       16.005        0.561      340.228       14.104      861.099
10/27/2014  16:25:00      -40.710       32.123       -5.403       33.196       27.294       22.236     1101.958      744.958      494.444        0.253        0.117       51.858       18.165        0.123      340.353       14.314      861.101
10/27/2014  16:26:00      -50.390       69.623      -20.263       75.661       60.393       30.092     5724.606     3647.267      905.535        0.904        0.514       85.945       26.876        0.098      340.373       14.347      861.113
10/27/2014  16:27:00      -18.019      164.890      -23.424       38.489       36.428       23.418     1481.386     1327.030      548.380        1.571        0.168      165.871       18.768        0.013      340.220       14.091      861.134
10/27/2014  16:28:00      -28.160       80.382       -2.084       36.324       40.984       22.174     1319.423     1679.676      491.706        0.537        0.175       85.172       25.637        0.091      340.376       14.355      861.152
10/27/2014  16:29:00        6.162      101.797       -8.047       36.283       25.567       26.675     1316.449      653.654      711.536        0.657        0.134      101.983       18.351        0.032      340.194       14.046      861.159
10/27/2014  16:30:00       56.366       77.704       12.177       86.154       35.519       29.509     7422.491     1261.622      870.808        0.946        0.478       95.995       26.827        0.078      340.299       14.224      861.160
10/27/2014  16:31:00       83.758      125.984      -13.821       62.878       79.638       52.288     3953.646     6342.288     2734.073        1.805        0.652      151.286       49.478        0.107      340.308       14.237      861.169
10/27/2014  16:32:00       54.799       45.610        2.983       52.125       52.189       31.423     2717.005     2723.716      987.387        0.576        0.321       71.296       21.873        0.094      340.254       14.148      861.190
10/27/2014  16:33:00       61.598       26.688        8.671       35.148       21.118       20.517     1235.374      445.954      420.954        0.334        0.105       67.131        9.511        0.020      340.271       14.174      861.212
10/27/2014  16:34:00       70.147       62.817        2.675       25.604       28.708       24.387      655.562      824.160      594.734        0.547        0.104       94.163        9.778        0.011      340.311       14.245      861.220
10/27/2014  16:35:00       97.961       54.987       25.965       62.903       49.522       38.067     3956.768     2452.443     1449.089        1.057        0.393      112.338       25.487        0.051      340.351       14.311      861.214
10/27/2014  16:36:00       61.010       51.248        9.433       42.947       38.623       39.273     1844.457     1491.770     1542.379        0.566        0.244       79.678       27.463        0.119      340.251       14.143      861.207
10/27/2014  16:37:00       92.809       86.306        5.529       47.431       50.957       39.332     2249.711     2596.647     1546.996        1.124        0.320      126.737       32.585        0.066      340.425       14.436      861.194
10/27/2014  16:38:00      142.704      103.512       23.046       72.030       55.873       44.084     5188.334     3121.763     1943.416        2.093        0.513      176.292       31.567        0.032      340.307       14.234      861.194
10/27/2014  16:39:00      142.700       84.726       -0.236       75.046       54.211       40.171     5631.856     2938.825     1613.677        1.886        0.509      165.957       27.558        0.028      340.189       14.036      861.198
10/27/2014  16:40:00       22.604       37.728       17.758       45.142       41.254       31.187     2037.804     1701.887      972.617        0.348        0.236       43.981       23.971        0.297      340.240       14.125      861.211
10/27/2014  16:41:00       48.697       14.621       41.387       64.729       68.916       48.368     4189.855     4749.467     2339.491        0.779        0.564       50.844       31.689        0.388      340.279       14.190      861.212
10/27/2014  16:42:00       48.093       84.847       88.949       57.491       45.832       48.534     3305.255     2100.607     2355.559        1.259        0.388       97.529       41.883        0.184      339.957       13.647      861.214
10/27/2014  16:43:00       69.908       77.152       68.112       80.373       60.339       41.550     6459.781     3640.764     1726.400        1.365        0.591      104.113       31.646        0.092      340.132       13.941      861.228
10/27/2014  16:44:00       40.230       34.792       52.852       54.095       48.699       46.937     2926.268     2371.631     2203.064        0.656        0.375       53.187       47.766        0.807      340.070       13.837      861.236
10/27/2014  16:45:00       29.881       39.175       54.603       53.477       52.472       35.108     2859.752     2753.282     1232.550        0.613        0.342       49.271       30.094        0.373      340.265       14.165      861.244
10/27/2014  16:46:00       -7.490       72.320       90.367       37.308       34.147       34.100     1391.910     1166.020     1162.827        0.859        0.186       72.707       28.939        0.158      340.123       13.927      861.249
10/27/2014  16:47:00      122.452      104.631       30.749       83.810       45.375       53.045     7024.115     2058.870     2813.788        1.939        0.595      161.065       48.097        0.089      340.245       14.131      861.262
10/27/2014  16:48:00      125.527       69.781       16.087       68.714       64.557       51.084     4721.622     4167.620     2609.555        1.619        0.575      143.619       41.772        0.085      340.289       14.206      861.267
10/27/2014  16:49:00      124.614      100.995       28.066       60.893       47.134       36.915     3707.958     2221.588     1362.752        1.690        0.365      160.401       28.498        0.032      340.249       14.138      861.282
10/27/2014  16:50:00      176.459      143.285       -1.479       68.885       43.142       34.481     4745.101     1861.213     1188.961        2.973        0.390      227.307       30.836        0.018      340.167       13.997      861.293
10/27/2014  16:51:00      122.946       79.774       16.075       56.576       45.981       45.719     3200.842     2114.269     2090.236        1.457        0.370      146.560       32.984        0.051      340.264       14.165      861.300
10/27/2014  16:52:00      122.164       87.603       26.288       44.886       38.610       38.411     2014.734     1490.733     1475.379        1.413        0.249      150.328       16.663        0.012      340.331       14.278      861.310
10/27/2014  16:53:00       62.516       25.911       27.663       67.793       37.281       42.532     4595.832     1389.848     1809.006        0.657        0.390       67.672       36.265        0.287      340.293       14.214      861.313
10/27/2014  16:54:00      110.469       63.368       13.819       64.862       66.117       49.311     4207.109     4371.461     2431.572        1.371        0.551      127.353       24.557        0.037      340.322       14.261      861.321
10/27/2014  16:55:00      180.041      119.504       24.832       69.007       51.902       49.406     4762.004     2693.843     2440.916        2.860        0.495      216.092       25.623        0.014      340.245       14.129      861.322
10/27/2014  16:56:00      169.826      134.728        5.768       76.048       54.856       53.897     5783.292     3009.169     2904.910        2.936        0.585      216.778       36.542        0.028      340.101       13.885      861.333
10/27/2014  16:57:00      102.439       64.587        4.494       45.134       37.607       27.163     2037.052     1414.250      737.823        0.944        0.209      121.101       10.599        0.008      340.103       13.892      861.333
10/27/2014  16:58:00       64.198       31.019       15.027       62.134       33.130       22.162     3860.606     1097.592      491.169        0.538        0.272       71.299       15.643        0.048      340.096       13.882      861.322
10/27/2014  16:59:00       72.152       51.382       27.263       55.474       32.271       25.603     3077.377     1041.400      655.516        0.668        0.239       88.578       24.081        0.074      340.186       14.032      861.313
10/27/2014  17:00:00       95.498       63.129       12.780       30.271       28.355       28.688      916.363      804.016      822.990        0.791        0.127      114.477       18.405        0.026      340.135       13.945      861.302
10/27/2014  17:01:00       23.260       40.226        7.041       30.003       50.387       21.609      900.179     2538.870      466.934        0.306        0.195       46.466       23.828        0.263      340.194       14.047      861.284
10/27/2014  17:02:00       40.269       38.543       10.563       43.552       46.926       28.262     1896.771     2202.041      798.731        0.406        0.245       55.742       26.491        0.226      340.240       14.125      861.283
10/27/2014  17:03:00       91.799       59.086       44.286      112.856       50.983       49.750    12736.451     2599.258     2475.100        1.584        0.891      109.171       50.750        0.216      340.241       14.125      861.281
10/27/2014  17:04:00       82.483       72.142       55.014       72.560       59.017       62.531     5264.956     3483.047     3910.109        1.384        0.633      109.581       58.178        0.282      340.123       13.925      861.280
10/27/2014  17:05:00      124.384       43.029       30.745       67.314       67.904       44.328     4531.234     4610.959     1964.959        1.469        0.555      131.616       46.002        0.122      339.943       13.623      861.285
10/27/2014  17:06:00      117.551       67.409       37.303       57.095       44.399       50.175     3259.861     1971.307     2517.507        1.375        0.387      135.508       31.237        0.053      339.919       13.582      861.290
10/27/2014  17:07:00       88.380       73.862       56.496       60.984       44.425       35.552     3718.992     1973.550     1263.942        1.171        0.348      115.181       37.172        0.104      339.890       13.533      861.287
10/27/2014  17:08:00       73.625       29.573       41.976       60.970       44.695       33.221     3717.316     1997.655     1103.656        0.744        0.341       79.342       36.988        0.217      339.879       13.514      861.278
10/27/2014  17:09:00       18.346       50.946       42.640       26.625       32.536       23.120      708.874     1058.583      534.534        0.353        0.115       54.149       10.358        0.037      340.134       13.944      861.269
10/27/2014  17:10:00       47.128       55.247       39.648       52.389       29.487       22.733     2744.650      869.493      516.803        0.549        0.207       72.617       17.357        0.057      340.100       13.888      861.262
10/27/2014  17:11:00       64.756       60.709       44.025       42.437       33.748       29.626     1800.883     1138.910      877.679        0.682        0.191       88.764       23.991        0.073      340.141       13.957      861.255
10/27/2014  17:12:00      113.117       61.429       31.330       46.228       48.965       35.698     2137.042     2397.555     1274.345        1.168        0.290      128.720       18.637        0.021      340.180       14.022      861.251
10/27/2014  17:13:00      106.575       56.542       21.430       37.740       39.430       31.492     1424.304     1554.689      991.717        0.949        0.199      120.645       23.444        0.038      340.128       13.933      861.258
10/27/2014  17:14:00       80.901       68.513       21.055       93.599       59.374       28.763     8760.834     3525.226      827.289        1.240        0.656      106.014       15.085        0.020      340.153       13.976      861.256
10/27/2014  17:15:00      197.824       98.956       19.392       54.033       66.708       39.875     2919.563     4449.901     1590.014        2.913        0.448      221.194       17.159        0.006      340.171       14.003      861.247
10/27/2014  17:16:00       53.439       75.896       62.600       55.377       39.913       37.396     3066.616     1593.046     1398.471        0.930        0.303       92.822       15.410        0.028      340.216       14.084      861.235
10/27/2014  17:17:00       78.974       68.685       60.481       78.699       42.569       51.358     6193.513     1812.124     2637.627        1.263        0.532      104.664       51.410        0.241      340.148       13.968      861.227
10/27/2014  17:18:00       89.313       70.851       16.391       57.398       37.774       39.918     3294.567     1426.876     1593.440        0.979        0.316      114.003       32.293        0.080      340.097       13.884      861.214
10/27/2014  17:19:00      112.372       88.292       59.201       53.960       54.908       42.046     2911.731     3014.891     1767.899        1.581        0.385      142.909       29.155        0.042      340.129       13.938      861.205
10/27/2014  17:20:00      116.832       45.778       18.285       62.350       42.355       40.248     3887.539     1793.970     1619.915        1.169        0.365      125.481       30.059        0.057      340.009       13.734      861.222
10/27/2014  17:21:00       73.869       66.754       55.870       48.443       34.812       31.800     2346.748     1211.891     1011.238        0.880        0.228       99.563       21.662        0.047      340.076       13.847      861.233
10/27/2014  17:22:00      117.265       61.621       23.661       64.572       48.064       34.302     4169.547     2310.188     1176.597        1.288        0.383      132.470       17.975        0.018      340.003       13.725      861.248
10/27/2014  17:23:00       41.245       37.160       27.683       42.700       39.172       27.121     1823.328     1534.435      735.572        0.397        0.205       55.516       21.005        0.143      339.999       13.717      861.264
10/27/2014  17:24:00       87.646       -7.754        5.170       47.235       34.010       35.627     2231.176     1156.650     1269.304        0.621        0.233       87.989       29.484        0.112      339.857       13.479      861.275
10/27/2014  17:25:00      111.568       65.523       35.776       65.805       48.673       40.724     4330.252     2369.052     1658.433        1.319        0.418      129.386       34.109        0.069      339.952       13.637      861.280
10/27/2014  17:26:00      149.350       63.333       12.238       55.027       49.909       42.272     3027.922     2490.916     1786.919        1.688        0.365      162.223       16.946        0.011      340.015       13.744      861.290
10/27/2014  17:27:00       78.872       16.704       28.675       56.473       37.292       29.994     3189.239     1390.659      899.641        0.640        0.274       80.622       26.286        0.106      339.850       13.466      861.289
10/27/2014  17:28:00       76.393       50.105       -2.806       35.215       26.963       24.228     1240.099      727.025      586.984        0.545        0.128       91.359       14.906        0.027      339.930       13.600      861.294
10/27/2014  17:29:00       56.514       54.560        6.128       45.771       36.194       32.305     2094.969     1310.022     1043.584        0.533        0.222       78.553       24.273        0.095      340.007       13.730      861.291
10/27/2014  17:30:00       89.537       56.605        9.761       27.585       29.340       30.275      760.951      860.843      916.570        0.693        0.127      105.929       21.923        0.043      340.024       13.761      861.291
10/27/2014  17:31:00       56.204       42.173        5.595       41.697       20.931       20.959     1738.615      438.098      439.277        0.379        0.131       70.267       13.688        0.038      340.032       13.772      861.294
10/27/2014  17:32:00       46.670       29.400       -1.672       47.492       28.678       19.981     2255.487      822.456      399.239        0.326        0.174       55.158       17.983        0.106      340.074       13.843      861.295
10/27/2014  17:33:00       24.226       44.200       -2.661       29.457       31.543       18.042      867.703      994.971      325.501        0.237        0.109       50.404       14.636        0.084      340.102       13.890      861.313
10/27/2014  17:34:00       54.242       58.229       -4.860       50.149       37.518       32.646     2514.950     1407.628     1065.763        0.567        0.249       79.580       22.609        0.081      340.101       13.890      861.345
10/27/2014  17:35:00       33.410       34.464       10.359       42.044       25.040       23.816     1767.666      627.000      567.209        0.269        0.148       48.000       19.171        0.160      340.082       13.859      861.374
10/27/2014  17:36:00       59.219       31.730       11.369       46.819       27.707       25.237     2192.007      767.670      636.888        0.412        0.180       67.184       13.876        0.043      340.069       13.835      861.372
10/27/2014  17:37:00      105.737       51.539       18.997       40.233       25.563       26.504     1618.723      653.479      702.462        0.859        0.149      117.629       21.479        0.033      340.073       13.844      861.375
10/27/2014  17:38:00      102.791       39.805       19.001       55.149       43.084       35.757     3041.388     1856.271     1278.594        0.934        0.309      110.229       21.956        0.040      339.991       13.703      861.385
10/27/2014  17:39:00       99.464       34.819       28.752       62.832       49.753       36.776     3947.827     2475.331     1352.499        0.985        0.389      105.382       31.765        0.091      339.908       13.565      861.386
10/27/2014  17:40:00       95.220       41.602       19.527       60.200       41.492       37.324     3624.054     1721.588     1393.111        0.896        0.337      103.912       31.369        0.091      339.991       13.705      861.390
10/27/2014  17:41:00      145.497       85.289       17.772       70.636       50.622       45.233     4989.403     2562.544     2046.010        1.918        0.480      168.653       36.727        0.047      339.995       13.709      861.399
10/27/2014  17:42:00      124.216       59.401       29.238       53.023       37.564       42.546     2811.397     1411.020     1810.137        1.292        0.302      137.688       34.213        0.062      340.039       13.784      861.399
10/27/2014  17:43:00       74.761       78.515       36.321       57.799       32.245       30.918     3340.752     1039.748      955.911        0.920        0.267      108.415       30.212        0.078      339.957       13.645      861.384
10/27/2014  17:44:00       91.834       56.439       19.598       52.182       34.877       27.858     2722.912     1216.429      776.045        0.836        0.236      107.791       28.268        0.069      340.020       13.751      861.379
10/27/2014  17:45:00       91.446       83.183       -2.067       66.332       67.267       42.445     4399.888     4524.839     1801.557        1.300        0.536      123.619       36.180        0.086      339.983       13.690      861.388
10/27/2014  17:46:00      137.073       95.334       20.033       69.432       42.783       33.441     4820.771     1830.373     1118.302        1.802        0.388      166.966       31.080        0.035      339.995       13.710      861.395
10/27/2014  17:47:00       59.689       91.227       -8.657       51.624       41.814       31.888     2665.016     1748.425     1016.816        0.869        0.272      109.019       23.919        0.048      339.995       13.712      861.401
10/27/2014  17:48:00       22.976       44.898       -3.248       33.134       36.382       29.879     1097.836     1323.619      892.752        0.293        0.166       50.436       19.026        0.142      339.969       13.665      861.406
10/27/2014  17:49:00       47.036       42.767        4.293       42.775       41.048       31.889     1829.688     1684.975     1016.931        0.429        0.227       63.573       22.988        0.131      339.957       13.647      861.415
10/27/2014  17:50:00      156.711      122.402       16.419       98.058       51.911       56.976     9615.420     2694.715     3246.214        2.768        0.778      198.848       43.197        0.047      339.941       13.618      861.417
10/27/2014  17:51:00      151.400      111.653        8.667       68.345       51.311       46.570     4670.973     2632.790     2168.810        2.247        0.474      188.118       23.214        0.015      339.941       13.618      861.407
10/27/2014  17:52:00      152.389      112.433       18.896       43.518       33.937       33.234     1893.843     1151.726     1104.476        2.018        0.208      189.377       25.963        0.019      339.930       13.600      861.416
10/27/2014  17:53:00      144.870      104.039        9.969       70.232       57.785       48.638     4932.467     3339.156     2365.631        2.127        0.532      178.358       33.285        0.035      339.916       13.575      861.404
10/27/2014  17:54:00      115.216       56.874       13.442       59.052       51.218       34.951     3487.119     2623.300     1221.556        1.201        0.367      128.489       13.299        0.011      339.916       13.576      861.402
10/27/2014  17:55:00       98.033       37.140       15.409       54.783       38.504       28.141     3001.201     1482.593      791.917        0.825        0.264      104.832       24.715        0.056      339.879       13.514      861.412
10/27/2014  17:56:00       79.853       44.179       17.941       68.147       52.648       35.334     4644.024     2771.843     1248.507        0.866        0.433       91.260       18.763        0.042      339.851       13.469      861.411
10/27/2014  17:57:00      159.059       83.557       23.098       48.345       30.375       43.037     2337.258      922.624     1852.219        1.896        0.256      179.671       16.517        0.008      339.871       13.498      861.419
10/27/2014  17:58:00       82.975       71.998       11.535       42.694       41.780       27.953     1822.814     1745.602      781.360        0.827        0.217      109.857       23.668        0.046      339.838       13.445      861.428
10/27/2014  17:59:00       58.452      113.499       -5.966       72.019       65.974       51.165     5186.740     4352.518     2617.845        1.424        0.608      127.666       43.621        0.117      339.850       13.465      861.438
10/27/2014  18:00:00      106.228       77.169       15.420       65.093       40.255       40.747     4237.150     1620.492     1660.291        1.250        0.376      131.299       26.315        0.040      339.827       13.427      861.448
10/27/2014  18:01:00      132.253      125.593        5.457       82.465       61.064       47.451     6800.467     3728.810     2251.621        2.303        0.639      182.385       37.167        0.042      339.833       13.433      861.452
10/27/2014  18:02:00      137.872       96.440       23.371       70.012       48.619       41.493     4901.674     2363.767     1721.665        1.892        0.449      168.253       21.219        0.016      339.780       13.347      861.461
10/27/2014  18:03:00      121.852       95.332       20.038       68.621       50.933       47.864     4708.886     2594.125     2290.944        1.696        0.480      154.713       32.845        0.045      339.762       13.317      861.474
10/27/2014  18:04:00      165.099      123.558        4.767       78.297       63.783       44.188     6130.485     4068.260     1952.605        2.735        0.608      206.214       28.859        0.020      339.763       13.319      861.472
10/27/2014  18:05:00       97.544       70.844        7.936       73.380       42.904       45.063     5384.608     1840.739     2030.654        1.192        0.463      120.556       29.440        0.060      339.728       13.260      861.486
10/27/2014  18:06:00      100.442       82.530        9.388       78.648       53.006       40.202     6185.582     2809.625     1616.196        1.380        0.531      129.999       22.165        0.029      339.689       13.193      861.496
10/27/2014  18:07:00      139.876      107.641       12.017       72.222       60.663       41.150     5216.056     3679.980     1693.311        2.094        0.529      176.499       32.497        0.034      339.723       13.250      861.516
10/27/2014  18:08:00      115.343       91.425       11.341       75.936       51.405       34.966     5766.327     2642.426     1222.593        1.571        0.482      147.182       24.309        0.027      339.706       13.222      861.529
10/27/2014  18:09:00      106.051       95.981       10.957       77.306       59.133       46.067     5976.224     3496.691     2122.186        1.608        0.580      143.035       32.858        0.053      339.684       13.184      861.535
10/27/2014  18:10:00      105.844       85.763       15.088       74.406       42.596       40.848     5536.211     1814.418     1668.596        1.390        0.451      136.229       26.674        0.038      339.641       13.113      861.548
10/27/2014  18:11:00       85.344       91.126        6.105       75.209       53.009       40.382     5656.437     2809.922     1630.730        1.286        0.505      124.850       32.696        0.069      339.634       13.102      861.544
10/27/2014  18:12:00      157.549       79.101       28.708       74.218       53.793       48.072     5508.243     2893.635     2310.930        2.131        0.536      176.291       33.844        0.037      339.621       13.077      861.549
10/27/2014  18:13:00      151.814       96.824       14.663       58.099       56.460       44.268     3375.543     3187.684     1959.679        2.058        0.426      180.062       22.932        0.016      339.587       13.022      861.556
10/27/2014  18:14:00      131.781       66.140       20.159       65.506       51.084       41.682     4291.056     2609.591     1737.393        1.539        0.432      147.447       34.398        0.054      339.531       12.927      861.567
10/27/2014  18:15:00      160.712       89.344       48.534      107.374       62.134       52.054    11529.226     3860.691     2709.607        2.713        0.905      183.877       41.807        0.052      339.524       12.915      861.573
10/27/2014  18:16:00      134.765       53.170       16.618      100.901       62.271       47.248    10181.001     3877.691     2232.346        1.877        0.815      144.875       36.762        0.064      339.519       12.905      861.586
10/27/2014  18:17:00      118.605       87.780        6.278       56.893       42.382       42.891     3236.823     1796.209     1839.626        1.434        0.344      147.555       26.789        0.033      339.509       12.890      861.605
10/27/2014  18:18:00      140.793       82.668       23.024       78.810       64.584       48.444     6210.967     4171.149     2346.797        1.996        0.636      163.269       27.552        0.028      339.497       12.870      861.603
10/27/2014  18:19:00      136.700       89.907       28.155       70.569       54.363       38.778     4979.949     2955.319     1503.732        1.850        0.472      163.616       24.618        0.023      339.473       12.827      861.599
10/27/2014  18:20:00      142.258       78.018       28.640       73.228       51.480       40.336     5362.355     2650.150     1627.018        1.839        0.482      162.248       33.873        0.044      339.426       12.751      861.603
10/27/2014  18:21:00      164.659      107.342       32.439       55.258       53.710       42.829     3053.410     2884.771     1834.291        2.373        0.389      196.557       20.356        0.011      339.456       12.798      861.609
10/27/2014  18:22:00       90.619       88.181       13.753       59.755       43.274       39.933     3570.664     1872.679     1594.664        1.161        0.352      126.443       29.209        0.053      339.405       12.715      861.627
10/27/2014  18:23:00      116.218       71.378       20.993       58.808       36.369       28.869     3458.411     1322.684      833.427        1.233        0.281      136.387       26.006        0.036      339.396       12.700      861.647
10/27/2014  18:24:00      125.974       90.912       15.776       59.455       50.372       31.354     3534.927     2537.355      983.072        1.572        0.353      155.353       20.288        0.017      339.406       12.716      861.669
10/27/2014  18:25:00       79.807       72.723        1.880       42.794       37.477       37.626     1831.304     1404.518     1415.706        0.816        0.233      107.971       26.750        0.061      339.328       12.586      861.688
10/27/2014  18:26:00       94.799       51.401       14.616       40.417       28.255       31.927     1633.530      798.341     1019.352        0.765        0.173      107.838        8.908        0.007      339.303       12.543      861.698
10/27/2014  18:27:00      120.397       53.679       13.893       39.650       28.891       25.844     1572.098      834.662      667.896        1.032        0.154      131.821       14.557        0.012      339.326       12.582      861.707
10/27/2014  18:28:00       92.597       44.319       16.902       59.419       40.359       27.479     3530.595     1628.829      755.097        0.837        0.296      102.656       13.911        0.018      339.234       12.426      861.705
10/27/2014  18:29:00      125.615       67.808       22.712       56.465       37.479       34.546     3188.247     1404.658     1193.431        1.334        0.289      142.748       21.493        0.023      339.280       12.505      861.720
10/27/2014  18:30:00      119.411       65.778       14.741       40.271       40.145       29.574     1621.775     1611.655      874.641        1.145        0.205      136.330       18.572        0.019      339.262       12.476      861.736
10/27/2014  18:31:00      104.681       50.924        5.774       47.160       42.524       27.818     2224.057     1808.333      773.859        0.919        0.240      116.411       17.546        0.023      339.232       12.425      861.753
10/27/2014  18:32:00      119.764       66.764       18.558       67.069       43.204       28.652     4498.298     1866.561      820.950        1.316        0.359      137.116       20.714        0.023      339.267       12.483      861.765
10/27/2014  18:33:00      111.734       60.371       11.260       53.505       38.962       31.284     2862.837     1518.055      978.705        1.081        0.268      127.001       10.726        0.007      339.222       12.409      861.773
10/27/2014  18:34:00      100.588       78.790       13.388       43.244       34.655       31.708     1870.021     1201.004     1005.406        1.029        0.204      127.772       22.810        0.032      339.195       12.362      861.787
10/27/2014  18:35:00      127.244       88.626       13.141       54.989       38.459       39.779     3023.778     1479.104     1582.400        1.515        0.304      155.067       24.204        0.024      339.180       12.335      861.784
10/27/2014  18:36:00       77.837       57.743        4.230       53.898       32.849       31.864     2905.031     1079.066     1015.327        0.720        0.250       96.916       18.228        0.035      339.158       12.299      861.784
10/27/2014  18:37:00      118.498       51.536       19.321       57.572       39.891       33.274     3314.546     1591.318     1107.167        1.154        0.301      129.219       24.100        0.035      339.146       12.277      861.763
10/27/2014  18:38:00      102.517       69.866        7.159       39.277       39.401       41.003     1542.703     1552.449     1681.239        1.011        0.239      124.060       14.822        0.014      339.115       12.227      861.740
10/27/2014  18:39:00      104.640       60.327       18.993       35.303       31.219       22.145     1246.319      974.610      490.387        0.883        0.136      120.784        9.858        0.007      339.097       12.198      861.731
10/27/2014  18:40:00       72.798       26.789       12.759       35.484       39.484       24.749     1259.112     1559.019      612.514        0.480        0.172       77.571       23.573        0.092      339.041       12.103      861.718
10/27/2014  18:41:00       92.869       46.894       12.264       59.056       45.271       34.797     3487.625     2049.442     1210.846        0.886        0.337      104.037       27.136        0.068      339.077       12.163      861.726
10/27/2014  18:42:00       79.984       62.881       29.993       35.078       44.363       33.640     1230.456     1968.038     1131.628        0.779        0.217      101.743       21.526        0.045      339.031       12.085      861.734
10/27/2014  18:43:00      124.405       67.763       15.234       59.009       55.895       41.534     3482.121     3124.218     1725.110        1.431        0.417      141.664       36.606        0.067      339.067       12.146      861.755
10/27/2014  18:44:00      105.568       61.780       13.505       39.380       32.170       31.087     1550.803     1034.912      966.374        0.935        0.178      122.317       19.800        0.026      339.047       12.114      861.781
10/27/2014  18:45:00      103.632       57.585       10.881       32.389       39.517       28.438     1049.022     1561.591      808.700        0.880        0.171      118.557       19.677        0.028      339.008       12.049      861.807
10/27/2014  18:46:00       45.519       33.185        2.667       35.739       34.250       22.216     1277.305     1173.065      493.552        0.306        0.147       56.331       18.905        0.113      338.992       12.019      861.829
10/27/2014  18:47:00       50.570       49.456        5.253       38.104       26.548       24.404     1451.920      704.816      595.539        0.389        0.138       70.733       16.352        0.053      338.987       12.011      861.864
10/27/2014  18:48:00       37.301       53.355        3.518       43.370       36.993       31.037     1880.954     1368.482      963.277        0.423        0.211       65.101       22.873        0.123      338.959       11.964      861.892
10/27/2014  18:49:00       35.639      108.779       -6.487       39.146       45.200       28.496     1532.394     2043.009      812.034        0.877        0.219      114.469       26.353        0.053      339.001       12.034      861.915
10/27/2014  18:50:00       38.010      111.045      -15.008       25.364       44.534       22.187      643.351     1983.257      492.269        0.856        0.156      117.370       21.252        0.033      338.992       12.022      861.932
10/27/2014  18:51:00       48.655       74.673       -4.335       27.431       44.679       31.698      752.441     1996.255     1004.777        0.586        0.188       89.125       32.525        0.133      338.975       11.991      861.939
10/27/2014  18:52:00       43.292      123.936      -22.736       24.873       28.381       20.346      618.683      805.460      413.965        0.979        0.092      131.280       19.106        0.021      338.982       12.003      861.959
10/27/2014  18:53:00       44.455       67.037        3.590       34.856       38.362       24.821     1214.967     1471.616      616.062        0.489        0.165       80.437       22.882        0.081      338.945       11.941      861.971
10/27/2014  18:54:00       40.592       71.395       -8.482       28.552       37.905       22.095      815.226     1436.788      488.188        0.478        0.137       82.127       18.130        0.049      338.932       11.921      861.997
10/27/2014  18:55:00       27.299      134.703      -12.086       37.510       42.672       32.085     1407.035     1820.869     1029.431        1.165        0.213      137.442       28.313        0.042      338.913       11.888      862.003
10/27/2014  18:56:00       60.861      107.678       -1.035       57.200       64.736       42.226     3271.891     4190.728     1783.046        1.227        0.462      123.687       36.247        0.086      338.935       11.924      862.010
10/27/2014  18:57:00      108.471       64.697       27.832       50.101       40.325       35.018     2510.074     1626.131     1226.250        1.104        0.268      126.300       23.125        0.034      338.933       11.920      862.012
10/27/2014  18:58:00       64.876       82.484        0.029       49.547       30.496       32.500     2454.950      930.027     1056.236        0.773        0.222      104.941       24.130        0.053      338.880       11.833      862.018
10/27/2014  18:59:00       42.285       80.371       -1.331       29.626       50.553       31.979      877.714     2555.585     1022.663        0.635        0.223       90.816       30.126        0.110      338.845       11.773      862.032
10/27/2014  19:00:00       47.461      103.451      -13.304       33.427       47.856       29.081     1117.372     2290.238      845.724        0.869        0.213      113.818       27.390        0.058      338.883       11.837      862.050
10/27/2014  19:01:00       25.597      151.473      -21.685       37.904       54.088       27.689     1436.730     2925.528      766.663        1.460        0.256      153.620       26.732        0.030      338.847       11.776      862.062
10/27/2014  19:02:00       44.438      118.956      -11.456       32.607       45.360       31.396     1063.193     2057.489      985.700        1.018        0.205      126.985       27.694        0.048      338.786       11.675      862.066
10/27/2014  19:03:00       42.483      100.904        3.969       35.759       70.835       36.447     1278.686     5017.585     1328.366        0.981        0.381      109.482       37.807        0.119      338.777       11.659      862.074
10/27/2014  19:04:00       73.964       67.548        2.632       51.533       37.141       42.493     2655.643     1379.477     1805.635        0.794        0.292      100.167       26.340        0.069      338.795       11.688      862.086
10/27/2014  19:05:00       79.868      105.568        5.430       49.996       59.549       45.144     2499.592     3546.024     2037.944        1.282        0.404      132.376       41.789        0.100      338.853       11.786      862.099
10/27/2014  19:06:00       58.276       69.720        6.732       39.275       38.055       33.781     1542.521     1448.184     1141.169        0.622        0.207       90.868       27.957        0.095      338.812       11.718      862.119
10/27/2014  19:07:00       41.322       64.857       -6.052       28.183       38.822       26.464      794.286     1507.129      700.337        0.448        0.150       76.902       17.991        0.055      338.770       11.647      862.136
10/27/2014  19:08:00       28.484       87.716       -9.249       38.397       43.088       28.398     1474.298     1856.546      806.446        0.636        0.207       92.225       30.302        0.108      338.796       11.691      862.148
10/27/2014  19:09:00       32.736       95.456      -11.500       38.606       45.580       37.890     1490.438     2077.580     1435.619        0.766        0.250      100.914       29.143        0.083      338.766       11.642      862.163
10/27/2014  19:10:00        4.980      147.221      -18.576       25.679       29.858       18.236      659.391      891.498      332.538        1.196        0.094      147.305       16.614        0.013      338.802       11.702      862.169
10/27/2014  19:11:00       29.167       90.720       -6.783       34.597       59.785       30.206     1196.923     3574.284      912.408        0.740        0.284       95.293       36.379        0.146      338.729       11.579      862.185
10/27/2014  19:12:00       28.748      154.389      -28.557       27.954       37.762       17.929      781.412     1425.944      321.453        1.400        0.126      157.043       11.571        0.005      338.764       11.638      862.196
10/27/2014  19:13:00        7.087      130.610      -16.754       22.424       31.113       24.270      502.844      968.038      589.014        0.972        0.103      130.802       18.285        0.020      338.731       11.584      862.208
10/27/2014  19:14:00      -12.318      109.691      -15.868       23.227       27.945       14.933      539.510      780.931      222.987        0.699        0.077      110.381        9.996        0.008      338.781       11.666      862.226
10/27/2014  19:15:00      -17.318       98.616      -13.582       21.477       32.299       16.686      461.269     1043.232      278.428        0.600        0.089      100.125       15.050        0.023      338.874       11.822      862.236
10/27/2014  19:16:00      -23.944      122.661      -16.585       25.110       54.020       16.342      630.487     2918.172      267.054        0.985        0.191      124.976       21.108        0.029      338.853       11.786      862.253
10/27/2014  19:17:00      -51.397       47.865       -6.589       30.569       35.116       19.187      934.474     1233.161      368.139        0.376        0.127       70.233       18.926        0.073      338.797       11.694      862.267
10/27/2014  19:18:00      -77.869       64.824      -19.081       24.744       48.381       16.082      612.261     2340.674      258.647        0.692        0.161      101.320       16.740        0.027      338.809       11.713      862.266
10/27/2014  19:19:00      -83.209       16.369       -9.034       17.736       18.603       14.974      314.571      346.081      224.231        0.408        0.044       84.803       12.231        0.021      338.749       11.613      862.278
10/27/2014  19:20:00     -112.519        0.470      -13.542       20.922       26.270       16.537      437.724      690.100      273.460        0.712        0.070      112.520       13.662        0.015      338.659       11.461      862.282
10/27/2014  19:21:00      -74.191      -16.618      -10.414       29.097       23.104       18.942      846.607      533.808      358.811        0.381        0.087       76.030       14.977        0.039      338.610       11.378      862.285
10/27/2014  19:22:00      -79.089       41.742      -18.044       40.726       38.113       16.103     1658.640     1452.607      259.295        0.585        0.169       89.428       16.598        0.034      338.710       11.547      862.289
10/27/2014  19:23:00      -25.549       78.224      -15.045       38.981       54.218       21.459     1519.495     2939.585      460.481        0.596        0.246       82.291       21.665        0.069      338.772       11.651      862.276
10/27/2014  19:24:00      -55.351       72.933      -12.124       30.889       31.293       19.559      954.136      979.236      382.568        0.542        0.116       91.559       16.032        0.031      338.702       11.534      862.266
10/27/2014  19:25:00      -31.886       91.397       -8.538       45.845       32.991       20.050     2101.758     1088.439      401.993        0.652        0.180       96.800       23.403        0.058      338.760       11.631      862.265
10/27/2014  19:26:00      -33.507       65.217       -8.861       27.684       28.140       18.876      766.403      791.866      356.300        0.368        0.096       73.321       14.873        0.041      338.746       11.605      862.266
10/27/2014  19:27:00      -43.574       68.793      -15.200       24.035       29.089       16.475      577.662      846.185      271.419        0.428        0.085       81.432       12.377        0.023      338.782       11.667      862.270
10/27/2014  19:28:00      -57.392       23.082       -6.631       12.976       17.436        9.521      168.389      304.018       90.657        0.222        0.028       61.860        8.066        0.017      338.712       11.550      862.282
10/27/2014  19:29:00      -61.797        6.393       -9.584       27.781       22.744       17.343      771.791      517.309      300.776        0.277        0.079       62.127       17.976        0.084      338.706       11.539      862.291
10/27/2014  19:30:00      -75.900       74.860      -15.889       23.365       43.776       20.242      545.924     1916.296      409.752        0.724        0.144      106.606       15.354        0.021      338.706       11.539      862.302
10/27/2014  19:31:00      -83.406       77.475      -24.682       28.618       22.587       15.873      818.977      510.165      251.968        0.757        0.079      113.838       10.132        0.008      338.726       11.573      862.313
10/27/2014  19:32:00      -83.444       67.889      -17.347       20.290       32.056       16.048      411.700     1027.601      257.523        0.678        0.085      107.572       10.488        0.010      338.681       11.498      862.330
10/27/2014  19:33:00      -46.668       36.201      -13.198       28.881       24.092       15.630      834.100      580.438      244.293        0.266        0.083       59.063       18.646        0.100      338.733       11.585      862.347
10/27/2014  19:34:00      -18.670       68.045       -0.434       48.172       25.069       20.098     2320.506      628.464      403.929        0.417        0.168       70.560       15.855        0.050      338.740       11.596      862.362
10/27/2014  19:35:00        2.284       47.097       -6.873       19.869       11.191       10.963      394.776      125.235      120.194        0.146        0.032       47.153        8.657        0.034      338.631       11.414      862.375
10/27/2014  19:36:00      -35.543       68.288       -9.379       45.893       35.020       13.487     2106.140     1226.426      181.903        0.476        0.176       76.984       14.198        0.034      338.658       11.459      862.376
10/27/2014  19:37:00      -43.225       81.035       -9.410       32.507       41.917       13.946     1056.707     1757.059      194.498        0.577        0.150       91.842       16.529        0.032      338.690       11.513      862.377
10/27/2014  19:38:00      -86.903       26.764       -9.776       23.902       22.264       17.326      571.297      495.680      300.197        0.487        0.068       90.931       15.301        0.028      338.559       11.293      862.384
10/27/2014  19:39:00      -68.407       93.779      -22.697       28.363       26.606       16.375      804.449      707.862      268.146        0.788        0.089      116.078       15.861        0.019      338.558       11.292      862.392
10/27/2014  19:40:00      -36.884      140.906      -15.242       37.550       51.941       22.234     1409.977     2697.905      494.371        1.302        0.230      145.653       24.865        0.029      338.642       11.433      862.404
10/27/2014  19:41:00      -47.803       87.716       -2.923       28.487       26.049       20.075      811.493      678.558      403.016        0.594        0.095       99.896       14.708        0.022      338.637       11.423      862.417
10/27/2014  19:42:00      -11.369      124.459      -10.136       22.525       47.887       21.137      507.383     2293.197      446.774        0.948        0.162      124.977       21.530        0.030      338.577       11.323      862.431
10/27/2014  19:43:00      -33.728       86.103       -9.337       27.191       33.174       20.931      739.341     1100.542      438.108        0.546        0.114       92.473       15.200        0.027      338.583       11.334      862.444
10/27/2014  19:44:00      -66.879       50.173       -8.637       27.948       33.451       22.016      781.074     1118.990      484.695        0.472        0.119       83.607       18.296        0.048      338.544       11.268      862.446
10/27/2014  19:45:00      -82.578       70.321      -29.333       25.119       36.397       15.701      630.952     1324.769      246.523        0.741        0.110      108.463       18.715        0.030      338.547       11.274      862.455
10/27/2014  19:46:00     -103.871       92.007      -29.228       41.329       81.557       29.412     1708.104     6651.523      865.076        1.466        0.461      138.760       41.473        0.089      338.503       11.197      862.449
10/27/2014  19:47:00     -106.920      134.235      -31.983       29.493       28.191       21.045      869.811      794.750      442.873        1.629        0.105      171.613       13.951        0.007      338.466       11.136      862.444
10/27/2014  19:48:00      -71.339       86.100      -19.701       38.604       62.498       26.338     1490.235     3905.977      693.669        0.949        0.304      111.814       36.599        0.107      338.471       11.144      862.437
10/27/2014  19:49:00      -77.419      120.705      -26.558       31.831       39.790       24.494     1013.201     1583.251      599.965        1.223        0.160      143.400       19.160        0.018      338.391       11.010      862.445
10/27/2014  19:50:00      -76.961       84.117      -17.655       35.390       54.973       19.960     1252.439     3022.035      398.400        0.899        0.234      114.012       25.423        0.050      338.429       11.073      862.453
10/27/2014  19:51:00      -69.708      107.559      -19.286       34.190       37.900       20.812     1168.950     1436.386      433.131        0.992        0.152      128.173       17.581        0.019      338.435       11.085      862.457
10/27/2014  19:52:00      -68.446       79.777      -14.913       26.489       28.128       18.007      701.661      791.210      324.255        0.654        0.091      105.115       18.097        0.030      338.403       11.030      862.469
10/27/2014  19:53:00      -58.331       44.465        6.307       51.823       34.006       26.530     2685.579     1156.431      703.858        0.498        0.227       73.346       17.236        0.055      338.335       10.917      862.476
10/27/2014  19:54:00      -37.784       55.279      -13.621       28.513       18.428       14.424      813.015      339.582      208.061        0.301        0.068       66.959       10.164        0.023      338.393       11.014      862.477
10/27/2014  19:55:00      -44.760       74.488      -13.533       31.233       40.614       14.280      975.522     1649.481      203.927        0.528        0.141       86.901        9.372        0.012      338.435       11.085      862.487
10/27/2014  19:56:00      -62.489       61.891      -16.431       29.062       28.409       14.630      844.594      807.057      214.026        0.494        0.093       87.951       13.892        0.025      338.442       11.095      862.504
10/27/2014  19:57:00      -71.013       75.145      -17.973       15.649       16.928       13.311      244.882      286.569      177.176        0.586        0.035      103.390       11.156        0.012      338.449       11.108      862.530
10/27/2014  19:58:00      -72.049       59.916      -18.776       19.242       24.287       14.979      370.268      589.858      224.372        0.516        0.059       93.707       10.807        0.013      338.446       11.103      862.552
10/27/2014  19:59:00      -57.922       29.507       -8.866       23.170       18.647       13.404      536.858      347.719      179.670        0.268        0.053       65.005       12.380        0.036      338.373       10.982      862.548
10/27/2014  20:00:00      -39.014       58.541       -9.569       31.094       47.632       21.514      966.816     2268.760      462.864        0.437        0.185       70.350       22.806        0.105      338.371       10.975      862.549
10/27/2014  20:01:00      -39.708       38.893       -0.624       33.175       30.790       18.035     1100.590      948.013      325.276        0.273        0.119       55.582       16.260        0.086      338.385       11.000      862.549
10/27/2014  20:02:00      -61.960       34.915       -7.043       27.294       35.260       17.218      744.951     1243.246      296.468        0.370        0.114       71.121       11.452        0.026      338.401       11.028      862.559
10/27/2014  20:03:00      -76.365       82.608      -26.797       29.288       36.401       16.330      857.768     1325.062      266.670        0.791        0.122      112.498       19.746        0.031      338.455       11.118      862.579
10/27/2014  20:04:00     -103.455       58.223      -13.181       39.407       28.188       23.018     1552.898      794.583      529.819        0.857        0.144      118.714       18.359        0.024      338.392       11.013      862.594
10/27/2014  20:05:00      -86.741       56.951      -13.191       42.284       32.167       27.090     1787.902     1034.724      733.848        0.725        0.178      103.766       21.119        0.041      338.323       10.895      862.603
10/27/2014  20:06:00      -94.504       86.735      -20.244       40.775       43.906       28.081     1662.571     1927.741      788.557        1.062        0.219      128.273       19.343        0.023      338.332       10.910      862.606
10/27/2014  20:07:00      -86.609      125.253      -30.216       34.941       40.976       27.558     1220.845     1679.017      759.463        1.388        0.183      152.281       22.693        0.022      338.342       10.929      862.615
10/27/2014  20:08:00      -66.333      112.593      -20.410       39.930       43.772       18.407     1594.405     1915.981      338.824        1.067        0.192      130.680       15.638        0.014      338.366       10.968      862.636
10/27/2014  20:09:00      -71.796       53.077      -14.391       36.511       25.320       22.488     1333.040      641.104      505.695        0.533        0.124       89.285       19.282        0.047      338.291       10.842      862.651
10/27/2014  20:10:00      -92.797      108.998      -27.855       28.293       26.663       16.692      800.490      710.942      278.619        1.153        0.090      143.150       14.015        0.010      338.307       10.870      862.666
10/27/2014  20:11:00      -82.531       68.873      -21.914       34.349       39.052       20.889     1179.866     1525.096      436.368        0.759        0.157      107.494       19.995        0.035      338.276       10.818      862.680
10/27/2014  20:12:00      -76.429       52.405      -12.980       30.068       31.099       19.219      904.076      967.141      369.387        0.550        0.112       92.670       15.190        0.027      338.266       10.802      862.686
10/27/2014  20:13:00      -96.439      127.033      -29.839       27.209       26.058       20.900      740.318      678.995      436.792        1.409        0.093      159.492       11.469        0.005      338.303       10.862      862.707
10/27/2014  20:14:00     -108.118       68.142      -26.646       32.369       35.531       17.461     1047.774     1262.420      304.903        0.983        0.131      127.800       16.778        0.017      338.319       10.890      862.726
10/27/2014  20:15:00      -53.504       18.673       -7.645       23.810       20.780       16.969      566.920      431.800      287.946        0.228        0.064       56.669        9.723        0.029      338.204       10.697      862.734
10/27/2014  20:16:00     -109.472       76.775      -30.379       52.154       35.083       21.645     2720.048     1230.807      468.494        1.161        0.221      133.711       24.991        0.035      338.274       10.813      862.730
10/27/2014  20:17:00      -81.111       49.958      -19.656       31.776       41.130       19.019     1009.690     1691.645      361.740        0.626        0.153       95.262       10.558        0.012      338.227       10.735      862.723
10/27/2014  20:18:00     -113.293       89.597      -29.553       45.208       56.186       24.478     2043.791     3156.828      599.151        1.377        0.290      144.440       17.240        0.014      338.231       10.742      862.728
10/27/2014  20:19:00      -58.924       82.780       -8.261       44.171       53.921       38.731     1951.095     2907.479     1500.091        0.837        0.318      101.610       29.615        0.085      338.143       10.594      862.720
10/27/2014  20:20:00      -89.833       90.416      -20.052       59.186       45.315       28.639     3503.009     2053.405      820.175        1.151        0.319      127.456       29.972        0.055      338.189       10.671      862.707
10/27/2014  20:21:00      -94.029      110.040      -20.405       41.377       53.736       28.022     1712.070     2887.605      785.245        1.337        0.269      144.742       26.343        0.033      338.202       10.692      862.697
10/27/2014  20:22:00      -66.405       85.693      -22.071       36.264       33.926       18.298     1315.084     1150.966      334.799        0.752        0.140      108.411       13.611        0.016      338.153       10.611      862.686
10/27/2014  20:23:00      -57.730       74.567       -8.028       50.393       44.330       26.747     2539.455     1965.112      715.386        0.709        0.261       94.303       28.512        0.091      338.171       10.640      862.678
10/27/2014  20:24:00     -125.866       78.075      -25.457       61.776       49.615       28.370     3816.291     2461.688      804.866        1.483        0.354      148.115       36.015        0.059      338.153       10.609      862.668
10/27/2014  20:25:00     -104.390       73.674      -11.670       50.887       40.829       33.549     2589.525     1667.002     1125.515        1.092        0.269      127.770       24.868        0.038      338.091       10.507      862.668
10/27/2014  20:26:00     -121.952      122.926      -31.317       36.503       57.906       26.760     1332.463     3353.071      716.108        1.818        0.270      173.156       28.921        0.028      338.205       10.698      862.676
10/27/2014  20:27:00      -86.578       50.137      -17.194       31.386       36.649       21.637      985.110     1343.133      468.176        0.655        0.140      100.047       16.741        0.028      338.133       10.579      862.687
10/27/2014  20:28:00      -76.765       80.350      -15.457       38.985       27.591       21.754     1519.809      761.243      473.228        0.767        0.138      111.126       21.404        0.037      338.117       10.551      862.697
10/27/2014  20:29:00      -72.168       26.411      -10.360       34.681       23.844       15.355     1202.785      568.540      235.780        0.401        0.100       76.848       13.965        0.033      338.146       10.598      862.695
10/27/2014  20:30:00      -80.505       71.358      -21.673       24.988       41.982       19.994      624.376     1762.469      399.748        0.741        0.139      107.578       20.559        0.037      338.103       10.528      862.697
10/27/2014  20:31:00      -81.056      101.456      -18.378       28.888       47.680       26.760      834.532     2273.403      716.073        1.051        0.191      129.859       24.326        0.035      338.047       10.433      862.715
10/27/2014  20:32:00      -98.084       70.380      -13.062       30.680       34.525       19.762      941.274     1191.950      390.543        0.863        0.126      120.722       21.196        0.031      338.087       10.499      862.721
10/27/2014  20:33:00      -79.366       76.991      -15.106       19.853       37.003       19.419      394.160     1369.204      377.080        0.730        0.107      110.574       12.195        0.012      338.065       10.464      862.730
10/27/2014  20:34:00      -96.107       96.577      -22.131       38.233       56.521       22.640     1461.736     3194.573      512.547        1.211        0.258      136.249       16.554        0.015      338.045       10.430      862.739
10/27/2014  20:35:00     -112.636       87.419      -30.498       39.916       37.878       23.242     1593.304     1434.727      540.184        1.241        0.178      142.579       22.583        0.025      338.061       10.456      862.762
10/27/2014  20:36:00      -63.964       69.658      -20.025       22.278       28.066       14.178      496.308      787.704      201.022        0.541        0.074       94.571        7.916        0.007      338.022       10.392      862.775
10/27/2014  20:37:00      -70.075       28.151       -3.426       11.092       12.547       10.315      123.030      157.422      106.407        0.305        0.019       75.518        6.932        0.008      337.996       10.347      862.775
10/27/2014  20:38:00      -30.678       14.938       -7.707       32.493       37.905       18.729     1055.809     1436.804      350.777        0.203        0.142       34.122       22.921        0.451      338.025       10.396      862.779
10/27/2014  20:39:00      -51.426       -7.530       -5.802       36.514       20.308       13.369     1333.302      412.428      178.720        0.233        0.096       51.974       15.264        0.086      337.950       10.271      862.802
10/27/2014  20:40:00      -41.553        5.992       -2.881       26.149       17.493       18.831      683.773      306.008      354.594        0.156        0.067       41.983       13.198        0.099      337.890       10.171      862.823
10/27/2014  20:41:00      -57.877       66.393      -22.148       42.154       43.236       21.272     1776.972     1869.323      452.501        0.617        0.205       88.078       17.688        0.040      338.008       10.369      862.833
10/27/2014  20:42:00      -30.039       19.045        0.913       26.721       18.246       13.900      714.033      332.908      193.203        0.125        0.062       35.567       12.683        0.127      337.969       10.301      862.837
10/27/2014  20:43:00      -65.347        1.990       -6.364       36.542       57.867       19.473     1335.315     3348.541      379.204        0.469        0.253       65.377       18.391        0.079      338.020       10.389      862.836
10/27/2014  20:44:00      -47.323       52.202       -2.485       41.769       39.897       28.517     1744.639     1591.799      813.223        0.456        0.207       70.459       24.796        0.124      337.927       10.232      862.841
10/27/2014  20:45:00      -83.587       59.943      -10.742       43.469       44.017       20.734     1889.567     1937.478      429.893        0.748        0.213      102.859       14.443        0.020      337.910       10.203      862.866
10/27/2014  20:46:00      -93.120       95.767      -23.561       34.312       75.335       22.948     1177.301     5675.366      526.631        1.289        0.369      133.576       23.800        0.032      337.959       10.283      862.904
10/27/2014  20:47:00     -138.277       24.687      -23.358       34.060       35.991       21.303     1160.077     1295.317      453.832        1.159        0.145      140.463       16.038        0.013      337.897       10.182      862.931
10/27/2014  20:48:00      -98.693      -19.394       -7.341       40.714       36.098       18.740     1657.628     1303.079      351.196        0.674        0.166      100.581       17.014        0.029      337.849       10.100      862.950
10/27/2014  20:49:00      -64.339      -23.089       -1.827       36.455       28.860       21.326     1328.996      832.887      454.803        0.365        0.131       68.356       15.680        0.053      337.812       10.039      862.977
10/27/2014  20:50:00      -71.828       -0.050       -8.925       29.556       59.437       22.243      873.566     3532.764      494.734        0.507        0.245       71.828       25.662        0.128      337.844       10.094      862.996
10/27/2014  20:51:00      -47.120       -5.412       -2.285       38.755       42.439       21.260     1501.926     1801.065      451.981        0.300        0.188       47.429       20.861        0.193      337.780        9.984      863.013
10/27/2014  20:52:00      -72.636      -35.500       -7.833       21.019       25.433       10.916      441.817      646.828      119.155        0.390        0.060       80.847        8.044        0.010      337.749        9.934      863.031
10/27/2014  20:53:00      -97.098      -28.533      -10.206       22.531       20.233       13.459      507.652      409.392      181.145        0.572        0.055      101.203       10.651        0.011      337.755        9.942      863.041
10/27/2014  20:54:00      -84.593        6.794       -7.098       31.684       24.007       20.609     1003.894      576.343      424.739        0.463        0.100       84.865       15.940        0.035      337.679        9.815      863.056
10/27/2014  20:55:00      -66.790       10.455      -10.136       26.719       26.828       20.761      713.908      719.732      431.019        0.327        0.093       67.603       13.076        0.037      337.732        9.906      863.051
10/27/2014  20:56:00      -46.955      -13.812        3.255       29.396       37.249       16.989      864.097     1387.467      288.629        0.247        0.127       48.944       14.810        0.092      337.606        9.693      863.063
10/27/2014  20:57:00      -62.731       37.743      -13.031       32.246       25.083       18.827     1039.783      629.161      354.473        0.378        0.101       73.210       10.070        0.019      337.707        9.863      863.074
10/27/2014  20:58:00      -81.686       -1.722      -23.360       16.357       28.616       19.937      267.550      818.853      397.494        0.435        0.074       81.704       15.296        0.035      337.752        9.939      863.083
10/27/2014  20:59:00      -46.076       -2.260      -15.346       27.109       24.456       18.993      734.895      598.116      360.742        0.203        0.085       46.131       14.927        0.105      337.745        9.928      863.093
10/27/2014  21:00:00      -40.093       29.656       -7.759       30.192       40.763       18.669      911.565     1661.628      348.549        0.273        0.146       49.869       10.811        0.047      337.695        9.842      863.094
10/27/2014  21:01:00      -60.551       -8.196       -8.273       32.459       36.825       16.485     1053.614     1356.075      271.744        0.324        0.134       61.104       12.402        0.041      337.755        9.944      863.086
10/27/2014  21:02:00      -49.628       -1.744       -8.054       20.054       16.643       13.380      402.144      276.989      179.033        0.169        0.043       49.659        9.684        0.038      337.722        9.885      863.095
10/27/2014  21:03:00      -76.973      -14.248       -7.892       17.815       21.858       17.625      317.382      477.774      310.641        0.365        0.055       78.281       11.492        0.022      337.687        9.830      863.106
10/27/2014  21:04:00      -72.037       -2.080      -14.018       25.711       31.975       22.184      661.078     1022.432      492.133        0.378        0.109       72.067       10.142        0.020      337.684        9.825      863.116
10/27/2014  21:05:00      -69.652       64.659      -23.987       33.107       53.915       30.101     1096.094     2906.828      906.080        0.726        0.245       95.038       15.622        0.027      337.759        9.950      863.132
10/27/2014  21:06:00      -68.566        5.144       -5.689       65.861       36.423       24.059     4337.690     1326.611      578.859        0.550        0.312       68.759       35.024        0.259      337.711        9.868      863.144
10/27/2014  21:07:00      -84.438       12.634       -6.653       58.055       62.889       35.352     3370.368     3955.088     1249.742        0.795        0.429       85.378       34.817        0.166      337.759        9.950      863.163
10/27/2014  21:08:00      -86.976       66.225      -14.224       39.423       62.429       28.308     1554.147     3897.336      801.319        0.920        0.313      109.318       25.066        0.053      337.690        9.834      863.193
10/27/2014  21:09:00     -137.902       92.265      -26.175       61.067       45.663       33.924     3729.180     2085.126     1150.867        1.759        0.348      165.921       30.527        0.034      337.712        9.870      863.214
10/27/2014  21:10:00     -132.608      105.781      -22.572       51.075       70.422       40.106     2608.644     4959.276     1608.478        1.923        0.459      169.630       41.648        0.060      337.719        9.881      863.227
10/27/2014  21:11:00      -84.624       12.326       -8.509       25.589       35.856       16.725      654.783     1285.687      279.725        0.480        0.111       85.517       11.101        0.017      337.633        9.738      863.243
10/27/2014  21:12:00      -39.141       69.442        5.600       31.493       69.956       25.801      991.810     4893.887      665.679        0.647        0.328       79.713       29.651        0.138      337.627        9.728      863.244
10/27/2014  21:13:00      -92.968       84.364      -27.589       54.620       51.228       30.657     2983.312     2624.314      939.877        1.153        0.327      125.540       24.051        0.037      337.734        9.908      863.233
10/27/2014  21:14:00      -81.589       80.809      -14.093       42.804       65.671       34.062     1832.216     4312.666     1160.243        1.034        0.365      114.834       38.073        0.110      337.703        9.857      863.240
10/27/2014  21:15:00      -50.289       98.190      -13.352       28.507       50.333       25.054      812.674     2533.382      627.681        0.816        0.199      110.319       21.228        0.037      337.727        9.896      863.237
10/27/2014  21:16:00      -50.211       92.214       -8.397       35.221       37.402       17.838     1240.511     1398.932      318.211        0.703        0.148      104.998       14.911        0.020      337.725        9.894      863.245
10/27/2014  21:17:00      -44.998       54.517      -14.308       34.038       34.363       20.132     1158.558     1180.818      405.314        0.397        0.137       70.688       15.719        0.049      337.775        9.979      863.248
10/27/2014  21:18:00      -54.156       61.462      -22.123       41.489       35.383       20.967     1721.338     1251.961      439.611        0.531        0.171       81.918       18.937        0.053      337.738        9.914      863.236
10/27/2014  21:19:00      -84.838       57.638      -13.414       38.351       40.693       22.811     1470.835     1655.954      520.357        0.717        0.182      102.566       19.911        0.038      337.718        9.881      863.236
10/27/2014  21:20:00     -102.360       29.943      -13.187       25.221       23.072       15.786      636.107      532.337      249.183        0.648        0.071      106.649        9.697        0.008      337.748        9.931      863.219
10/27/2014  21:21:00      -75.474       43.707      -10.363       32.168       42.917       22.973     1034.753     1841.892      527.772        0.556        0.170       87.216       25.427        0.085      337.703        9.855      863.217
10/27/2014  21:22:00     -118.464       74.010      -24.671       36.353       41.412       29.554     1321.515     1714.919      873.459        1.201        0.195      139.682       24.399        0.031      337.756        9.944      863.209
10/27/2014  21:23:00      -80.118      100.891      -17.747       32.770       50.988       25.556     1073.887     2599.736      653.094        1.062        0.216      128.833       23.521        0.033      337.741        9.920      863.226
10/27/2014  21:24:00      -82.411      137.710      -19.657       41.499       70.092       31.016     1722.187     4912.926      961.965        1.687        0.380      160.485       15.183        0.009      337.834       10.075      863.231
10/27/2014  21:25:00      -50.229      130.797      -19.844       38.421       46.797       25.962     1476.197     2189.997      674.006        1.218        0.217      140.110       20.258        0.021      337.762        9.956      863.245
10/27/2014  21:26:00      -23.983       94.462       -5.588       29.049       46.026       25.279      843.826     2118.373      639.034        0.656        0.180       97.459       24.696        0.064      337.748        9.930      863.253
10/27/2014  21:27:00        0.468       46.839       -4.346       24.370       35.653       25.446      593.885     1271.102      647.477        0.236        0.126       46.842       24.603        0.276      337.669        9.801      863.267
10/27/2014  21:28:00       37.993       17.774       16.303       18.636       16.229       17.645      347.301      263.367      311.341        0.147        0.046       41.945       14.382        0.118      337.557        9.613      863.266
10/27/2014  21:29:00       15.208        8.190        3.695       10.924       12.042       14.049      119.335      145.017      197.365        0.039        0.023       17.273        7.711        0.199      337.501        9.517      863.275
10/27/2014  21:30:00        7.829      -22.465       -6.555       10.489       10.349        8.352      110.012      107.103       69.753        0.045        0.014       23.791        3.116        0.017      337.553        9.606      863.281
10/27/2014  21:31:00       12.439       -9.282        3.532       17.336       16.716       16.252      300.528      279.435      264.142        0.055        0.042       15.520       13.634        0.772      337.566        9.626      863.271
10/27/2014  21:32:00        9.121      -13.879       12.757       11.432       13.054        8.227      130.682      170.394       67.682        0.040        0.018       16.608        6.262        0.142      337.475        9.473      863.278
10/27/2014  21:33:00        1.324      -14.778        1.347       19.048       12.687        7.216      362.814      160.951       52.072        0.040        0.029       14.837        5.852        0.156      337.604        9.690      863.267
10/27/2014  21:34:00      -13.814      -12.433        1.302       17.145       12.663        7.877      293.952      160.355       62.053        0.043        0.026       18.585        6.965        0.140      337.566        9.625      863.283
10/27/2014  21:35:00      -62.796      -47.949       -0.228       29.104       26.552       16.669      847.065      705.028      277.872        0.404        0.091       79.009       10.168        0.017      337.491        9.501      863.296
10/27/2014  21:36:00      -41.683      -33.282       -1.024       51.628       24.774       17.296     2665.418      613.765      299.156        0.321        0.179       53.340       11.758        0.049      337.492        9.501      863.308
10/27/2014  21:37:00      -52.637      -46.396        4.785       40.251       22.750       19.839     1620.142      517.574      393.572        0.374        0.127       70.166       21.510        0.094      337.426        9.391      863.327
10/27/2014  21:38:00      -43.408      -45.882        9.408       38.134       26.335       18.903     1454.191      693.520      357.310        0.329        0.125       63.162       22.106        0.122      337.393        9.336      863.339
10/27/2014  21:39:00      -78.007      -62.270       -2.447       32.674       28.501       21.148     1067.606      812.305      447.256        0.615        0.116       99.813       19.055        0.036      337.348        9.261      863.369
10/27/2014  21:40:00      -55.210      -49.282        6.100       36.104       32.101       20.140     1303.522     1030.492      405.619        0.413        0.137       74.006       20.075        0.074      337.289        9.162      863.386
10/27/2014  21:41:00      -73.950      -46.155        8.751       45.190       27.127       22.960     2042.165      735.895      527.164        0.549        0.165       87.172       14.825        0.029      337.199        9.011      863.397
10/27/2014  21:42:00      -72.531      -80.949       -6.171       34.063       36.637       19.742     1160.276     1342.240      389.737        0.737        0.145      108.690       16.114        0.022      337.164        8.953      863.421
10/27/2014  21:43:00      -49.615      -57.514       -1.177       35.883       28.983       17.275     1287.609      840.041      298.413        0.410        0.121       75.958       10.694        0.020      337.130        8.893      863.422
10/27/2014  21:44:00      -53.269      -38.213        2.732       29.840       29.166       18.000      890.432      850.636      323.989        0.318        0.103       65.557        9.870        0.023      337.065        8.787      863.408
10/27/2014  21:45:00      -69.381      -55.415        9.190       36.475       39.361       22.929     1330.402     1549.308      525.721        0.569        0.170       88.795       24.422        0.076      337.038        8.741      863.411
10/27/2014  21:46:00      -69.635      -71.333        3.839       43.961       35.246       24.832     1932.551     1242.305      616.618        0.687        0.190       99.687       25.995        0.068      336.984        8.651      863.408
10/27/2014  21:47:00      -89.481      -70.759       -7.041       38.358       28.104       19.415     1471.320      789.816      376.954        0.785        0.132      114.078       20.512        0.032      336.969        8.627      863.408
10/27/2014  21:48:00      -34.332      -39.541        8.864       40.627       33.800       25.205     1650.542     1142.416      635.287        0.312        0.171       52.366       27.725        0.280      336.905        8.519      863.420
10/27/2014  21:49:00      -69.318      -53.384       -4.972       30.999       30.013       17.490      960.926      900.786      305.912        0.492        0.108       87.492        9.114        0.011      336.928        8.559      863.418
10/27/2014  21:50:00      -50.482      -63.687        2.903       30.529       26.866       20.799      931.994      721.759      432.579        0.435        0.104       81.268       19.223        0.056      336.892        8.499      863.424
10/27/2014  21:51:00      -47.813      -57.570        1.227       29.451       24.340       24.523      867.357      592.450      601.402        0.383        0.103       74.835       22.095        0.087      336.899        8.511      863.421
10/27/2014  21:52:00      -36.230      -67.242        5.270       30.350       27.899       24.192      921.151      778.332      585.270        0.407        0.114       76.381       25.151        0.108      336.878        8.475      863.406
10/27/2014  21:53:00      -27.119      -65.130        5.696       29.103       22.581       21.492      846.988      509.894      461.912        0.341        0.091       70.551       18.133        0.066      336.945        8.586      863.414
10/27/2014  21:54:00      -48.175      -57.076        0.844       22.794       27.601       17.752      519.556      761.837      315.126        0.359        0.080       74.689       14.392        0.037      336.903        8.518      863.411
10/27/2014  21:55:00      -40.475      -55.548        6.194       30.458       29.246       18.399      927.670      855.307      338.527        0.344        0.106       68.730       18.101        0.069      336.835        8.404      863.420
10/27/2014  21:56:00      -75.777      -72.024       -1.140       27.481       24.363       18.166      755.214      593.547      330.019        0.630        0.084      104.545       15.780        0.023      336.846        8.423      863.430
10/27/2014  21:57:00     -109.755      -75.982      -12.932       37.445       28.544       24.566     1402.109      814.760      603.466        1.040        0.141      133.490       21.712        0.026      336.800        8.345      863.444
10/27/2014  21:58:00     -120.581      -65.973       -1.082       30.765       24.746       19.843      946.473      612.381      393.753        1.042        0.098      137.449       14.123        0.011      336.699        8.176      863.468
10/27/2014  21:59:00      -75.270      -47.975        8.129       40.541       27.879       20.340     1643.537      777.220      413.715        0.543        0.142       89.259       18.831        0.045      336.677        8.141      863.471
10/27/2014  22:00:00      -70.782      -58.434       -0.776       30.861       30.890       17.819      952.406      954.174      317.533        0.532        0.111       91.786       16.099        0.031      336.692        8.164      863.478
10/27/2014  22:01:00      -52.966      -52.006       -1.032       24.559       21.844       17.754      603.162      477.154      315.204        0.345        0.070       74.230       10.101        0.019      336.688        8.158      863.481
10/27/2014  22:02:00      -81.506      -38.647       -7.036       12.978       20.944       10.595      168.439      438.663      112.260        0.445        0.036       90.204        4.767        0.003      336.731        8.231      863.496
10/27/2014  22:03:00      -83.504      -34.634       -6.376       14.343       15.877        9.046      205.729      252.089       81.823        0.438        0.027       90.402        6.896        0.006      336.782        8.315      863.512
10/27/2014  22:04:00      -73.331      -39.357       -9.303       18.989       16.350       10.588      360.577      267.333      112.115        0.388        0.037       83.225        5.604        0.005      336.738        8.243      863.532
10/27/2014  22:05:00      -38.274      -16.621        7.914       27.173       14.414       11.132      738.364      207.764      123.913        0.144        0.054       41.727       11.360        0.074      336.740        8.245      863.567
10/27/2014  22:06:00      -88.919      -32.157       -1.569       34.847       25.166       15.462     1214.346      633.347      239.086        0.551        0.104       94.555       16.098        0.029      336.734        8.236      863.578
10/27/2014  22:07:00      -82.875      -18.798        5.568       37.267       24.152       19.787     1388.843      583.342      391.510        0.481        0.118       84.980       20.503        0.058      336.660        8.111      863.597
10/27/2014  22:08:00      -95.687      -40.773        0.566       28.097       29.480       15.462      789.430      869.049      239.080        0.636        0.095      104.012       12.699        0.015      336.659        8.112      863.609
10/27/2014  22:09:00     -113.507      -43.864       -1.236       28.310       18.669       16.896      801.459      348.540      285.465        0.812        0.072      121.688       13.851        0.013      336.690        8.163      863.629
10/27/2014  22:10:00      -88.588      -32.803       -1.249       28.275       23.757       14.771      799.469      564.408      218.171        0.525        0.079       94.466       14.712        0.024      336.658        8.109      863.652
10/27/2014  22:11:00      -91.018      -33.165       -4.429       23.299       19.292       13.099      542.861      372.192      171.592        0.524        0.054       96.871       12.654        0.017      336.664        8.119      863.671
10/27/2014  22:12:00     -100.650      -31.229       -4.872       18.112       20.331       12.134      328.036      413.369      147.231        0.601        0.044      105.383        9.694        0.008      336.698        8.175      863.674
10/27/2014  22:13:00     -111.970      -34.436       -8.249       17.283       10.878       10.449      298.696      118.322      109.182        0.716        0.026      117.146        4.729        0.002      336.692        8.166      863.686
10/27/2014  22:14:00     -107.846      -51.095      -10.350       11.828       17.513       11.322      139.909      306.696      128.178        0.746        0.029      119.338        7.104        0.004      336.694        8.169      863.685
10/27/2014  22:15:00      -92.179      -49.041       -1.710       25.871       18.421       15.090      669.329      339.343      227.715        0.607        0.062      104.412        7.244        0.005      336.684        8.150      863.682
10/27/2014  22:16:00      -79.973      -49.913       -4.469       21.231       14.659       13.324      450.740      214.882      177.524        0.487        0.042       94.271        9.676        0.011      336.637        8.073      863.699
10/27/2014  22:17:00      -70.241      -35.132       -4.369       22.861       18.191       11.045      522.635      330.923      121.985        0.358        0.049       78.537        7.358        0.009      336.626        8.055      863.716
10/27/2014  22:18:00      -98.248      -46.503      -10.130       23.993       20.710       12.958      575.647      428.898      167.905        0.654        0.059      108.698       11.926        0.012      336.613        8.034      863.715
10/27/2014  22:19:00      -89.499      -49.888       -4.154       30.053       22.042       17.555      903.195      485.853      308.190        0.611        0.085      102.464       19.267        0.035      336.587        7.989      863.719
10/27/2014  22:20:00      -77.297      -47.790        2.504       33.526       26.431       19.240     1123.977      698.609      370.193        0.523        0.110       90.878       18.516        0.042      336.662        8.114      863.725
10/27/2014  22:21:00      -58.096      -39.664        3.024       33.177       24.175       15.965     1100.726      584.422      254.879        0.345        0.097       70.344       12.494        0.032      336.655        8.103      863.730
10/27/2014  22:22:00      -41.306      -43.592        8.840       38.134       24.991       21.759     1454.194      624.532      473.466        0.312        0.128       60.054       23.808        0.157      336.669        8.127      863.725
10/27/2014  22:23:00      -68.137      -41.683        0.276       36.675       25.652       16.364     1345.084      658.046      267.794        0.433        0.114       79.876       13.428        0.028      336.725        8.220      863.721
10/27/2014  22:24:00      -82.820      -62.557       -0.505       46.186       31.889       18.662     2133.170     1016.902      348.280        0.713        0.175      103.791       17.496        0.028      336.760        8.278      863.723
10/27/2014  22:25:00      -12.422       -0.889        6.210       35.620       15.859       20.603     1268.779      251.511      424.463        0.107        0.097       12.454       21.967        3.111      336.759        8.278      863.727
10/27/2014  22:26:00      -75.660      -29.480       -4.940       23.331       22.865       11.777      544.322      522.809      138.699        0.391        0.060       81.200        8.914        0.012      336.718        8.210      863.734
10/27/2014  22:27:00      -73.008      -32.599       -1.018       34.465       19.390       14.624     1187.859      375.986      213.855        0.409        0.089       79.956       17.189        0.046      336.551        7.929      863.742
10/27/2014  22:28:00      -80.114      -42.004       -3.855       26.737       20.435       16.097      714.875      417.588      259.124        0.479        0.070       90.458       15.001        0.028      336.606        8.019      863.743
10/27/2014  22:29:00      -38.543      -43.890        8.266       40.337       19.738       17.800     1627.053      389.574      316.823        0.291        0.117       58.411       21.427        0.135      336.631        8.064      863.741
10/27/2014  22:30:00      -20.168      -26.928        7.541       30.476       13.974       13.587      928.809      195.280      184.595        0.125        0.065       33.643       15.285        0.206      336.676        8.139      863.746
10/27/2014  22:31:00      -43.542      -28.382        3.592       29.302       17.979       14.158      858.618      323.256      200.461        0.205        0.069       51.975       16.184        0.097      336.627        8.057      863.772
10/27/2014  22:32:00      -74.963      -50.521       -6.777       26.200       23.074       14.527      686.454      532.414      211.035        0.482        0.071       90.398       11.516        0.016      336.698        8.173      863.783
10/27/2014  22:33:00      -67.304      -58.721       -1.287       40.493       20.882       19.345     1639.684      436.066      374.245        0.521        0.122       89.319       20.494        0.053      336.693        8.167      863.797
10/27/2014  22:34:00      -83.582      -45.501        6.680       41.536       30.694       23.549     1725.230      942.120      554.552        0.616        0.161       95.164       24.139        0.064      336.570        7.960      863.812
10/27/2014  22:35:00      -75.134      -44.957        1.434       43.522       25.327       17.402     1894.135      641.458      302.825        0.525        0.142       87.557       17.271        0.039      336.510        7.863      863.829
10/27/2014  22:36:00      -84.910      -47.778       -2.433       30.179       18.146       15.672      910.768      329.262      245.617        0.549        0.074       97.429       11.827        0.015      336.515        7.869      863.829
10/27/2014  22:37:00     -101.280      -70.522       -5.619       41.613       26.719       15.265     1731.643      713.879      233.024        0.897        0.134      123.414       17.674        0.021      336.584        7.985      863.833
10/27/2014  22:38:00      -83.574      -64.540        4.488       36.506       27.074       17.881     1332.684      732.981      319.735        0.678        0.119      105.593       19.303        0.033      336.507        7.856      863.834
10/27/2014  22:39:00      -57.169      -39.802        5.050       38.745       34.850       19.869     1501.201     1214.503      394.788        0.399        0.156       69.659       15.999        0.053      336.409        7.693      863.839
10/27/2014  22:40:00      -79.142      -68.383       -5.930       46.842       35.652       23.296     2194.171     1271.039      542.720        0.749        0.200      104.593       23.108        0.049      336.434        7.734      863.840
10/27/2014  22:41:00      -79.580      -59.267        4.204       43.819       30.752       22.600     1920.140      945.698      510.766        0.662        0.169       99.225       24.567        0.061      336.386        7.653      863.825
10/27/2014  22:42:00      -44.908      -27.990        8.287       34.109       22.401       18.851     1163.402      501.784      355.347        0.244        0.101       52.917       16.635        0.099      336.342        7.579      863.822
10/27/2014  22:43:00      -41.960      -48.788       11.304       45.414       24.048       20.521     2062.467      578.317      421.091        0.366        0.153       64.350       21.407        0.111      336.386        7.651      863.819
10/27/2014  22:44:00      -57.380      -82.760       -8.862       32.704       17.890       18.468     1069.553      320.060      341.081        0.598        0.087      100.706       20.043        0.040      336.281        7.476      863.799
10/27/2014  22:45:00      -33.159      -72.425       -6.894       16.226       32.356        8.860      263.281     1046.908       78.495        0.389        0.069       79.655        2.367        0.001      336.219        7.373      863.786
10/27/2014  22:46:00      -34.098      -32.714        3.792       33.987       20.967       19.923     1155.103      439.615      396.915        0.212        0.100       47.253       17.827        0.142      336.239        7.408      863.784
10/27/2014  22:47:00      -34.081      -30.965        9.212       37.684       25.061       20.114     1420.118      628.071      404.576        0.233        0.123       46.048       14.376        0.097      336.177        7.302      863.771
10/27/2014  22:48:00      -81.331      -42.606        6.605       49.177       40.536       25.651     2418.357     1643.185      657.976        0.660        0.236       91.816       20.767        0.051      336.129        7.224      863.763
10/27/2014  22:49:00      -95.788      -77.684        0.345       40.268       29.730       23.964     1621.490      883.875      574.267        0.914        0.154      123.329       22.377        0.033      336.059        7.107      863.762
10/27/2014  22:50:00     -116.786      -68.652       -3.270       41.807       33.333       27.130     1747.811     1111.087      736.031        1.098        0.180      135.470       22.328        0.027      336.034        7.065      863.783
10/27/2014  22:51:00      -91.474      -66.147        7.701       50.612       32.180       26.562     2561.567     1035.555      705.527        0.855        0.215      112.885       29.881        0.070      336.015        7.033      863.799
10/27/2014  22:52:00      -61.996      -57.855        6.300       56.423       38.532       29.407     3183.580     1484.710      864.791        0.638        0.277       84.798       33.682        0.158      336.039        7.072      863.815
10/27/2014  22:53:00      -96.105      -81.669       -9.905       40.422       28.410       17.721     1633.920      807.107      314.019        0.938        0.138      126.119       19.712        0.024      336.071        7.125      863.837
10/27/2014  22:54:00      -97.781      -70.530       -2.882       23.577       30.539       19.122      555.861      932.601      365.655        0.820        0.093      120.564       14.960        0.015      336.088        7.155      863.870
10/27/2014  22:55:00     -111.990      -68.129       -7.536       29.452       24.299       20.016      867.443      590.427      400.636        0.955        0.093      131.085       17.476        0.018      336.074        7.133      863.879
10/27/2014  22:56:00     -124.790      -52.645       -1.953       33.286       25.097       22.087     1107.989      629.841      487.835        1.029        0.111      135.440       17.737        0.017      336.002        7.011      863.888
10/27/2014  22:57:00     -142.267      -46.041       -7.885       26.506       22.923       14.972      702.567      525.468      224.155        1.194        0.073      149.531       12.080        0.007      336.022        7.044      863.898
10/27/2014  22:58:00     -116.020      -42.106       -5.288       33.616       32.162       19.411     1130.026     1034.368      376.788        0.890        0.127      123.424       14.970        0.015      336.014        7.032      863.902
10/27/2014  22:59:00      -73.351      -42.436        7.261       45.924       29.422       21.871     2109.021      865.668      478.355        0.534        0.173       84.742       15.862        0.035      336.008        7.021      863.894
10/27/2014  23:00:00      -99.165      -49.116       -0.079       42.748       25.782       15.681     1827.417      664.692      245.891        0.749        0.137      110.662       15.072        0.019      336.052        7.095      863.906
10/27/2014  23:01:00     -113.550      -33.390       -5.750       25.529       25.470       14.407      651.754      648.746      207.569        0.777        0.075      118.358       12.579        0.011      335.980        6.974      863.914
10/27/2014  23:02:00     -102.484      -25.877       -4.954       28.373       23.602       15.542      805.028      557.041      241.562        0.640        0.080      105.700        8.709        0.007      335.905        6.850      863.918
10/27/2014  23:03:00      -52.685      -23.526        4.078       43.981       20.238       17.682     1934.307      409.595      312.646        0.300        0.133       57.699       24.320        0.178      335.905        6.851      863.905
10/27/2014  23:04:00      -22.927      -22.720        3.444       19.546       18.997       11.651      382.059      360.898      135.739        0.097        0.044       32.278       10.676        0.109      336.028        7.054      863.885
10/27/2014  23:05:00      -46.545      -47.739       -7.992       24.201       11.429       14.089      585.684      130.612      198.494        0.271        0.046       66.675        9.738        0.021      336.184        7.315      863.868
10/27/2014  23:06:00      -47.852      -34.635       -8.009       23.782       13.809       11.558      565.575      190.685      133.577        0.222        0.044       59.071       11.406        0.037      336.187        7.320      863.862
10/27/2014  23:07:00      -97.937      -30.528      -10.791       16.966       13.071       11.712      287.845      170.861      137.181        0.562        0.030      102.585        8.089        0.006      336.164        7.283      863.878
10/27/2014  23:08:00      -95.457      -45.315      -13.985       18.782       17.572       11.957      352.756      308.771      142.979        0.608        0.040      105.667        8.993        0.007      336.103        7.180      863.899
10/27/2014  23:09:00      -96.129      -31.884      -13.173       13.377       15.645       12.138      178.934      244.753      147.333        0.550        0.029      101.279        8.388        0.007      336.071        7.126      863.922
10/27/2014  23:10:00     -121.676      -38.810      -13.034       17.919       22.226       12.195      321.093      494.006      148.727        0.872        0.048      127.716        6.912        0.003      336.042        7.077      863.942
10/27/2014  23:11:00     -102.949      -24.613       -7.273       22.662       16.665       14.924      513.572      277.735      222.740        0.614        0.051      105.850       13.516        0.016      335.954        6.931      863.944
10/27/2014  23:12:00      -54.120      -36.111        2.747       24.165       15.672       14.198      583.948      245.605      201.584        0.264        0.052       65.062       10.948        0.028      335.944        6.914      863.923
10/27/2014  23:13:00      -48.816      -33.619       -4.772       14.287       14.720        8.743      204.105      216.686       76.448        0.202        0.025       59.272        5.589        0.009      336.030        7.057      863.916
10/27/2014  23:14:00      -65.391      -15.301       -8.333        8.830       11.499        8.018       77.967      132.223       64.288        0.243        0.014       67.157        4.033        0.004      336.030        7.057      863.910
10/27/2014  23:15:00      -56.370      -13.839       -1.462       18.841       14.695       10.331      354.994      215.943      106.731        0.202        0.034       58.044        9.276        0.026      336.008        7.020      863.901
10/27/2014  23:16:00      -67.494      -20.240      -11.303       12.158       11.608        8.643      147.812      134.753       74.693        0.272        0.018       70.463        6.441        0.008      335.977        6.970      863.891
10/27/2014  23:17:00      -55.116      -21.080       -2.005       25.118       15.832       11.345      630.935      250.661      128.703        0.225        0.051       59.009       12.036        0.042      335.858        6.771      863.888
10/27/2014  23:18:00      -84.103      -36.131       -5.202       10.581       12.113        7.850      111.961      146.727       61.628        0.436        0.016       91.536        3.147        0.001      335.829        6.722      863.882
10/27/2014  23:19:00      -89.807      -23.084       -2.374       17.445       16.352       13.912      304.336      267.384      193.545        0.468        0.038       92.726       10.991        0.014      335.772        6.629      863.879
10/27/2014  23:20:00      -98.211      -32.579       -5.965       11.796       13.870        6.771      139.156      192.382       45.848        0.556        0.019      103.474        3.733        0.001      335.791        6.661      863.877
10/27/2014  23:21:00      -81.503      -36.557       -1.520       17.781       15.583       10.841      316.151      242.836      117.536        0.433        0.034       89.326        7.205        0.007      335.792        6.663      863.872
10/27/2014  23:22:00      -73.094      -49.339        0.021       23.834       15.479       11.284      568.039      239.611      127.325        0.436        0.047       88.187        9.012        0.010      335.766        6.619      863.877
10/27/2014  23:23:00      -86.196      -52.571        3.638       47.062       37.496       23.616     2214.875     1405.920      557.702        0.719        0.209      100.963       26.774        0.070      335.747        6.587      863.883
10/27/2014  23:24:00      -47.258      -63.285        4.079       51.957       36.539       18.185     2699.570     1335.081      330.703        0.531        0.218       78.983       16.539        0.044      335.768        6.622      863.885
10/27/2014  23:25:00     -104.408      -91.907       -3.905       39.366       31.049       20.328     1549.694      964.065      413.228        1.114        0.146      139.097       15.007        0.012      335.798        6.671      863.869
10/27/2014  23:26:00     -125.103     -104.925        3.711       47.844       48.355       29.758     2289.018     2338.220      885.547        1.609        0.276      163.279       27.221        0.028      335.721        6.544      863.856
10/27/2014  23:27:00     -154.316     -103.396       -9.054       51.351       54.327       32.695     2636.940     2951.465     1068.933        2.062        0.333      185.753       32.874        0.031      335.586        6.317      863.840
10/27/2014  23:28:00     -104.887      -82.928       -0.321       68.613       59.165       43.273     4707.736     3500.542     1872.522        1.398        0.504      133.710       41.039        0.094      335.486        6.150      863.841
10/27/2014  23:29:00     -137.645     -109.214       -9.420       61.702       41.397       39.693     3807.178     1713.723     1575.505        1.903        0.355      175.709       36.268        0.043      335.418        6.037      863.855
10/27/2014  23:30:00     -159.938     -144.996       -6.875       37.754       41.593       29.651     1425.347     1729.995      879.157        2.534        0.202      215.880       17.550        0.007      335.423        6.043      863.866
10/27/2014  23:31:00     -148.675     -110.204       -1.590       44.607       46.022       30.454     1989.821     2118.001      927.459        1.964        0.252      185.066       29.675        0.026      335.416        6.034      863.871
10/27/2014  23:32:00     -102.587      -69.560        1.956       63.625       38.742       30.041     4048.103     1500.958      902.443        1.091        0.323      123.947       25.343        0.042      335.428        6.054      863.873
10/27/2014  23:33:00     -112.167      -72.610       -2.222       51.457       34.954       22.278     2647.788     1221.786      496.297        1.111        0.218      133.618       20.247        0.023      335.440        6.074      863.871
10/27/2014  23:34:00     -130.368      -71.125       -1.877       52.974       32.394       22.319     2806.206     1049.397      498.150        1.321        0.218      148.508       25.897        0.030      335.435        6.067      863.860
10/27/2014  23:35:00     -110.479      -59.345        0.561       47.615       34.737       23.633     2267.147     1206.628      558.541        0.988        0.202      125.409       18.765        0.022      335.450        6.093      863.858
10/27/2014  23:36:00     -103.049      -67.913        0.389       41.006       30.269       23.930     1681.529      916.211      572.650        0.920        0.159      123.415       18.865        0.023      335.385        5.982      863.852
10/27/2014  23:37:00      -83.856      -61.112       10.116       52.770       39.379       26.908     2784.718     1550.702      724.038        0.796        0.253      103.762       26.750        0.066      335.358        5.937      863.865
10/27/2014  23:38:00      -87.448      -78.640        1.697       42.110       35.162       21.893     1773.277     1236.397      479.297        0.866        0.174      117.607       20.135        0.029      335.396        6.002      863.875
10/27/2014  23:39:00     -164.093      -80.208       -5.864       33.483       26.257       21.392     1121.140      689.407      457.615        1.783        0.113      182.647       18.474        0.010      335.359        5.939      863.872
10/27/2014  23:40:00     -111.651      -55.364       -1.166       58.725       38.874       30.025     3448.656     1511.221      901.497        1.070        0.293      124.624       26.392        0.045      335.333        5.897      863.875
10/27/2014  23:41:00     -127.207      -87.429      -10.398       43.901       40.335       24.860     1927.306     1626.875      618.039        1.405        0.209      154.355       21.172        0.019      335.339        5.906      863.871
10/27/2014  23:42:00     -110.960      -31.791       -5.264       33.052       31.830       26.029     1092.439     1013.146      677.496        0.807        0.139      115.424       22.934        0.039      335.288        5.822      863.862
10/27/2014  23:43:00      -98.223      -24.436        1.525       38.657       26.568       22.866     1494.378      705.840      522.845        0.648        0.136      101.217       24.016        0.056      335.202        5.679      863.861
10/27/2014  23:44:00     -107.646      -18.954       -0.176       38.787       26.578       19.071     1504.420      706.413      363.686        0.726        0.129      109.302       21.966        0.040      335.152        5.596      863.855
10/27/2014  23:45:00     -144.144      -39.483       -3.464       26.372       24.348       17.708      695.490      592.847      313.562        1.197        0.080      149.454       14.563        0.009      335.153        5.598      863.850
10/27/2014  23:46:00     -151.448      -49.920       -1.964       31.163       27.042       17.180      971.126      731.285      295.165        1.371        0.100      159.463        9.725        0.004      335.173        5.630      863.873
10/27/2014  23:47:00     -160.655      -64.171       -2.261       31.805       36.119       19.884     1011.529     1304.608      395.384        1.632        0.136      172.997       15.247        0.008      335.127        5.556      863.882
10/27/2014  23:48:00     -158.122      -49.649       -7.287       26.466       31.885       18.698      700.447     1016.664      349.626        1.479        0.103      165.733       13.760        0.007      335.151        5.595      863.896
10/27/2014  23:49:00     -153.319      -46.724        0.215       33.470       28.147       20.890     1120.254      792.252      436.406        1.402        0.117      160.281       18.711        0.014      335.145        5.585      863.899
10/27/2014  23:50:00     -159.350      -78.805        0.491       31.668       18.965       19.721     1002.883      359.684      388.930        1.668        0.088      177.771       18.897        0.011      335.239        5.740      863.889
10/27/2014  23:51:00     -151.068      -58.231       -2.821       28.553       30.566       21.575      815.281      934.267      465.467        1.422        0.111      161.902       12.324        0.006      335.388        5.988      863.869
10/27/2014  23:52:00     -120.153      -53.200       -3.525       25.156       21.279       20.959      632.825      452.795      439.266        0.940        0.076      131.404       17.566        0.018      335.435        6.067      863.838
10/27/2014  23:53:00     -125.192      -65.658       -4.208       22.240       20.282       14.587      494.597      411.355      212.773        1.056        0.056      141.365        9.427        0.004      335.505        6.183      863.828
10/27/2014  23:54:00     -132.357      -46.912       -5.680       23.524       24.950       17.350      553.371      622.519      301.006        1.061        0.074      140.425       13.922        0.010      335.403        6.014      863.823
10/27/2014  23:55:00     -131.239      -38.143       -4.869       22.149       17.413       10.996      490.585      303.226      120.907        0.981        0.046      136.670        8.974        0.004      335.362        5.946      863.833
10/27/2014  23:56:00     -111.072      -40.103      -14.642       18.078       19.078       11.011      326.822      363.971      121.250        0.749        0.041      118.090        7.217        0.004      335.309        5.856      863.854
10/27/2014  23:57:00      -83.869      -29.185       -4.172       32.994       35.004       18.551     1088.596     1225.293      344.129        0.528        0.133       88.802       16.661        0.035      335.200        5.675      863.854
10/27/2014  23:58:00      -79.731       -5.287       -1.549       48.387       24.355       17.145     2341.274      593.146      293.937        0.481        0.161       79.906       22.243        0.077      335.248        5.753      863.843
10/27/2014  23:59:00     -105.934      -31.835       -1.583       23.295       22.962       18.282      542.651      527.245      334.221        0.682        0.070      110.614       10.974        0.010      335.333        5.895      863.829
